<?xml version="1.0" encoding="UTF-8" standalone="no" ?>
<gpx xmlns="http://www.topografix.com/GPX/1/1" xmlns:xsi="http://www.w3.org/2001/XMLSchema-instance" xsi:schemaLocation="http://www.topografix.com/GPX/1/1 http://www.topografix.com/GPX/1/1/gpx.xsd" version="1.1" creator="VisuGPX - https://www.visugpx.com">
  <metadata>
    <name>retrouvaille</name>
    <desc><![CDATA[petite sortie pour retrouver mon poto depuis le temps...1mois]]></desc>
  </metadata>
  <trk>
    <name><![CDATA[20190113_095751.gpx]]></name>
    <trkseg>
      <trkpt lat="48.60455" lon="2.56246">
        <ele>33.464397</ele>
        <time>2019-01-13T09:01:38Z</time>
      </trkpt>
      <trkpt lat="48.60455" lon="2.56246">
        <ele>33.464397</ele>
        <time>2019-01-13T09:01:38Z</time>
      </trkpt>
      <trkpt lat="48.60428" lon="2.56095">
        <ele>34.283504</ele>
        <time>2019-01-13T09:02:00Z</time>
      </trkpt>
      <trkpt lat="48.60423" lon="2.56089">
        <ele>34.29407</ele>
        <time>2019-01-13T09:02:01Z</time>
      </trkpt>
      <trkpt lat="48.60422" lon="2.56085">
        <ele>34.54773</ele>
        <time>2019-01-13T09:02:02Z</time>
      </trkpt>
      <trkpt lat="48.60419" lon="2.56081">
        <ele>34.172527</ele>
        <time>2019-01-13T09:02:03Z</time>
      </trkpt>
      <trkpt lat="48.6041" lon="2.56069">
        <ele>33.633503</ele>
        <time>2019-01-13T09:02:05Z</time>
      </trkpt>
      <trkpt lat="48.60408" lon="2.56053">
        <ele>33.950577</ele>
        <time>2019-01-13T09:02:09Z</time>
      </trkpt>
      <trkpt lat="48.6041" lon="2.56039">
        <ele>35.261147</ele>
        <time>2019-01-13T09:02:12Z</time>
      </trkpt>
      <trkpt lat="48.6041" lon="2.56034">
        <ele>34.77761</ele>
        <time>2019-01-13T09:02:13Z</time>
      </trkpt>
      <trkpt lat="48.60414" lon="2.5602">
        <ele>34.51074</ele>
        <time>2019-01-13T09:02:16Z</time>
      </trkpt>
      <trkpt lat="48.60414" lon="2.56005">
        <ele>34.89651</ele>
        <time>2019-01-13T09:02:18Z</time>
      </trkpt>
      <trkpt lat="48.60419" lon="2.55987">
        <ele>34.259724</ele>
        <time>2019-01-13T09:02:21Z</time>
      </trkpt>
      <trkpt lat="48.60422" lon="2.55974">
        <ele>33.400986</ele>
        <time>2019-01-13T09:02:26Z</time>
      </trkpt>
      <trkpt lat="48.60423" lon="2.55973">
        <ele>33.36135</ele>
        <time>2019-01-13T09:02:27Z</time>
      </trkpt>
      <trkpt lat="48.60423" lon="2.55973">
        <ele>33.36135</ele>
        <time>2019-01-13T09:02:27Z</time>
      </trkpt>
      <trkpt lat="48.60418" lon="2.55943">
        <ele>33.947937</ele>
        <time>2019-01-13T09:02:34Z</time>
      </trkpt>
      <trkpt lat="48.60412" lon="2.55932">
        <ele>33.786755</ele>
        <time>2019-01-13T09:02:36Z</time>
      </trkpt>
      <trkpt lat="48.60401" lon="2.55922">
        <ele>33.517246</ele>
        <time>2019-01-13T09:02:39Z</time>
      </trkpt>
      <trkpt lat="48.60392" lon="2.55914">
        <ele>33.992855</ele>
        <time>2019-01-13T09:02:42Z</time>
      </trkpt>
      <trkpt lat="48.6039" lon="2.559">
        <ele>33.69692</ele>
        <time>2019-01-13T09:02:46Z</time>
      </trkpt>
      <trkpt lat="48.604" lon="2.55887">
        <ele>34.523952</ele>
        <time>2019-01-13T09:02:49Z</time>
      </trkpt>
      <trkpt lat="48.60407" lon="2.55875">
        <ele>34.66135</ele>
        <time>2019-01-13T09:02:51Z</time>
      </trkpt>
      <trkpt lat="48.60414" lon="2.55864">
        <ele>34.69834</ele>
        <time>2019-01-13T09:02:53Z</time>
      </trkpt>
      <trkpt lat="48.60421" lon="2.55852">
        <ele>34.796104</ele>
        <time>2019-01-13T09:02:55Z</time>
      </trkpt>
      <trkpt lat="48.6043" lon="2.5584">
        <ele>35.269073</ele>
        <time>2019-01-13T09:02:57Z</time>
      </trkpt>
      <trkpt lat="48.60437" lon="2.55829">
        <ele>35.517445</ele>
        <time>2019-01-13T09:02:59Z</time>
      </trkpt>
      <trkpt lat="48.6044" lon="2.55824">
        <ele>35.099968</ele>
        <time>2019-01-13T09:03:00Z</time>
      </trkpt>
      <trkpt lat="48.60448" lon="2.55814">
        <ele>35.485737</ele>
        <time>2019-01-13T09:03:02Z</time>
      </trkpt>
      <trkpt lat="48.60456" lon="2.55803">
        <ele>35.343056</ele>
        <time>2019-01-13T09:03:04Z</time>
      </trkpt>
      <trkpt lat="48.60463" lon="2.55793">
        <ele>35.68391</ele>
        <time>2019-01-13T09:03:06Z</time>
      </trkpt>
      <trkpt lat="48.60468" lon="2.55786">
        <ele>35.70769</ele>
        <time>2019-01-13T09:03:07Z</time>
      </trkpt>
      <trkpt lat="48.60471" lon="2.55781">
        <ele>35.88208</ele>
        <time>2019-01-13T09:03:08Z</time>
      </trkpt>
      <trkpt lat="48.60476" lon="2.55775">
        <ele>35.913788</ele>
        <time>2019-01-13T09:03:09Z</time>
      </trkpt>
      <trkpt lat="48.6048" lon="2.5577">
        <ele>36.36826</ele>
        <time>2019-01-13T09:03:10Z</time>
      </trkpt>
      <trkpt lat="48.60484" lon="2.55765">
        <ele>36.489803</ele>
        <time>2019-01-13T09:03:11Z</time>
      </trkpt>
      <trkpt lat="48.60488" lon="2.5576">
        <ele>36.666836</ele>
        <time>2019-01-13T09:03:12Z</time>
      </trkpt>
      <trkpt lat="48.60493" lon="2.55755">
        <ele>36.656265</ele>
        <time>2019-01-13T09:03:13Z</time>
      </trkpt>
      <trkpt lat="48.60505" lon="2.55744">
        <ele>36.759315</ele>
        <time>2019-01-13T09:03:15Z</time>
      </trkpt>
      <trkpt lat="48.6051" lon="2.55739">
        <ele>36.61399</ele>
        <time>2019-01-13T09:03:16Z</time>
      </trkpt>
      <trkpt lat="48.60521" lon="2.55729">
        <ele>36.804234</ele>
        <time>2019-01-13T09:03:18Z</time>
      </trkpt>
      <trkpt lat="48.60526" lon="2.55724">
        <ele>37.153015</ele>
        <time>2019-01-13T09:03:19Z</time>
      </trkpt>
      <trkpt lat="48.60532" lon="2.5572">
        <ele>37.060535</ele>
        <time>2019-01-13T09:03:20Z</time>
      </trkpt>
      <trkpt lat="48.60542" lon="2.55711">
        <ele>37.293053</ele>
        <time>2019-01-13T09:03:22Z</time>
      </trkpt>
      <trkpt lat="48.60547" lon="2.55706">
        <ele>37.47273</ele>
        <time>2019-01-13T09:03:23Z</time>
      </trkpt>
      <trkpt lat="48.60552" lon="2.55701">
        <ele>37.11602</ele>
        <time>2019-01-13T09:03:24Z</time>
      </trkpt>
      <trkpt lat="48.60561" lon="2.55693">
        <ele>37.12659</ele>
        <time>2019-01-13T09:03:26Z</time>
      </trkpt>
      <trkpt lat="48.6057" lon="2.55681">
        <ele>36.85708</ele>
        <time>2019-01-13T09:03:28Z</time>
      </trkpt>
      <trkpt lat="48.60578" lon="2.55672">
        <ele>36.63777</ele>
        <time>2019-01-13T09:03:30Z</time>
      </trkpt>
      <trkpt lat="48.60591" lon="2.55665">
        <ele>36.727608</ele>
        <time>2019-01-13T09:03:32Z</time>
      </trkpt>
      <trkpt lat="48.60603" lon="2.55658">
        <ele>36.55586</ele>
        <time>2019-01-13T09:03:34Z</time>
      </trkpt>
      <trkpt lat="48.60616" lon="2.55651">
        <ele>36.859722</ele>
        <time>2019-01-13T09:03:36Z</time>
      </trkpt>
      <trkpt lat="48.60628" lon="2.55644">
        <ele>36.80159</ele>
        <time>2019-01-13T09:03:38Z</time>
      </trkpt>
      <trkpt lat="48.6064" lon="2.55639">
        <ele>36.703827</ele>
        <time>2019-01-13T09:03:40Z</time>
      </trkpt>
      <trkpt lat="48.60653" lon="2.55633">
        <ele>36.814804</ele>
        <time>2019-01-13T09:03:42Z</time>
      </trkpt>
      <trkpt lat="48.60666" lon="2.55627">
        <ele>36.59021</ele>
        <time>2019-01-13T09:03:44Z</time>
      </trkpt>
      <trkpt lat="48.60678" lon="2.55621">
        <ele>36.479233</ele>
        <time>2019-01-13T09:03:46Z</time>
      </trkpt>
      <trkpt lat="48.6069" lon="2.55615">
        <ele>36.378826</ele>
        <time>2019-01-13T09:03:48Z</time>
      </trkpt>
      <trkpt lat="48.60703" lon="2.5561">
        <ele>36.923134</ele>
        <time>2019-01-13T09:03:50Z</time>
      </trkpt>
      <trkpt lat="48.60715" lon="2.55604">
        <ele>36.39468</ele>
        <time>2019-01-13T09:03:52Z</time>
      </trkpt>
      <trkpt lat="48.60727" lon="2.55599">
        <ele>35.948135</ele>
        <time>2019-01-13T09:03:54Z</time>
      </trkpt>
      <trkpt lat="48.60741" lon="2.55595">
        <ele>36.27578</ele>
        <time>2019-01-13T09:03:56Z</time>
      </trkpt>
      <trkpt lat="48.60754" lon="2.55588">
        <ele>35.831875</ele>
        <time>2019-01-13T09:03:58Z</time>
      </trkpt>
      <trkpt lat="48.60766" lon="2.55581">
        <ele>35.747322</ele>
        <time>2019-01-13T09:04:00Z</time>
      </trkpt>
      <trkpt lat="48.60779" lon="2.55573">
        <ele>35.506878</ele>
        <time>2019-01-13T09:04:02Z</time>
      </trkpt>
      <trkpt lat="48.60791" lon="2.55565">
        <ele>35.68655</ele>
        <time>2019-01-13T09:04:04Z</time>
      </trkpt>
      <trkpt lat="48.60804" lon="2.55557">
        <ele>35.646915</ele>
        <time>2019-01-13T09:04:06Z</time>
      </trkpt>
      <trkpt lat="48.60816" lon="2.5555">
        <ele>35.80017</ele>
        <time>2019-01-13T09:04:08Z</time>
      </trkpt>
      <trkpt lat="48.60828" lon="2.55543">
        <ele>36.019478</ele>
        <time>2019-01-13T09:04:10Z</time>
      </trkpt>
      <trkpt lat="48.6084" lon="2.55537">
        <ele>35.678623</ele>
        <time>2019-01-13T09:04:12Z</time>
      </trkpt>
      <trkpt lat="48.60852" lon="2.5553">
        <ele>35.575577</ele>
        <time>2019-01-13T09:04:14Z</time>
      </trkpt>
      <trkpt lat="48.60865" lon="2.55524">
        <ele>35.446106</ele>
        <time>2019-01-13T09:04:16Z</time>
      </trkpt>
      <trkpt lat="48.60877" lon="2.55517">
        <ele>35.401184</ele>
        <time>2019-01-13T09:04:18Z</time>
      </trkpt>
      <trkpt lat="48.6089" lon="2.5551">
        <ele>35.234722</ele>
        <time>2019-01-13T09:04:20Z</time>
      </trkpt>
      <trkpt lat="48.60902" lon="2.55504">
        <ele>34.53188</ele>
        <time>2019-01-13T09:04:22Z</time>
      </trkpt>
      <trkpt lat="48.60915" lon="2.55497">
        <ele>34.283504</ele>
        <time>2019-01-13T09:04:24Z</time>
      </trkpt>
      <trkpt lat="48.60927" lon="2.5549">
        <ele>34.627</ele>
        <time>2019-01-13T09:04:26Z</time>
      </trkpt>
      <trkpt lat="48.60939" lon="2.55484">
        <ele>34.94143</ele>
        <time>2019-01-13T09:04:28Z</time>
      </trkpt>
      <trkpt lat="48.60951" lon="2.55476">
        <ele>34.79082</ele>
        <time>2019-01-13T09:04:30Z</time>
      </trkpt>
      <trkpt lat="48.60961" lon="2.55465">
        <ele>34.484318</ele>
        <time>2019-01-13T09:04:32Z</time>
      </trkpt>
      <trkpt lat="48.60972" lon="2.55459">
        <ele>34.587364</ele>
        <time>2019-01-13T09:04:34Z</time>
      </trkpt>
      <trkpt lat="48.60984" lon="2.55459">
        <ele>34.212162</ele>
        <time>2019-01-13T09:04:36Z</time>
      </trkpt>
      <trkpt lat="48.60996" lon="2.55454">
        <ele>34.772324</ele>
        <time>2019-01-13T09:04:38Z</time>
      </trkpt>
      <trkpt lat="48.61008" lon="2.55448">
        <ele>34.708908</ele>
        <time>2019-01-13T09:04:40Z</time>
      </trkpt>
      <trkpt lat="48.6102" lon="2.55442">
        <ele>34.608505</ele>
        <time>2019-01-13T09:04:42Z</time>
      </trkpt>
      <trkpt lat="48.61032" lon="2.55436">
        <ele>34.484318</ele>
        <time>2019-01-13T09:04:44Z</time>
      </trkpt>
      <trkpt lat="48.61044" lon="2.5543">
        <ele>34.38655</ele>
        <time>2019-01-13T09:04:46Z</time>
      </trkpt>
      <trkpt lat="48.61056" lon="2.55424">
        <ele>34.24387</ele>
        <time>2019-01-13T09:04:48Z</time>
      </trkpt>
      <trkpt lat="48.61068" lon="2.55418">
        <ele>34.148746</ele>
        <time>2019-01-13T09:04:50Z</time>
      </trkpt>
      <trkpt lat="48.6108" lon="2.55411">
        <ele>34.098545</ele>
        <time>2019-01-13T09:04:52Z</time>
      </trkpt>
      <trkpt lat="48.61092" lon="2.55405">
        <ele>34.270294</ele>
        <time>2019-01-13T09:04:54Z</time>
      </trkpt>
      <trkpt lat="48.61104" lon="2.55399">
        <ele>34.36013</ele>
        <time>2019-01-13T09:04:56Z</time>
      </trkpt>
      <trkpt lat="48.61116" lon="2.55393">
        <ele>34.040413</ele>
        <time>2019-01-13T09:04:58Z</time>
      </trkpt>
      <trkpt lat="48.61128" lon="2.55387">
        <ele>33.961147</ele>
        <time>2019-01-13T09:05:00Z</time>
      </trkpt>
      <trkpt lat="48.6114" lon="2.55381">
        <ele>34.259724</ele>
        <time>2019-01-13T09:05:02Z</time>
      </trkpt>
      <trkpt lat="48.61153" lon="2.55375">
        <ele>34.027203</ele>
        <time>2019-01-13T09:05:04Z</time>
      </trkpt>
      <trkpt lat="48.61165" lon="2.55368">
        <ele>33.5833</ele>
        <time>2019-01-13T09:05:06Z</time>
      </trkpt>
      <trkpt lat="48.61177" lon="2.55362">
        <ele>33.263588</ele>
        <time>2019-01-13T09:05:08Z</time>
      </trkpt>
      <trkpt lat="48.61189" lon="2.55356">
        <ele>33.356064</ele>
        <time>2019-01-13T09:05:10Z</time>
      </trkpt>
      <trkpt lat="48.61201" lon="2.5535">
        <ele>33.55952</ele>
        <time>2019-01-13T09:05:12Z</time>
      </trkpt>
      <trkpt lat="48.61213" lon="2.55344">
        <ele>33.451187</ele>
        <time>2019-01-13T09:05:14Z</time>
      </trkpt>
      <trkpt lat="48.61224" lon="2.55339">
        <ele>33.223953</ele>
        <time>2019-01-13T09:05:16Z</time>
      </trkpt>
      <trkpt lat="48.61235" lon="2.55334">
        <ele>33.37456</ele>
        <time>2019-01-13T09:05:18Z</time>
      </trkpt>
      <trkpt lat="48.61247" lon="2.55327">
        <ele>33.41684</ele>
        <time>2019-01-13T09:05:20Z</time>
      </trkpt>
      <trkpt lat="48.61259" lon="2.5532">
        <ele>33.358707</ele>
        <time>2019-01-13T09:05:22Z</time>
      </trkpt>
      <trkpt lat="48.6127" lon="2.55314">
        <ele>33.247734</ele>
        <time>2019-01-13T09:05:24Z</time>
      </trkpt>
      <trkpt lat="48.61282" lon="2.55308">
        <ele>33.44062</ele>
        <time>2019-01-13T09:05:26Z</time>
      </trkpt>
      <trkpt lat="48.61293" lon="2.553">
        <ele>33.59651</ele>
        <time>2019-01-13T09:05:28Z</time>
      </trkpt>
      <trkpt lat="48.61305" lon="2.55292">
        <ele>33.805252</ele>
        <time>2019-01-13T09:05:30Z</time>
      </trkpt>
      <trkpt lat="48.61316" lon="2.55283">
        <ele>33.88716</ele>
        <time>2019-01-13T09:05:32Z</time>
      </trkpt>
      <trkpt lat="48.61327" lon="2.55274">
        <ele>33.67578</ele>
        <time>2019-01-13T09:05:34Z</time>
      </trkpt>
      <trkpt lat="48.61336" lon="2.55265">
        <ele>33.496105</ele>
        <time>2019-01-13T09:05:36Z</time>
      </trkpt>
      <trkpt lat="48.61343" lon="2.55254">
        <ele>33.44062</ele>
        <time>2019-01-13T09:05:38Z</time>
      </trkpt>
      <trkpt lat="48.61352" lon="2.55244">
        <ele>33.593872</ele>
        <time>2019-01-13T09:05:40Z</time>
      </trkpt>
      <trkpt lat="48.61362" lon="2.55236">
        <ele>33.469685</ele>
        <time>2019-01-13T09:05:42Z</time>
      </trkpt>
      <trkpt lat="48.61371" lon="2.55233">
        <ele>33.14204</ele>
        <time>2019-01-13T09:05:44Z</time>
      </trkpt>
      <trkpt lat="48.61382" lon="2.55233">
        <ele>33.2768</ele>
        <time>2019-01-13T09:05:47Z</time>
      </trkpt>
      <trkpt lat="48.61388" lon="2.55217">
        <ele>33.89509</ele>
        <time>2019-01-13T09:05:51Z</time>
      </trkpt>
      <trkpt lat="48.61392" lon="2.55205">
        <ele>34.26765</ele>
        <time>2019-01-13T09:05:54Z</time>
      </trkpt>
      <trkpt lat="48.61398" lon="2.55193">
        <ele>33.68371</ele>
        <time>2019-01-13T09:05:57Z</time>
      </trkpt>
      <trkpt lat="48.6139" lon="2.55183">
        <ele>34.407692</ele>
        <time>2019-01-13T09:06:02Z</time>
      </trkpt>
      <trkpt lat="48.6138" lon="2.55169">
        <ele>34.043056</ele>
        <time>2019-01-13T09:06:05Z</time>
      </trkpt>
      <trkpt lat="48.61372" lon="2.55157">
        <ele>34.013992</ele>
        <time>2019-01-13T09:06:07Z</time>
      </trkpt>
      <trkpt lat="48.61364" lon="2.55144">
        <ele>33.506676</ele>
        <time>2019-01-13T09:06:09Z</time>
      </trkpt>
      <trkpt lat="48.61357" lon="2.55131">
        <ele>33.29001</ele>
        <time>2019-01-13T09:06:11Z</time>
      </trkpt>
      <trkpt lat="48.61351" lon="2.55119">
        <ele>33.36399</ele>
        <time>2019-01-13T09:06:13Z</time>
      </trkpt>
      <trkpt lat="48.61346" lon="2.55104">
        <ele>33.945293</ele>
        <time>2019-01-13T09:06:15Z</time>
      </trkpt>
      <trkpt lat="48.61341" lon="2.55088">
        <ele>33.844887</ele>
        <time>2019-01-13T09:06:17Z</time>
      </trkpt>
      <trkpt lat="48.61337" lon="2.55073">
        <ele>33.70749</ele>
        <time>2019-01-13T09:06:19Z</time>
      </trkpt>
      <trkpt lat="48.61332" lon="2.55057">
        <ele>33.739197</ele>
        <time>2019-01-13T09:06:21Z</time>
      </trkpt>
      <trkpt lat="48.61328" lon="2.55041">
        <ele>33.770905</ele>
        <time>2019-01-13T09:06:23Z</time>
      </trkpt>
      <trkpt lat="48.61324" lon="2.55025">
        <ele>34.132893</ele>
        <time>2019-01-13T09:06:25Z</time>
      </trkpt>
      <trkpt lat="48.6132" lon="2.55008">
        <ele>33.636147</ele>
        <time>2019-01-13T09:06:27Z</time>
      </trkpt>
      <trkpt lat="48.61314" lon="2.54991">
        <ele>34.117043</ele>
        <time>2019-01-13T09:06:29Z</time>
      </trkpt>
      <trkpt lat="48.6131" lon="2.54975">
        <ele>33.786755</ele>
        <time>2019-01-13T09:06:31Z</time>
      </trkpt>
      <trkpt lat="48.61305" lon="2.54958">
        <ele>33.73391</ele>
        <time>2019-01-13T09:06:33Z</time>
      </trkpt>
      <trkpt lat="48.613" lon="2.54941">
        <ele>33.50932</ele>
        <time>2019-01-13T09:06:35Z</time>
      </trkpt>
      <trkpt lat="48.61295" lon="2.54925">
        <ele>33.66257</ele>
        <time>2019-01-13T09:06:37Z</time>
      </trkpt>
      <trkpt lat="48.6129" lon="2.54909">
        <ele>33.739197</ele>
        <time>2019-01-13T09:06:39Z</time>
      </trkpt>
      <trkpt lat="48.61287" lon="2.54892">
        <ele>33.86074</ele>
        <time>2019-01-13T09:06:41Z</time>
      </trkpt>
      <trkpt lat="48.61283" lon="2.54876">
        <ele>34.106472</ele>
        <time>2019-01-13T09:06:43Z</time>
      </trkpt>
      <trkpt lat="48.61278" lon="2.54859">
        <ele>34.20952</ele>
        <time>2019-01-13T09:06:45Z</time>
      </trkpt>
      <trkpt lat="48.61274" lon="2.54844">
        <ele>34.523952</ele>
        <time>2019-01-13T09:06:47Z</time>
      </trkpt>
      <trkpt lat="48.61269" lon="2.5483">
        <ele>33.950577</ele>
        <time>2019-01-13T09:06:49Z</time>
      </trkpt>
      <trkpt lat="48.61266" lon="2.54817">
        <ele>33.625576</ele>
        <time>2019-01-13T09:06:51Z</time>
      </trkpt>
      <trkpt lat="48.61262" lon="2.54804">
        <ele>33.30058</ele>
        <time>2019-01-13T09:06:53Z</time>
      </trkpt>
      <trkpt lat="48.61257" lon="2.5479">
        <ele>33.88452</ele>
        <time>2019-01-13T09:06:55Z</time>
      </trkpt>
      <trkpt lat="48.61253" lon="2.54776">
        <ele>34.0959</ele>
        <time>2019-01-13T09:06:57Z</time>
      </trkpt>
      <trkpt lat="48.61248" lon="2.5476">
        <ele>34.587364</ele>
        <time>2019-01-13T09:06:59Z</time>
      </trkpt>
      <trkpt lat="48.61243" lon="2.54743">
        <ele>34.68513</ele>
        <time>2019-01-13T09:07:01Z</time>
      </trkpt>
      <trkpt lat="48.61239" lon="2.54728">
        <ele>34.65078</ele>
        <time>2019-01-13T09:07:03Z</time>
      </trkpt>
      <trkpt lat="48.61235" lon="2.54714">
        <ele>34.307285</ele>
        <time>2019-01-13T09:07:05Z</time>
      </trkpt>
      <trkpt lat="48.61231" lon="2.54701">
        <ele>34.167244</ele>
        <time>2019-01-13T09:07:07Z</time>
      </trkpt>
      <trkpt lat="48.61228" lon="2.54687">
        <ele>33.718056</ele>
        <time>2019-01-13T09:07:10Z</time>
      </trkpt>
      <trkpt lat="48.61224" lon="2.54673">
        <ele>34.0457</ele>
        <time>2019-01-13T09:07:14Z</time>
      </trkpt>
      <trkpt lat="48.6122" lon="2.54658">
        <ele>33.79468</ele>
        <time>2019-01-13T09:07:18Z</time>
      </trkpt>
      <trkpt lat="48.61219" lon="2.54643">
        <ele>33.868668</ele>
        <time>2019-01-13T09:07:22Z</time>
      </trkpt>
      <trkpt lat="48.61231" lon="2.54636">
        <ele>34.169888</ele>
        <time>2019-01-13T09:07:27Z</time>
      </trkpt>
      <trkpt lat="48.61241" lon="2.5463">
        <ele>34.169888</ele>
        <time>2019-01-13T09:07:29Z</time>
      </trkpt>
      <trkpt lat="48.61251" lon="2.54624">
        <ele>34.00871</ele>
        <time>2019-01-13T09:07:31Z</time>
      </trkpt>
      <trkpt lat="48.61261" lon="2.54619">
        <ele>33.78147</ele>
        <time>2019-01-13T09:07:33Z</time>
      </trkpt>
      <trkpt lat="48.61269" lon="2.54614">
        <ele>33.818462</ele>
        <time>2019-01-13T09:07:35Z</time>
      </trkpt>
      <trkpt lat="48.61278" lon="2.54609">
        <ele>33.48818</ele>
        <time>2019-01-13T09:07:37Z</time>
      </trkpt>
      <trkpt lat="48.61289" lon="2.546">
        <ele>33.329643</ele>
        <time>2019-01-13T09:07:40Z</time>
      </trkpt>
      <trkpt lat="48.61297" lon="2.54582">
        <ele>33.612366</ele>
        <time>2019-01-13T09:07:43Z</time>
      </trkpt>
      <trkpt lat="48.61298" lon="2.54569">
        <ele>33.284725</ele>
        <time>2019-01-13T09:07:45Z</time>
      </trkpt>
      <trkpt lat="48.61304" lon="2.54555">
        <ele>33.094482</ele>
        <time>2019-01-13T09:07:48Z</time>
      </trkpt>
      <trkpt lat="48.61313" lon="2.54549">
        <ele>33.213383</ele>
        <time>2019-01-13T09:07:50Z</time>
      </trkpt>
      <trkpt lat="48.61321" lon="2.54544">
        <ele>33.260944</ele>
        <time>2019-01-13T09:07:52Z</time>
      </trkpt>
      <trkpt lat="48.6133" lon="2.54538">
        <ele>33.120903</ele>
        <time>2019-01-13T09:07:54Z</time>
      </trkpt>
      <trkpt lat="48.61341" lon="2.54529">
        <ele>33.038994</ele>
        <time>2019-01-13T09:07:57Z</time>
      </trkpt>
      <trkpt lat="48.61352" lon="2.54522">
        <ele>32.52639</ele>
        <time>2019-01-13T09:08:00Z</time>
      </trkpt>
      <trkpt lat="48.61361" lon="2.54522">
        <ele>31.79184</ele>
        <time>2019-01-13T09:08:03Z</time>
      </trkpt>
      <trkpt lat="48.61372" lon="2.54532">
        <ele>31.99001</ele>
        <time>2019-01-13T09:08:06Z</time>
      </trkpt>
      <trkpt lat="48.61382" lon="2.54536">
        <ele>31.984726</ele>
        <time>2019-01-13T09:08:09Z</time>
      </trkpt>
      <trkpt lat="48.61393" lon="2.54525">
        <ele>32.18818</ele>
        <time>2019-01-13T09:08:12Z</time>
      </trkpt>
      <trkpt lat="48.61404" lon="2.5452">
        <ele>32.124767</ele>
        <time>2019-01-13T09:08:14Z</time>
      </trkpt>
      <trkpt lat="48.61414" lon="2.54512">
        <ele>32.40749</ele>
        <time>2019-01-13T09:08:16Z</time>
      </trkpt>
      <trkpt lat="48.61424" lon="2.54505">
        <ele>32.19875</ele>
        <time>2019-01-13T09:08:18Z</time>
      </trkpt>
      <trkpt lat="48.61433" lon="2.54497">
        <ele>32.391636</ele>
        <time>2019-01-13T09:08:20Z</time>
      </trkpt>
      <trkpt lat="48.61443" lon="2.54492">
        <ele>32.262165</ele>
        <time>2019-01-13T09:08:22Z</time>
      </trkpt>
      <trkpt lat="48.61452" lon="2.54482">
        <ele>32.51318</ele>
        <time>2019-01-13T09:08:24Z</time>
      </trkpt>
      <trkpt lat="48.61458" lon="2.5447">
        <ele>32.103626</ele>
        <time>2019-01-13T09:08:26Z</time>
      </trkpt>
      <trkpt lat="48.61464" lon="2.54458">
        <ele>32.087776</ele>
        <time>2019-01-13T09:08:28Z</time>
      </trkpt>
      <trkpt lat="48.61473" lon="2.54446">
        <ele>32.357285</ele>
        <time>2019-01-13T09:08:31Z</time>
      </trkpt>
      <trkpt lat="48.61481" lon="2.54437">
        <ele>31.778627</ele>
        <time>2019-01-13T09:08:34Z</time>
      </trkpt>
      <trkpt lat="48.61491" lon="2.54432">
        <ele>32.151188</ele>
        <time>2019-01-13T09:08:37Z</time>
      </trkpt>
      <trkpt lat="48.61502" lon="2.54425">
        <ele>31.997936</ele>
        <time>2019-01-13T09:08:40Z</time>
      </trkpt>
      <trkpt lat="48.6151" lon="2.54433">
        <ele>32.29123</ele>
        <time>2019-01-13T09:08:52Z</time>
      </trkpt>
      <trkpt lat="48.6152" lon="2.54431">
        <ele>32.193466</ele>
        <time>2019-01-13T09:08:54Z</time>
      </trkpt>
      <trkpt lat="48.61532" lon="2.54427">
        <ele>32.357285</ele>
        <time>2019-01-13T09:08:56Z</time>
      </trkpt>
      <trkpt lat="48.61544" lon="2.54421">
        <ele>32.103626</ele>
        <time>2019-01-13T09:08:58Z</time>
      </trkpt>
      <trkpt lat="48.61554" lon="2.54414">
        <ele>32.077206</ele>
        <time>2019-01-13T09:09:00Z</time>
      </trkpt>
      <trkpt lat="48.61562" lon="2.54407">
        <ele>32.008507</ele>
        <time>2019-01-13T09:09:02Z</time>
      </trkpt>
      <trkpt lat="48.6157" lon="2.544">
        <ele>31.94245</ele>
        <time>2019-01-13T09:09:04Z</time>
      </trkpt>
      <trkpt lat="48.6158" lon="2.54391">
        <ele>31.823547</ele>
        <time>2019-01-13T09:09:07Z</time>
      </trkpt>
      <trkpt lat="48.61594" lon="2.54383">
        <ele>31.667652</ele>
        <time>2019-01-13T09:09:11Z</time>
      </trkpt>
      <trkpt lat="48.61604" lon="2.54381">
        <ele>31.834116</ele>
        <time>2019-01-13T09:09:14Z</time>
      </trkpt>
      <trkpt lat="48.61614" lon="2.54381">
        <ele>32.206676</ele>
        <time>2019-01-13T09:09:16Z</time>
      </trkpt>
      <trkpt lat="48.61625" lon="2.54377">
        <ele>32.566025</ele>
        <time>2019-01-13T09:09:18Z</time>
      </trkpt>
      <trkpt lat="48.61634" lon="2.54367">
        <ele>32.412773</ele>
        <time>2019-01-13T09:09:20Z</time>
      </trkpt>
      <trkpt lat="48.61641" lon="2.54353">
        <ele>32.761555</ele>
        <time>2019-01-13T09:09:22Z</time>
      </trkpt>
      <trkpt lat="48.61644" lon="2.54336">
        <ele>32.4894</ele>
        <time>2019-01-13T09:09:24Z</time>
      </trkpt>
      <trkpt lat="48.61648" lon="2.54323">
        <ele>32.204033</ele>
        <time>2019-01-13T09:09:26Z</time>
      </trkpt>
      <trkpt lat="48.61652" lon="2.54309">
        <ele>32.169685</ele>
        <time>2019-01-13T09:09:28Z</time>
      </trkpt>
      <trkpt lat="48.61662" lon="2.54296">
        <ele>32.48676</ele>
        <time>2019-01-13T09:09:31Z</time>
      </trkpt>
      <trkpt lat="48.61674" lon="2.5429">
        <ele>31.812977</ele>
        <time>2019-01-13T09:09:34Z</time>
      </trkpt>
      <trkpt lat="48.61685" lon="2.54282">
        <ele>32.071922</ele>
        <time>2019-01-13T09:09:37Z</time>
      </trkpt>
      <trkpt lat="48.61695" lon="2.54296">
        <ele>31.775986</ele>
        <time>2019-01-13T09:09:42Z</time>
      </trkpt>
      <trkpt lat="48.61702" lon="2.54307">
        <ele>32.447124</ele>
        <time>2019-01-13T09:09:45Z</time>
      </trkpt>
      <trkpt lat="48.61711" lon="2.5431">
        <ele>32.66379</ele>
        <time>2019-01-13T09:09:47Z</time>
      </trkpt>
      <trkpt lat="48.61729" lon="2.54312">
        <ele>32.85139</ele>
        <time>2019-01-13T09:09:50Z</time>
      </trkpt>
      <trkpt lat="48.61742" lon="2.54308">
        <ele>32.891026</ele>
        <time>2019-01-13T09:09:52Z</time>
      </trkpt>
      <trkpt lat="48.61754" lon="2.543">
        <ele>33.168465</ele>
        <time>2019-01-13T09:09:54Z</time>
      </trkpt>
      <trkpt lat="48.61766" lon="2.54292">
        <ele>33.435333</ele>
        <time>2019-01-13T09:09:56Z</time>
      </trkpt>
      <trkpt lat="48.61777" lon="2.54285">
        <ele>32.621513</ele>
        <time>2019-01-13T09:09:58Z</time>
      </trkpt>
      <trkpt lat="48.61786" lon="2.54281">
        <ele>31.974157</ele>
        <time>2019-01-13T09:10:03Z</time>
      </trkpt>
      <trkpt lat="48.61798" lon="2.54275">
        <ele>32.190823</ele>
        <time>2019-01-13T09:10:07Z</time>
      </trkpt>
      <trkpt lat="48.61806" lon="2.5427">
        <ele>32.819683</ele>
        <time>2019-01-13T09:10:09Z</time>
      </trkpt>
      <trkpt lat="48.61815" lon="2.54264">
        <ele>33.160538</ele>
        <time>2019-01-13T09:10:11Z</time>
      </trkpt>
      <trkpt lat="48.61824" lon="2.54259">
        <ele>33.356064</ele>
        <time>2019-01-13T09:10:13Z</time>
      </trkpt>
      <trkpt lat="48.61839" lon="2.5425">
        <ele>33.533096</ele>
        <time>2019-01-13T09:10:16Z</time>
      </trkpt>
      <trkpt lat="48.61855" lon="2.54241">
        <ele>33.329643</ele>
        <time>2019-01-13T09:10:19Z</time>
      </trkpt>
      <trkpt lat="48.61865" lon="2.54234">
        <ele>33.11826</ele>
        <time>2019-01-13T09:10:21Z</time>
      </trkpt>
      <trkpt lat="48.61874" lon="2.54227">
        <ele>32.983505</ele>
        <time>2019-01-13T09:10:23Z</time>
      </trkpt>
      <trkpt lat="48.61883" lon="2.5422">
        <ele>33.216026</ele>
        <time>2019-01-13T09:10:25Z</time>
      </trkpt>
      <trkpt lat="48.61898" lon="2.54209">
        <ele>32.991432</ele>
        <time>2019-01-13T09:10:28Z</time>
      </trkpt>
      <trkpt lat="48.61908" lon="2.54201">
        <ele>33.247734</ele>
        <time>2019-01-13T09:10:30Z</time>
      </trkpt>
      <trkpt lat="48.61918" lon="2.54193">
        <ele>33.305862</ele>
        <time>2019-01-13T09:10:32Z</time>
      </trkpt>
      <trkpt lat="48.61928" lon="2.54188">
        <ele>33.562164</ele>
        <time>2019-01-13T09:10:34Z</time>
      </trkpt>
      <trkpt lat="48.61947" lon="2.54176">
        <ele>33.723343</ele>
        <time>2019-01-13T09:10:37Z</time>
      </trkpt>
      <trkpt lat="48.6196" lon="2.54167">
        <ele>34.222733</ele>
        <time>2019-01-13T09:10:39Z</time>
      </trkpt>
      <trkpt lat="48.61973" lon="2.54158">
        <ele>33.07863</ele>
        <time>2019-01-13T09:10:41Z</time>
      </trkpt>
      <trkpt lat="48.61986" lon="2.5415">
        <ele>32.597733</ele>
        <time>2019-01-13T09:10:43Z</time>
      </trkpt>
      <trkpt lat="48.62" lon="2.54141">
        <ele>32.507896</ele>
        <time>2019-01-13T09:10:45Z</time>
      </trkpt>
      <trkpt lat="48.62013" lon="2.54132">
        <ele>32.48676</ele>
        <time>2019-01-13T09:10:47Z</time>
      </trkpt>
      <trkpt lat="48.62026" lon="2.54123">
        <ele>32.4207</ele>
        <time>2019-01-13T09:10:49Z</time>
      </trkpt>
      <trkpt lat="48.62037" lon="2.54114">
        <ele>32.695496</ele>
        <time>2019-01-13T09:10:51Z</time>
      </trkpt>
      <trkpt lat="48.6205" lon="2.54106">
        <ele>33.74448</ele>
        <time>2019-01-13T09:10:53Z</time>
      </trkpt>
      <trkpt lat="48.62067" lon="2.54094">
        <ele>34.516026</ele>
        <time>2019-01-13T09:10:56Z</time>
      </trkpt>
      <trkpt lat="48.62077" lon="2.54088">
        <ele>34.59529</ele>
        <time>2019-01-13T09:10:58Z</time>
      </trkpt>
      <trkpt lat="48.62086" lon="2.54082">
        <ele>34.39712</ele>
        <time>2019-01-13T09:11:00Z</time>
      </trkpt>
      <trkpt lat="48.62098" lon="2.54073">
        <ele>35.11846</ele>
        <time>2019-01-13T09:11:03Z</time>
      </trkpt>
      <trkpt lat="48.62108" lon="2.54068">
        <ele>34.936146</ele>
        <time>2019-01-13T09:11:05Z</time>
      </trkpt>
      <trkpt lat="48.62117" lon="2.54063">
        <ele>34.69834</ele>
        <time>2019-01-13T09:11:07Z</time>
      </trkpt>
      <trkpt lat="48.62128" lon="2.54056">
        <ele>34.449966</ele>
        <time>2019-01-13T09:11:09Z</time>
      </trkpt>
      <trkpt lat="48.62138" lon="2.54049">
        <ele>34.117043</ele>
        <time>2019-01-13T09:11:11Z</time>
      </trkpt>
      <trkpt lat="48.62149" lon="2.54043">
        <ele>34.061554</ele>
        <time>2019-01-13T09:11:13Z</time>
      </trkpt>
      <trkpt lat="48.6216" lon="2.54035">
        <ele>34.18838</ele>
        <time>2019-01-13T09:11:15Z</time>
      </trkpt>
      <trkpt lat="48.62171" lon="2.54029">
        <ele>34.029846</ele>
        <time>2019-01-13T09:11:17Z</time>
      </trkpt>
      <trkpt lat="48.6218" lon="2.54023">
        <ele>33.932083</ele>
        <time>2019-01-13T09:11:19Z</time>
      </trkpt>
      <trkpt lat="48.6219" lon="2.54018">
        <ele>34.22009</ele>
        <time>2019-01-13T09:11:21Z</time>
      </trkpt>
      <trkpt lat="48.62199" lon="2.54012">
        <ele>33.652</ele>
        <time>2019-01-13T09:11:23Z</time>
      </trkpt>
      <trkpt lat="48.62208" lon="2.54005">
        <ele>33.937366</ele>
        <time>2019-01-13T09:11:25Z</time>
      </trkpt>
      <trkpt lat="48.62218" lon="2.53999">
        <ele>34.00871</ele>
        <time>2019-01-13T09:11:27Z</time>
      </trkpt>
      <trkpt lat="48.62231" lon="2.53991">
        <ele>34.235943</ele>
        <time>2019-01-13T09:11:30Z</time>
      </trkpt>
      <trkpt lat="48.62241" lon="2.53985">
        <ele>34.098545</ele>
        <time>2019-01-13T09:11:33Z</time>
      </trkpt>
      <trkpt lat="48.62239" lon="2.53961">
        <ele>35.078827</ele>
        <time>2019-01-13T09:11:37Z</time>
      </trkpt>
      <trkpt lat="48.62234" lon="2.53946">
        <ele>35.22151</ele>
        <time>2019-01-13T09:11:39Z</time>
      </trkpt>
      <trkpt lat="48.6223" lon="2.5393">
        <ele>35.22151</ele>
        <time>2019-01-13T09:11:41Z</time>
      </trkpt>
      <trkpt lat="48.62225" lon="2.53914">
        <ele>35.377407</ele>
        <time>2019-01-13T09:11:43Z</time>
      </trkpt>
      <trkpt lat="48.6222" lon="2.53897">
        <ele>35.61521</ele>
        <time>2019-01-13T09:11:45Z</time>
      </trkpt>
      <trkpt lat="48.62216" lon="2.5388">
        <ele>35.393257</ele>
        <time>2019-01-13T09:11:47Z</time>
      </trkpt>
      <trkpt lat="48.62209" lon="2.53856">
        <ele>35.7209</ele>
        <time>2019-01-13T09:11:50Z</time>
      </trkpt>
      <trkpt lat="48.62204" lon="2.53839">
        <ele>35.82131</ele>
        <time>2019-01-13T09:11:52Z</time>
      </trkpt>
      <trkpt lat="48.62199" lon="2.53822">
        <ele>35.43818</ele>
        <time>2019-01-13T09:11:54Z</time>
      </trkpt>
      <trkpt lat="48.62192" lon="2.53797">
        <ele>36.098747</ele>
        <time>2019-01-13T09:11:57Z</time>
      </trkpt>
      <trkpt lat="48.62187" lon="2.5378">
        <ele>36.14102</ele>
        <time>2019-01-13T09:11:59Z</time>
      </trkpt>
      <trkpt lat="48.62182" lon="2.53762">
        <ele>36.333908</ele>
        <time>2019-01-13T09:12:01Z</time>
      </trkpt>
      <trkpt lat="48.62176" lon="2.53745">
        <ele>35.953423</ele>
        <time>2019-01-13T09:12:03Z</time>
      </trkpt>
      <trkpt lat="48.62171" lon="2.53728">
        <ele>35.96135</ele>
        <time>2019-01-13T09:12:05Z</time>
      </trkpt>
      <trkpt lat="48.62166" lon="2.53711">
        <ele>35.401184</ele>
        <time>2019-01-13T09:12:07Z</time>
      </trkpt>
      <trkpt lat="48.62159" lon="2.53685">
        <ele>35.689194</ele>
        <time>2019-01-13T09:12:10Z</time>
      </trkpt>
      <trkpt lat="48.62153" lon="2.53668">
        <ele>35.504234</ele>
        <time>2019-01-13T09:12:12Z</time>
      </trkpt>
      <trkpt lat="48.62149" lon="2.53652">
        <ele>35.72883</ele>
        <time>2019-01-13T09:12:14Z</time>
      </trkpt>
      <trkpt lat="48.62145" lon="2.53636">
        <ele>35.261147</ele>
        <time>2019-01-13T09:12:16Z</time>
      </trkpt>
      <trkpt lat="48.62137" lon="2.53611">
        <ele>35.089397</ele>
        <time>2019-01-13T09:12:19Z</time>
      </trkpt>
      <trkpt lat="48.62133" lon="2.53594">
        <ele>35.097324</ele>
        <time>2019-01-13T09:12:21Z</time>
      </trkpt>
      <trkpt lat="48.62129" lon="2.53578">
        <ele>34.77761</ele>
        <time>2019-01-13T09:12:23Z</time>
      </trkpt>
      <trkpt lat="48.62123" lon="2.53556">
        <ele>34.764397</ele>
        <time>2019-01-13T09:12:26Z</time>
      </trkpt>
      <trkpt lat="48.6212" lon="2.53543">
        <ele>34.037773</ele>
        <time>2019-01-13T09:12:28Z</time>
      </trkpt>
      <trkpt lat="48.62114" lon="2.53525">
        <ele>33.868668</ele>
        <time>2019-01-13T09:12:31Z</time>
      </trkpt>
      <trkpt lat="48.6211" lon="2.5351">
        <ele>33.66257</ele>
        <time>2019-01-13T09:12:34Z</time>
      </trkpt>
      <trkpt lat="48.62111" lon="2.53496">
        <ele>32.885742</ele>
        <time>2019-01-13T09:12:38Z</time>
      </trkpt>
      <trkpt lat="48.62121" lon="2.53491">
        <ele>32.949154</ele>
        <time>2019-01-13T09:12:42Z</time>
      </trkpt>
      <trkpt lat="48.62131" lon="2.53485">
        <ele>32.959724</ele>
        <time>2019-01-13T09:12:50Z</time>
      </trkpt>
      <trkpt lat="48.62135" lon="2.5347">
        <ele>33.155254</ele>
        <time>2019-01-13T09:12:53Z</time>
      </trkpt>
      <trkpt lat="48.62145" lon="2.53459">
        <ele>32.99936</ele>
        <time>2019-01-13T09:12:56Z</time>
      </trkpt>
      <trkpt lat="48.62154" lon="2.53463">
        <ele>32.597733</ele>
        <time>2019-01-13T09:12:58Z</time>
      </trkpt>
      <trkpt lat="48.6216" lon="2.53477">
        <ele>32.682285</ele>
        <time>2019-01-13T09:13:00Z</time>
      </trkpt>
      <trkpt lat="48.62164" lon="2.53495">
        <ele>32.82497</ele>
        <time>2019-01-13T09:13:02Z</time>
      </trkpt>
      <trkpt lat="48.62169" lon="2.53512">
        <ele>32.854034</ele>
        <time>2019-01-13T09:13:04Z</time>
      </trkpt>
      <trkpt lat="48.62172" lon="2.5353">
        <ele>32.68493</ele>
        <time>2019-01-13T09:13:06Z</time>
      </trkpt>
      <trkpt lat="48.62178" lon="2.53546">
        <ele>32.822327</ele>
        <time>2019-01-13T09:13:08Z</time>
      </trkpt>
      <trkpt lat="48.62188" lon="2.53559">
        <ele>33.292652</ele>
        <time>2019-01-13T09:13:11Z</time>
      </trkpt>
      <trkpt lat="48.62198" lon="2.53563">
        <ele>33.900375</ele>
        <time>2019-01-13T09:13:13Z</time>
      </trkpt>
      <trkpt lat="48.62209" lon="2.53557">
        <ele>34.27822</ele>
        <time>2019-01-13T09:13:15Z</time>
      </trkpt>
      <trkpt lat="48.62217" lon="2.53544">
        <ele>34.64021</ele>
        <time>2019-01-13T09:13:17Z</time>
      </trkpt>
      <trkpt lat="48.62226" lon="2.53531">
        <ele>34.830456</ele>
        <time>2019-01-13T09:13:19Z</time>
      </trkpt>
      <trkpt lat="48.62239" lon="2.53509">
        <ele>34.78025</ele>
        <time>2019-01-13T09:13:22Z</time>
      </trkpt>
      <trkpt lat="48.62247" lon="2.53494">
        <ele>34.84895</ele>
        <time>2019-01-13T09:13:24Z</time>
      </trkpt>
      <trkpt lat="48.62255" lon="2.53478">
        <ele>34.946716</ele>
        <time>2019-01-13T09:13:26Z</time>
      </trkpt>
      <trkpt lat="48.62264" lon="2.53464">
        <ele>35.829235</ele>
        <time>2019-01-13T09:13:28Z</time>
      </trkpt>
      <trkpt lat="48.62272" lon="2.53449">
        <ele>35.27964</ele>
        <time>2019-01-13T09:13:30Z</time>
      </trkpt>
      <trkpt lat="48.62279" lon="2.53433">
        <ele>34.93879</ele>
        <time>2019-01-13T09:13:32Z</time>
      </trkpt>
      <trkpt lat="48.62287" lon="2.53418">
        <ele>34.893867</ele>
        <time>2019-01-13T09:13:34Z</time>
      </trkpt>
      <trkpt lat="48.62294" lon="2.53402">
        <ele>34.603218</ele>
        <time>2019-01-13T09:13:36Z</time>
      </trkpt>
      <trkpt lat="48.62301" lon="2.53387">
        <ele>34.420902</ele>
        <time>2019-01-13T09:13:38Z</time>
      </trkpt>
      <trkpt lat="48.62308" lon="2.53371">
        <ele>34.06948</ele>
        <time>2019-01-13T09:13:40Z</time>
      </trkpt>
      <trkpt lat="48.62314" lon="2.53354">
        <ele>34.238586</ele>
        <time>2019-01-13T09:13:42Z</time>
      </trkpt>
      <trkpt lat="48.6232" lon="2.53337">
        <ele>34.66135</ele>
        <time>2019-01-13T09:13:44Z</time>
      </trkpt>
      <trkpt lat="48.62325" lon="2.53321">
        <ele>34.15139</ele>
        <time>2019-01-13T09:13:46Z</time>
      </trkpt>
      <trkpt lat="48.62331" lon="2.53305">
        <ele>33.95322</ele>
        <time>2019-01-13T09:13:48Z</time>
      </trkpt>
      <trkpt lat="48.62337" lon="2.53289">
        <ele>33.86074</ele>
        <time>2019-01-13T09:13:50Z</time>
      </trkpt>
      <trkpt lat="48.62342" lon="2.53272">
        <ele>33.99021</ele>
        <time>2019-01-13T09:13:52Z</time>
      </trkpt>
      <trkpt lat="48.62347" lon="2.53255">
        <ele>34.117043</ele>
        <time>2019-01-13T09:13:54Z</time>
      </trkpt>
      <trkpt lat="48.62352" lon="2.53238">
        <ele>34.143463</ele>
        <time>2019-01-13T09:13:56Z</time>
      </trkpt>
      <trkpt lat="48.62357" lon="2.5322">
        <ele>34.497528</ele>
        <time>2019-01-13T09:13:58Z</time>
      </trkpt>
      <trkpt lat="48.62361" lon="2.53204">
        <ele>34.46582</ele>
        <time>2019-01-13T09:14:00Z</time>
      </trkpt>
      <trkpt lat="48.62364" lon="2.53186">
        <ele>34.423546</ele>
        <time>2019-01-13T09:14:02Z</time>
      </trkpt>
      <trkpt lat="48.62367" lon="2.53168">
        <ele>34.566227</ele>
        <time>2019-01-13T09:14:04Z</time>
      </trkpt>
      <trkpt lat="48.62371" lon="2.53151">
        <ele>35.1396</ele>
        <time>2019-01-13T09:14:06Z</time>
      </trkpt>
      <trkpt lat="48.62374" lon="2.53134">
        <ele>35.4144</ele>
        <time>2019-01-13T09:14:08Z</time>
      </trkpt>
      <trkpt lat="48.62377" lon="2.53117">
        <ele>35.073544</ele>
        <time>2019-01-13T09:14:10Z</time>
      </trkpt>
      <trkpt lat="48.6238" lon="2.531">
        <ele>34.695698</ele>
        <time>2019-01-13T09:14:12Z</time>
      </trkpt>
      <trkpt lat="48.62383" lon="2.53082">
        <ele>34.801388</ele>
        <time>2019-01-13T09:14:14Z</time>
      </trkpt>
      <trkpt lat="48.62386" lon="2.53064">
        <ele>34.949356</ele>
        <time>2019-01-13T09:14:16Z</time>
      </trkpt>
      <trkpt lat="48.62388" lon="2.53046">
        <ele>34.84895</ele>
        <time>2019-01-13T09:14:18Z</time>
      </trkpt>
      <trkpt lat="48.6239" lon="2.53029">
        <ele>34.41562</ele>
        <time>2019-01-13T09:14:20Z</time>
      </trkpt>
      <trkpt lat="48.62391" lon="2.53012">
        <ele>34.04834</ele>
        <time>2019-01-13T09:14:22Z</time>
      </trkpt>
      <trkpt lat="48.62393" lon="2.52997">
        <ele>33.945293</ele>
        <time>2019-01-13T09:14:24Z</time>
      </trkpt>
      <trkpt lat="48.62394" lon="2.52982">
        <ele>33.969074</ele>
        <time>2019-01-13T09:14:26Z</time>
      </trkpt>
      <trkpt lat="48.62395" lon="2.52966">
        <ele>33.974358</ele>
        <time>2019-01-13T09:14:28Z</time>
      </trkpt>
      <trkpt lat="48.62396" lon="2.5295">
        <ele>33.51196</ele>
        <time>2019-01-13T09:14:30Z</time>
      </trkpt>
      <trkpt lat="48.62396" lon="2.52936">
        <ele>33.1896</ele>
        <time>2019-01-13T09:14:32Z</time>
      </trkpt>
      <trkpt lat="48.62396" lon="2.52917">
        <ele>33.749763</ele>
        <time>2019-01-13T09:14:35Z</time>
      </trkpt>
      <trkpt lat="48.62396" lon="2.529">
        <ele>33.501392</ele>
        <time>2019-01-13T09:14:38Z</time>
      </trkpt>
      <trkpt lat="48.62395" lon="2.52883">
        <ele>33.26887</ele>
        <time>2019-01-13T09:14:41Z</time>
      </trkpt>
      <trkpt lat="48.62396" lon="2.52868">
        <ele>33.002003</ele>
        <time>2019-01-13T09:14:44Z</time>
      </trkpt>
      <trkpt lat="48.62396" lon="2.5285">
        <ele>33.57009</ele>
        <time>2019-01-13T09:14:48Z</time>
      </trkpt>
      <trkpt lat="48.62396" lon="2.52837">
        <ele>33.15261</ele>
        <time>2019-01-13T09:14:51Z</time>
      </trkpt>
      <trkpt lat="48.62397" lon="2.52823">
        <ele>32.309727</ele>
        <time>2019-01-13T09:14:55Z</time>
      </trkpt>
      <trkpt lat="48.62406" lon="2.52819">
        <ele>32.43127</ele>
        <time>2019-01-13T09:15:00Z</time>
      </trkpt>
      <trkpt lat="48.62411" lon="2.52822">
        <ele>32.3018</ele>
        <time>2019-01-13T09:15:08Z</time>
      </trkpt>
      <trkpt lat="48.62411" lon="2.52822">
        <ele>32.3018</ele>
        <time>2019-01-13T09:15:08Z</time>
      </trkpt>
      <trkpt lat="48.62423" lon="2.52822">
        <ele>32.677002</ele>
        <time>2019-01-13T09:18:11Z</time>
      </trkpt>
      <trkpt lat="48.62434" lon="2.52822">
        <ele>32.68493</ele>
        <time>2019-01-13T09:18:14Z</time>
      </trkpt>
      <trkpt lat="48.62447" lon="2.52818">
        <ele>32.658504</ele>
        <time>2019-01-13T09:18:17Z</time>
      </trkpt>
      <trkpt lat="48.62457" lon="2.52817">
        <ele>32.67436</ele>
        <time>2019-01-13T09:18:19Z</time>
      </trkpt>
      <trkpt lat="48.62468" lon="2.52816">
        <ele>32.637367</ele>
        <time>2019-01-13T09:18:21Z</time>
      </trkpt>
      <trkpt lat="48.62479" lon="2.52815">
        <ele>32.774765</ele>
        <time>2019-01-13T09:18:23Z</time>
      </trkpt>
      <trkpt lat="48.62491" lon="2.52813">
        <ele>32.610943</ele>
        <time>2019-01-13T09:18:25Z</time>
      </trkpt>
      <trkpt lat="48.62503" lon="2.52812">
        <ele>32.719276</ele>
        <time>2019-01-13T09:18:27Z</time>
      </trkpt>
      <trkpt lat="48.62515" lon="2.52811">
        <ele>32.82761</ele>
        <time>2019-01-13T09:18:29Z</time>
      </trkpt>
      <trkpt lat="48.62526" lon="2.5281">
        <ele>32.909523</ele>
        <time>2019-01-13T09:18:31Z</time>
      </trkpt>
      <trkpt lat="48.62542" lon="2.52807">
        <ele>32.782692</ele>
        <time>2019-01-13T09:18:34Z</time>
      </trkpt>
      <trkpt lat="48.62558" lon="2.52806">
        <ele>32.80119</ele>
        <time>2019-01-13T09:18:37Z</time>
      </trkpt>
      <trkpt lat="48.62569" lon="2.52805">
        <ele>32.766838</ele>
        <time>2019-01-13T09:18:39Z</time>
      </trkpt>
      <trkpt lat="48.62582" lon="2.52803">
        <ele>32.79062</ele>
        <time>2019-01-13T09:18:41Z</time>
      </trkpt>
      <trkpt lat="48.62594" lon="2.52802">
        <ele>32.410133</ele>
        <time>2019-01-13T09:18:43Z</time>
      </trkpt>
      <trkpt lat="48.62606" lon="2.528">
        <ele>32.48676</ele>
        <time>2019-01-13T09:18:45Z</time>
      </trkpt>
      <trkpt lat="48.62617" lon="2.528">
        <ele>32.029644</ele>
        <time>2019-01-13T09:18:48Z</time>
      </trkpt>
      <trkpt lat="48.62617" lon="2.52802">
        <ele>32.782692</ele>
        <time>2019-01-13T09:18:52Z</time>
      </trkpt>
      <trkpt lat="48.62617" lon="2.52802">
        <ele>32.782692</ele>
        <time>2019-01-13T09:18:52Z</time>
      </trkpt>
      <trkpt lat="48.62632" lon="2.52802">
        <ele>32.727203</ele>
        <time>2019-01-13T09:19:59Z</time>
      </trkpt>
      <trkpt lat="48.62647" lon="2.52801">
        <ele>33.028423</ele>
        <time>2019-01-13T09:20:02Z</time>
      </trkpt>
      <trkpt lat="48.62666" lon="2.52798">
        <ele>33.18696</ele>
        <time>2019-01-13T09:20:05Z</time>
      </trkpt>
      <trkpt lat="48.62678" lon="2.52796">
        <ele>33.527813</ele>
        <time>2019-01-13T09:20:07Z</time>
      </trkpt>
      <trkpt lat="48.62691" lon="2.52795">
        <ele>33.432693</ele>
        <time>2019-01-13T09:20:09Z</time>
      </trkpt>
      <trkpt lat="48.62705" lon="2.52794">
        <ele>33.636147</ele>
        <time>2019-01-13T09:20:11Z</time>
      </trkpt>
      <trkpt lat="48.62719" lon="2.52793">
        <ele>33.52253</ele>
        <time>2019-01-13T09:20:13Z</time>
      </trkpt>
      <trkpt lat="48.62741" lon="2.5279">
        <ele>34.043056</ele>
        <time>2019-01-13T09:20:16Z</time>
      </trkpt>
      <trkpt lat="48.62762" lon="2.52788">
        <ele>33.95322</ele>
        <time>2019-01-13T09:20:19Z</time>
      </trkpt>
      <trkpt lat="48.62775" lon="2.52788">
        <ele>33.432693</ele>
        <time>2019-01-13T09:20:21Z</time>
      </trkpt>
      <trkpt lat="48.6279" lon="2.52787">
        <ele>33.472324</ele>
        <time>2019-01-13T09:20:23Z</time>
      </trkpt>
      <trkpt lat="48.62804" lon="2.52784">
        <ele>33.311146</ele>
        <time>2019-01-13T09:20:25Z</time>
      </trkpt>
      <trkpt lat="48.62817" lon="2.52783">
        <ele>33.60444</ele>
        <time>2019-01-13T09:20:27Z</time>
      </trkpt>
      <trkpt lat="48.62831" lon="2.52782">
        <ele>33.530457</ele>
        <time>2019-01-13T09:20:29Z</time>
      </trkpt>
      <trkpt lat="48.62844" lon="2.52781">
        <ele>34.317852</ele>
        <time>2019-01-13T09:20:31Z</time>
      </trkpt>
      <trkpt lat="48.62858" lon="2.5278">
        <ele>33.7894</ele>
        <time>2019-01-13T09:20:33Z</time>
      </trkpt>
      <trkpt lat="48.62871" lon="2.52779">
        <ele>33.506676</ele>
        <time>2019-01-13T09:20:35Z</time>
      </trkpt>
      <trkpt lat="48.62883" lon="2.52779">
        <ele>33.26887</ele>
        <time>2019-01-13T09:20:37Z</time>
      </trkpt>
      <trkpt lat="48.62894" lon="2.52778">
        <ele>33.358707</ele>
        <time>2019-01-13T09:20:39Z</time>
      </trkpt>
      <trkpt lat="48.62904" lon="2.52778">
        <ele>33.411552</ele>
        <time>2019-01-13T09:20:41Z</time>
      </trkpt>
      <trkpt lat="48.62915" lon="2.52777">
        <ele>33.155254</ele>
        <time>2019-01-13T09:20:44Z</time>
      </trkpt>
      <trkpt lat="48.62927" lon="2.52775">
        <ele>33.41684</ele>
        <time>2019-01-13T09:20:48Z</time>
      </trkpt>
      <trkpt lat="48.62936" lon="2.52773">
        <ele>33.45383</ele>
        <time>2019-01-13T09:20:50Z</time>
      </trkpt>
      <trkpt lat="48.62948" lon="2.52772">
        <ele>33.76826</ele>
        <time>2019-01-13T09:20:52Z</time>
      </trkpt>
      <trkpt lat="48.62964" lon="2.52769">
        <ele>33.654644</ele>
        <time>2019-01-13T09:20:55Z</time>
      </trkpt>
      <trkpt lat="48.62975" lon="2.52767">
        <ele>33.564804</ele>
        <time>2019-01-13T09:20:57Z</time>
      </trkpt>
      <trkpt lat="48.62985" lon="2.5277">
        <ele>33.66521</ele>
        <time>2019-01-13T09:20:59Z</time>
      </trkpt>
      <trkpt lat="48.62996" lon="2.52777">
        <ele>34.1144</ele>
        <time>2019-01-13T09:21:01Z</time>
      </trkpt>
      <trkpt lat="48.63008" lon="2.52782">
        <ele>34.690414</ele>
        <time>2019-01-13T09:21:03Z</time>
      </trkpt>
      <trkpt lat="48.6302" lon="2.52782">
        <ele>34.177814</ele>
        <time>2019-01-13T09:21:05Z</time>
      </trkpt>
      <trkpt lat="48.63032" lon="2.52781">
        <ele>34.587364</ele>
        <time>2019-01-13T09:21:07Z</time>
      </trkpt>
      <trkpt lat="48.63044" lon="2.5278">
        <ele>34.50281</ele>
        <time>2019-01-13T09:21:09Z</time>
      </trkpt>
      <trkpt lat="48.63057" lon="2.52779">
        <ele>34.830456</ele>
        <time>2019-01-13T09:21:11Z</time>
      </trkpt>
      <trkpt lat="48.63075" lon="2.52778">
        <ele>35.70769</ele>
        <time>2019-01-13T09:21:14Z</time>
      </trkpt>
      <trkpt lat="48.63087" lon="2.52778">
        <ele>35.469887</ele>
        <time>2019-01-13T09:21:16Z</time>
      </trkpt>
      <trkpt lat="48.63098" lon="2.52777">
        <ele>36.098747</ele>
        <time>2019-01-13T09:21:18Z</time>
      </trkpt>
      <trkpt lat="48.63109" lon="2.52776">
        <ele>36.54793</ele>
        <time>2019-01-13T09:21:20Z</time>
      </trkpt>
      <trkpt lat="48.6312" lon="2.52775">
        <ele>36.828014</ele>
        <time>2019-01-13T09:21:22Z</time>
      </trkpt>
      <trkpt lat="48.6313" lon="2.52775">
        <ele>37.07903</ele>
        <time>2019-01-13T09:21:24Z</time>
      </trkpt>
      <trkpt lat="48.63144" lon="2.52772">
        <ele>37.70525</ele>
        <time>2019-01-13T09:21:27Z</time>
      </trkpt>
      <trkpt lat="48.63148" lon="2.52772">
        <ele>37.91399</ele>
        <time>2019-01-13T09:21:28Z</time>
      </trkpt>
      <trkpt lat="48.63161" lon="2.52772">
        <ele>38.748947</ele>
        <time>2019-01-13T09:21:31Z</time>
      </trkpt>
      <trkpt lat="48.63165" lon="2.52772">
        <ele>39.026386</ele>
        <time>2019-01-13T09:21:32Z</time>
      </trkpt>
      <trkpt lat="48.63169" lon="2.52771">
        <ele>38.815002</ele>
        <time>2019-01-13T09:21:33Z</time>
      </trkpt>
      <trkpt lat="48.63181" lon="2.52771">
        <ele>39.713375</ele>
        <time>2019-01-13T09:21:36Z</time>
      </trkpt>
      <trkpt lat="48.63185" lon="2.52771">
        <ele>39.771507</ele>
        <time>2019-01-13T09:21:37Z</time>
      </trkpt>
      <trkpt lat="48.63189" lon="2.52771">
        <ele>39.988174</ele>
        <time>2019-01-13T09:21:38Z</time>
      </trkpt>
      <trkpt lat="48.63193" lon="2.5277">
        <ele>39.885124</ele>
        <time>2019-01-13T09:21:39Z</time>
      </trkpt>
      <trkpt lat="48.63206" lon="2.5277">
        <ele>40.41622</ele>
        <time>2019-01-13T09:21:42Z</time>
      </trkpt>
      <trkpt lat="48.63206" lon="2.5277">
        <ele>40.41622</ele>
        <time>2019-01-13T09:21:42Z</time>
      </trkpt>
      <trkpt lat="48.63215" lon="2.5277">
        <ele>40.43472</ele>
        <time>2019-01-13T09:21:44Z</time>
      </trkpt>
      <trkpt lat="48.63224" lon="2.5277">
        <ele>40.71216</ele>
        <time>2019-01-13T09:21:46Z</time>
      </trkpt>
      <trkpt lat="48.63229" lon="2.5277">
        <ele>40.63553</ele>
        <time>2019-01-13T09:21:47Z</time>
      </trkpt>
      <trkpt lat="48.63239" lon="2.52769">
        <ele>40.582684</ele>
        <time>2019-01-13T09:21:49Z</time>
      </trkpt>
      <trkpt lat="48.63244" lon="2.52769">
        <ele>39.512566</ele>
        <time>2019-01-13T09:21:50Z</time>
      </trkpt>
      <trkpt lat="48.63255" lon="2.52768">
        <ele>38.8837</ele>
        <time>2019-01-13T09:21:52Z</time>
      </trkpt>
      <trkpt lat="48.63266" lon="2.52766">
        <ele>38.593052</ele>
        <time>2019-01-13T09:21:54Z</time>
      </trkpt>
      <trkpt lat="48.63278" lon="2.52765">
        <ele>37.874355</ele>
        <time>2019-01-13T09:21:56Z</time>
      </trkpt>
      <trkpt lat="48.63291" lon="2.52764">
        <ele>37.100166</ele>
        <time>2019-01-13T09:21:58Z</time>
      </trkpt>
      <trkpt lat="48.63305" lon="2.52762">
        <ele>36.447525</ele>
        <time>2019-01-13T09:22:00Z</time>
      </trkpt>
      <trkpt lat="48.63319" lon="2.52761">
        <ele>36.43167</ele>
        <time>2019-01-13T09:22:02Z</time>
      </trkpt>
      <trkpt lat="48.63332" lon="2.5276">
        <ele>35.0207</ele>
        <time>2019-01-13T09:22:04Z</time>
      </trkpt>
      <trkpt lat="48.63346" lon="2.52759">
        <ele>34.566227</ele>
        <time>2019-01-13T09:22:06Z</time>
      </trkpt>
      <trkpt lat="48.63358" lon="2.52759">
        <ele>33.649357</ele>
        <time>2019-01-13T09:22:08Z</time>
      </trkpt>
      <trkpt lat="48.63368" lon="2.52759">
        <ele>33.200172</ele>
        <time>2019-01-13T09:22:10Z</time>
      </trkpt>
      <trkpt lat="48.63379" lon="2.52757">
        <ele>32.713993</ele>
        <time>2019-01-13T09:22:13Z</time>
      </trkpt>
      <trkpt lat="48.63388" lon="2.52754">
        <ele>33.020496</ele>
        <time>2019-01-13T09:22:16Z</time>
      </trkpt>
      <trkpt lat="48.63398" lon="2.52743">
        <ele>33.408913</ele>
        <time>2019-01-13T09:22:19Z</time>
      </trkpt>
      <trkpt lat="48.63409" lon="2.52738">
        <ele>33.147327</ele>
        <time>2019-01-13T09:22:22Z</time>
      </trkpt>
      <trkpt lat="48.63421" lon="2.52738">
        <ele>32.83818</ele>
        <time>2019-01-13T09:22:24Z</time>
      </trkpt>
      <trkpt lat="48.63432" lon="2.52737">
        <ele>33.062775</ele>
        <time>2019-01-13T09:22:26Z</time>
      </trkpt>
      <trkpt lat="48.63443" lon="2.52736">
        <ele>33.01257</ele>
        <time>2019-01-13T09:22:28Z</time>
      </trkpt>
      <trkpt lat="48.63455" lon="2.52734">
        <ele>32.86989</ele>
        <time>2019-01-13T09:22:30Z</time>
      </trkpt>
      <trkpt lat="48.63474" lon="2.52732">
        <ele>32.846107</ele>
        <time>2019-01-13T09:22:33Z</time>
      </trkpt>
      <trkpt lat="48.63487" lon="2.52731">
        <ele>33.29529</ele>
        <time>2019-01-13T09:22:35Z</time>
      </trkpt>
      <trkpt lat="48.63499" lon="2.52729">
        <ele>33.501392</ele>
        <time>2019-01-13T09:22:37Z</time>
      </trkpt>
      <trkpt lat="48.63511" lon="2.52728">
        <ele>32.375782</ele>
        <time>2019-01-13T09:22:39Z</time>
      </trkpt>
      <trkpt lat="48.63522" lon="2.52726">
        <ele>32.4894</ele>
        <time>2019-01-13T09:22:41Z</time>
      </trkpt>
      <trkpt lat="48.63534" lon="2.52725">
        <ele>32.589806</ele>
        <time>2019-01-13T09:22:43Z</time>
      </trkpt>
      <trkpt lat="48.63546" lon="2.52724">
        <ele>32.925377</ele>
        <time>2019-01-13T09:22:45Z</time>
      </trkpt>
      <trkpt lat="48.63558" lon="2.52723">
        <ele>32.970295</ele>
        <time>2019-01-13T09:22:47Z</time>
      </trkpt>
      <trkpt lat="48.6357" lon="2.52722">
        <ele>33.715416</ele>
        <time>2019-01-13T09:22:49Z</time>
      </trkpt>
      <trkpt lat="48.63583" lon="2.52721">
        <ele>32.753628</ele>
        <time>2019-01-13T09:22:51Z</time>
      </trkpt>
      <trkpt lat="48.63596" lon="2.5272">
        <ele>32.563385</ele>
        <time>2019-01-13T09:22:53Z</time>
      </trkpt>
      <trkpt lat="48.63609" lon="2.52718">
        <ele>32.901596</ele>
        <time>2019-01-13T09:22:55Z</time>
      </trkpt>
      <trkpt lat="48.63622" lon="2.52717">
        <ele>32.613586</ele>
        <time>2019-01-13T09:22:57Z</time>
      </trkpt>
      <trkpt lat="48.63635" lon="2.52715">
        <ele>32.344074</ele>
        <time>2019-01-13T09:22:59Z</time>
      </trkpt>
      <trkpt lat="48.63648" lon="2.52714">
        <ele>32.25424</ele>
        <time>2019-01-13T09:23:01Z</time>
      </trkpt>
      <trkpt lat="48.63661" lon="2.52713">
        <ele>32.661148</ele>
        <time>2019-01-13T09:23:03Z</time>
      </trkpt>
      <trkpt lat="48.63674" lon="2.52712">
        <ele>31.712572</ele>
        <time>2019-01-13T09:23:05Z</time>
      </trkpt>
      <trkpt lat="48.63686" lon="2.52711">
        <ele>31.482693</ele>
        <time>2019-01-13T09:23:07Z</time>
      </trkpt>
      <trkpt lat="48.63696" lon="2.52711">
        <ele>30.972734</ele>
        <time>2019-01-13T09:23:09Z</time>
      </trkpt>
      <trkpt lat="48.63705" lon="2.5271">
        <ele>30.795702</ele>
        <time>2019-01-13T09:23:15Z</time>
      </trkpt>
      <trkpt lat="48.63706" lon="2.5271">
        <ele>30.692654</ele>
        <time>2019-01-13T09:23:16Z</time>
      </trkpt>
      <trkpt lat="48.63706" lon="2.5271">
        <ele>30.692654</ele>
        <time>2019-01-13T09:23:16Z</time>
      </trkpt>
      <trkpt lat="48.63732" lon="2.52712">
        <ele>31.41928</ele>
        <time>2019-01-13T09:25:15Z</time>
      </trkpt>
      <trkpt lat="48.63741" lon="2.52713">
        <ele>30.684727</ele>
        <time>2019-01-13T09:25:18Z</time>
      </trkpt>
      <trkpt lat="48.63751" lon="2.52712">
        <ele>30.835337</ele>
        <time>2019-01-13T09:25:21Z</time>
      </trkpt>
      <trkpt lat="48.63762" lon="2.52711">
        <ele>30.819483</ele>
        <time>2019-01-13T09:25:24Z</time>
      </trkpt>
      <trkpt lat="48.63773" lon="2.52709">
        <ele>31.099564</ele>
        <time>2019-01-13T09:25:27Z</time>
      </trkpt>
      <trkpt lat="48.63786" lon="2.52706">
        <ele>30.798344</ele>
        <time>2019-01-13T09:25:30Z</time>
      </trkpt>
      <trkpt lat="48.63797" lon="2.52705">
        <ele>31.0705</ele>
        <time>2019-01-13T09:25:33Z</time>
      </trkpt>
      <trkpt lat="48.63809" lon="2.52705">
        <ele>30.690012</ele>
        <time>2019-01-13T09:25:36Z</time>
      </trkpt>
      <trkpt lat="48.63821" lon="2.52705">
        <ele>31.088995</ele>
        <time>2019-01-13T09:25:39Z</time>
      </trkpt>
      <trkpt lat="48.63833" lon="2.52703">
        <ele>30.740215</ele>
        <time>2019-01-13T09:25:42Z</time>
      </trkpt>
      <trkpt lat="48.63846" lon="2.52702">
        <ele>30.58432</ele>
        <time>2019-01-13T09:25:45Z</time>
      </trkpt>
      <trkpt lat="48.63855" lon="2.52701">
        <ele>30.494484</ele>
        <time>2019-01-13T09:25:47Z</time>
      </trkpt>
      <trkpt lat="48.63864" lon="2.52701">
        <ele>30.335947</ele>
        <time>2019-01-13T09:25:49Z</time>
      </trkpt>
      <trkpt lat="48.63877" lon="2.52699">
        <ele>29.981882</ele>
        <time>2019-01-13T09:25:52Z</time>
      </trkpt>
      <trkpt lat="48.63886" lon="2.52698">
        <ele>29.80485</ele>
        <time>2019-01-13T09:25:54Z</time>
      </trkpt>
      <trkpt lat="48.63899" lon="2.52697">
        <ele>30.288385</ele>
        <time>2019-01-13T09:25:57Z</time>
      </trkpt>
      <trkpt lat="48.63909" lon="2.52697">
        <ele>29.82863</ele>
        <time>2019-01-13T09:25:59Z</time>
      </trkpt>
      <trkpt lat="48.63918" lon="2.52696">
        <ele>29.744078</ele>
        <time>2019-01-13T09:26:01Z</time>
      </trkpt>
      <trkpt lat="48.63928" lon="2.52695">
        <ele>29.1892</ele>
        <time>2019-01-13T09:26:03Z</time>
      </trkpt>
      <trkpt lat="48.63942" lon="2.52695">
        <ele>29.786354</ele>
        <time>2019-01-13T09:26:05Z</time>
      </trkpt>
      <trkpt lat="48.63951" lon="2.52693">
        <ele>29.041233</ele>
        <time>2019-01-13T09:26:07Z</time>
      </trkpt>
      <trkpt lat="48.63961" lon="2.52692">
        <ele>28.954037</ele>
        <time>2019-01-13T09:26:10Z</time>
      </trkpt>
      <trkpt lat="48.6397" lon="2.52691">
        <ele>28.967249</ele>
        <time>2019-01-13T09:26:12Z</time>
      </trkpt>
      <trkpt lat="48.6398" lon="2.5269">
        <ele>28.673956</ele>
        <time>2019-01-13T09:26:14Z</time>
      </trkpt>
      <trkpt lat="48.6399" lon="2.5269">
        <ele>28.718876</ele>
        <time>2019-01-13T09:26:16Z</time>
      </trkpt>
      <trkpt lat="48.63999" lon="2.5269">
        <ele>28.076803</ele>
        <time>2019-01-13T09:26:18Z</time>
      </trkpt>
      <trkpt lat="48.6401" lon="2.52689">
        <ele>28.058306</ele>
        <time>2019-01-13T09:26:20Z</time>
      </trkpt>
      <trkpt lat="48.64019" lon="2.52688">
        <ele>28.21156</ele>
        <time>2019-01-13T09:26:22Z</time>
      </trkpt>
      <trkpt lat="48.64029" lon="2.52687">
        <ele>27.960543</ele>
        <time>2019-01-13T09:26:24Z</time>
      </trkpt>
      <trkpt lat="48.64039" lon="2.52686">
        <ele>27.511356</ele>
        <time>2019-01-13T09:26:26Z</time>
      </trkpt>
      <trkpt lat="48.64049" lon="2.52685">
        <ele>27.175787</ele>
        <time>2019-01-13T09:26:28Z</time>
      </trkpt>
      <trkpt lat="48.64059" lon="2.52684">
        <ele>26.953836</ele>
        <time>2019-01-13T09:26:30Z</time>
      </trkpt>
      <trkpt lat="48.64071" lon="2.52683">
        <ele>26.816439</ele>
        <time>2019-01-13T09:26:33Z</time>
      </trkpt>
      <trkpt lat="48.64084" lon="2.52682">
        <ele>26.414812</ele>
        <time>2019-01-13T09:26:36Z</time>
      </trkpt>
      <trkpt lat="48.64097" lon="2.52681">
        <ele>26.57599</ele>
        <time>2019-01-13T09:26:39Z</time>
      </trkpt>
      <trkpt lat="48.64105" lon="2.52686">
        <ele>26.33026</ele>
        <time>2019-01-13T09:26:41Z</time>
      </trkpt>
      <trkpt lat="48.64114" lon="2.5269">
        <ele>26.430666</ele>
        <time>2019-01-13T09:26:43Z</time>
      </trkpt>
      <trkpt lat="48.64123" lon="2.52691">
        <ele>26.457088</ele>
        <time>2019-01-13T09:26:45Z</time>
      </trkpt>
      <trkpt lat="48.64133" lon="2.5269">
        <ele>26.7266</ele>
        <time>2019-01-13T09:26:47Z</time>
      </trkpt>
      <trkpt lat="48.64142" lon="2.52689">
        <ele>26.898348</ele>
        <time>2019-01-13T09:26:49Z</time>
      </trkpt>
      <trkpt lat="48.64151" lon="2.52688">
        <ele>26.73981</ele>
        <time>2019-01-13T09:26:51Z</time>
      </trkpt>
      <trkpt lat="48.64164" lon="2.52686">
        <ele>26.544283</ele>
        <time>2019-01-13T09:26:54Z</time>
      </trkpt>
      <trkpt lat="48.64174" lon="2.52685">
        <ele>26.557495</ele>
        <time>2019-01-13T09:26:56Z</time>
      </trkpt>
      <trkpt lat="48.64184" lon="2.52684">
        <ele>26.380463</ele>
        <time>2019-01-13T09:26:59Z</time>
      </trkpt>
      <trkpt lat="48.64197" lon="2.52683">
        <ele>26.599771</ele>
        <time>2019-01-13T09:27:02Z</time>
      </trkpt>
      <trkpt lat="48.64209" lon="2.52684">
        <ele>26.55221</ele>
        <time>2019-01-13T09:27:05Z</time>
      </trkpt>
      <trkpt lat="48.64221" lon="2.52682">
        <ele>26.636763</ele>
        <time>2019-01-13T09:27:08Z</time>
      </trkpt>
      <trkpt lat="48.64233" lon="2.52682">
        <ele>26.679039</ele>
        <time>2019-01-13T09:27:11Z</time>
      </trkpt>
      <trkpt lat="48.64242" lon="2.52684">
        <ele>26.956478</ele>
        <time>2019-01-13T09:27:13Z</time>
      </trkpt>
      <trkpt lat="48.64255" lon="2.52684">
        <ele>26.9829</ele>
        <time>2019-01-13T09:27:16Z</time>
      </trkpt>
      <trkpt lat="48.64264" lon="2.52688">
        <ele>26.914202</ele>
        <time>2019-01-13T09:27:20Z</time>
      </trkpt>
      <trkpt lat="48.6427" lon="2.52701">
        <ele>27.220705</ele>
        <time>2019-01-13T09:27:24Z</time>
      </trkpt>
      <trkpt lat="48.64276" lon="2.52714">
        <ele>27.918266</ele>
        <time>2019-01-13T09:27:27Z</time>
      </trkpt>
      <trkpt lat="48.64283" lon="2.52733">
        <ele>28.235338</ele>
        <time>2019-01-13T09:27:30Z</time>
      </trkpt>
      <trkpt lat="48.64291" lon="2.52746">
        <ele>28.319891</ele>
        <time>2019-01-13T09:27:34Z</time>
      </trkpt>
      <trkpt lat="48.64298" lon="2.5276">
        <ele>28.523346</ele>
        <time>2019-01-13T09:27:36Z</time>
      </trkpt>
      <trkpt lat="48.64304" lon="2.52774">
        <ele>28.687168</ele>
        <time>2019-01-13T09:27:39Z</time>
      </trkpt>
      <trkpt lat="48.64312" lon="2.52789">
        <ele>29.01481</ele>
        <time>2019-01-13T09:27:42Z</time>
      </trkpt>
      <trkpt lat="48.64319" lon="2.528">
        <ele>29.02538</ele>
        <time>2019-01-13T09:27:44Z</time>
      </trkpt>
      <trkpt lat="48.64325" lon="2.52812">
        <ele>29.564404</ele>
        <time>2019-01-13T09:27:46Z</time>
      </trkpt>
      <trkpt lat="48.64333" lon="2.52823">
        <ele>29.791637</ele>
        <time>2019-01-13T09:27:48Z</time>
      </trkpt>
      <trkpt lat="48.64339" lon="2.52835">
        <ele>30.077003</ele>
        <time>2019-01-13T09:27:50Z</time>
      </trkpt>
      <trkpt lat="48.64344" lon="2.52846">
        <ele>30.378223</ele>
        <time>2019-01-13T09:27:52Z</time>
      </trkpt>
      <trkpt lat="48.64351" lon="2.52858">
        <ele>30.518263</ele>
        <time>2019-01-13T09:27:54Z</time>
      </trkpt>
      <trkpt lat="48.64357" lon="2.52869">
        <ele>30.79306</ele>
        <time>2019-01-13T09:27:56Z</time>
      </trkpt>
      <trkpt lat="48.64363" lon="2.52881">
        <ele>31.120703</ele>
        <time>2019-01-13T09:27:58Z</time>
      </trkpt>
      <trkpt lat="48.6437" lon="2.52893">
        <ele>31.543467</ele>
        <time>2019-01-13T09:28:00Z</time>
      </trkpt>
      <trkpt lat="48.6438" lon="2.52901">
        <ele>31.503832</ele>
        <time>2019-01-13T09:28:02Z</time>
      </trkpt>
      <trkpt lat="48.6439" lon="2.52899">
        <ele>31.445702</ele>
        <time>2019-01-13T09:28:04Z</time>
      </trkpt>
      <trkpt lat="48.644" lon="2.52894">
        <ele>31.511759</ele>
        <time>2019-01-13T09:28:06Z</time>
      </trkpt>
      <trkpt lat="48.64409" lon="2.52887">
        <ele>31.340012</ele>
        <time>2019-01-13T09:28:08Z</time>
      </trkpt>
      <trkpt lat="48.64417" lon="2.5288">
        <ele>31.088995</ele>
        <time>2019-01-13T09:28:10Z</time>
      </trkpt>
      <trkpt lat="48.64425" lon="2.52873">
        <ele>31.60688</ele>
        <time>2019-01-13T09:28:12Z</time>
      </trkpt>
      <trkpt lat="48.64433" lon="2.52864">
        <ele>31.609522</ele>
        <time>2019-01-13T09:28:14Z</time>
      </trkpt>
      <trkpt lat="48.64442" lon="2.52855">
        <ele>31.564604</ele>
        <time>2019-01-13T09:28:16Z</time>
      </trkpt>
      <trkpt lat="48.64449" lon="2.52845">
        <ele>31.44306</ele>
        <time>2019-01-13T09:28:18Z</time>
      </trkpt>
      <trkpt lat="48.64458" lon="2.52835">
        <ele>31.68615</ele>
        <time>2019-01-13T09:28:20Z</time>
      </trkpt>
      <trkpt lat="48.64466" lon="2.52826">
        <ele>31.601597</ele>
        <time>2019-01-13T09:28:22Z</time>
      </trkpt>
      <trkpt lat="48.64473" lon="2.52817">
        <ele>31.617449</ele>
        <time>2019-01-13T09:28:24Z</time>
      </trkpt>
      <trkpt lat="48.64484" lon="2.52806">
        <ele>31.62802</ele>
        <time>2019-01-13T09:28:27Z</time>
      </trkpt>
      <trkpt lat="48.64496" lon="2.52794">
        <ele>31.622734</ele>
        <time>2019-01-13T09:28:30Z</time>
      </trkpt>
      <trkpt lat="48.64504" lon="2.52783">
        <ele>31.482693</ele>
        <time>2019-01-13T09:28:32Z</time>
      </trkpt>
      <trkpt lat="48.64513" lon="2.52772">
        <ele>31.3268</ele>
        <time>2019-01-13T09:28:34Z</time>
      </trkpt>
      <trkpt lat="48.64522" lon="2.5276">
        <ele>31.41928</ele>
        <time>2019-01-13T09:28:36Z</time>
      </trkpt>
      <trkpt lat="48.64531" lon="2.5275">
        <ele>31.810335</ele>
        <time>2019-01-13T09:28:38Z</time>
      </trkpt>
      <trkpt lat="48.64541" lon="2.52738">
        <ele>31.760132</ele>
        <time>2019-01-13T09:28:40Z</time>
      </trkpt>
      <trkpt lat="48.6455" lon="2.52726">
        <ele>31.614807</ele>
        <time>2019-01-13T09:28:42Z</time>
      </trkpt>
      <trkpt lat="48.64561" lon="2.52713">
        <ele>31.601597</ele>
        <time>2019-01-13T09:28:44Z</time>
      </trkpt>
      <trkpt lat="48.64571" lon="2.52702">
        <ele>31.643871</ele>
        <time>2019-01-13T09:28:46Z</time>
      </trkpt>
      <trkpt lat="48.6458" lon="2.52689">
        <ele>31.392857</ele>
        <time>2019-01-13T09:28:48Z</time>
      </trkpt>
      <trkpt lat="48.64591" lon="2.52678">
        <ele>30.988588</ele>
        <time>2019-01-13T09:28:50Z</time>
      </trkpt>
      <trkpt lat="48.64602" lon="2.52666">
        <ele>30.66359</ele>
        <time>2019-01-13T09:28:52Z</time>
      </trkpt>
      <trkpt lat="48.64611" lon="2.52655">
        <ele>30.409931</ele>
        <time>2019-01-13T09:28:54Z</time>
      </trkpt>
      <trkpt lat="48.64623" lon="2.52643">
        <ele>30.296312</ele>
        <time>2019-01-13T09:28:56Z</time>
      </trkpt>
      <trkpt lat="48.64634" lon="2.52629">
        <ele>30.39936</ele>
        <time>2019-01-13T09:28:58Z</time>
      </trkpt>
      <trkpt lat="48.64645" lon="2.52615">
        <ele>29.707085</ele>
        <time>2019-01-13T09:29:00Z</time>
      </trkpt>
      <trkpt lat="48.64657" lon="2.52602">
        <ele>28.335745</ele>
        <time>2019-01-13T09:29:02Z</time>
      </trkpt>
      <trkpt lat="48.64668" lon="2.52587">
        <ele>27.894485</ele>
        <time>2019-01-13T09:29:04Z</time>
      </trkpt>
      <trkpt lat="48.64679" lon="2.52572">
        <ele>27.426804</ele>
        <time>2019-01-13T09:29:06Z</time>
      </trkpt>
      <trkpt lat="48.6469" lon="2.52557">
        <ele>27.770298</ele>
        <time>2019-01-13T09:29:08Z</time>
      </trkpt>
      <trkpt lat="48.64703" lon="2.52543">
        <ele>28.066233</ele>
        <time>2019-01-13T09:29:10Z</time>
      </trkpt>
      <trkpt lat="48.64714" lon="2.52529">
        <ele>28.663387</ele>
        <time>2019-01-13T09:29:12Z</time>
      </trkpt>
      <trkpt lat="48.64724" lon="2.52516">
        <ele>29.392654</ele>
        <time>2019-01-13T09:29:14Z</time>
      </trkpt>
      <trkpt lat="48.64734" lon="2.52504">
        <ele>30.372938</ele>
        <time>2019-01-13T09:29:16Z</time>
      </trkpt>
      <trkpt lat="48.64745" lon="2.52491">
        <ele>30.49184</ele>
        <time>2019-01-13T09:29:18Z</time>
      </trkpt>
      <trkpt lat="48.64754" lon="2.52479">
        <ele>31.120703</ele>
        <time>2019-01-13T09:29:20Z</time>
      </trkpt>
      <trkpt lat="48.64764" lon="2.52468">
        <ele>31.794481</ele>
        <time>2019-01-13T09:29:22Z</time>
      </trkpt>
      <trkpt lat="48.64773" lon="2.52456">
        <ele>31.680864</ele>
        <time>2019-01-13T09:29:24Z</time>
      </trkpt>
      <trkpt lat="48.64782" lon="2.52444">
        <ele>31.818262</ele>
        <time>2019-01-13T09:29:26Z</time>
      </trkpt>
      <trkpt lat="48.64792" lon="2.52433">
        <ele>31.916027</ele>
        <time>2019-01-13T09:29:28Z</time>
      </trkpt>
      <trkpt lat="48.64801" lon="2.52423">
        <ele>31.62802</ele>
        <time>2019-01-13T09:29:30Z</time>
      </trkpt>
      <trkpt lat="48.64811" lon="2.52412">
        <ele>32.214603</ele>
        <time>2019-01-13T09:29:32Z</time>
      </trkpt>
      <trkpt lat="48.6482" lon="2.52402">
        <ele>31.997936</ele>
        <time>2019-01-13T09:29:34Z</time>
      </trkpt>
      <trkpt lat="48.64829" lon="2.52391">
        <ele>32.124767</ele>
        <time>2019-01-13T09:29:36Z</time>
      </trkpt>
      <trkpt lat="48.64839" lon="2.5238">
        <ele>32.11948</ele>
        <time>2019-01-13T09:29:38Z</time>
      </trkpt>
      <trkpt lat="48.64848" lon="2.52369">
        <ele>32.436554</ele>
        <time>2019-01-13T09:29:40Z</time>
      </trkpt>
      <trkpt lat="48.64857" lon="2.52358">
        <ele>32.68757</ele>
        <time>2019-01-13T09:29:42Z</time>
      </trkpt>
      <trkpt lat="48.64866" lon="2.52347">
        <ele>32.238384</ele>
        <time>2019-01-13T09:29:44Z</time>
      </trkpt>
      <trkpt lat="48.64875" lon="2.52338">
        <ele>32.172325</ele>
        <time>2019-01-13T09:29:46Z</time>
      </trkpt>
      <trkpt lat="48.64885" lon="2.52327">
        <ele>32.132694</ele>
        <time>2019-01-13T09:29:48Z</time>
      </trkpt>
      <trkpt lat="48.64893" lon="2.52317">
        <ele>32.737774</ele>
        <time>2019-01-13T09:29:50Z</time>
      </trkpt>
      <trkpt lat="48.64903" lon="2.52306">
        <ele>32.08249</ele>
        <time>2019-01-13T09:29:52Z</time>
      </trkpt>
      <trkpt lat="48.64912" lon="2.52296">
        <ele>31.910742</ele>
        <time>2019-01-13T09:29:54Z</time>
      </trkpt>
      <trkpt lat="48.64921" lon="2.52288">
        <ele>32.032288</ele>
        <time>2019-01-13T09:29:56Z</time>
      </trkpt>
      <trkpt lat="48.6493" lon="2.5228">
        <ele>31.913383</ele>
        <time>2019-01-13T09:29:58Z</time>
      </trkpt>
      <trkpt lat="48.64938" lon="2.52271">
        <ele>32.04814</ele>
        <time>2019-01-13T09:30:00Z</time>
      </trkpt>
      <trkpt lat="48.64945" lon="2.52261">
        <ele>32.275375</ele>
        <time>2019-01-13T09:30:02Z</time>
      </trkpt>
      <trkpt lat="48.64954" lon="2.52252">
        <ele>32.43391</ele>
        <time>2019-01-13T09:30:04Z</time>
      </trkpt>
      <trkpt lat="48.64961" lon="2.52243">
        <ele>32.177612</ele>
        <time>2019-01-13T09:30:06Z</time>
      </trkpt>
      <trkpt lat="48.64971" lon="2.52233">
        <ele>32.137978</ele>
        <time>2019-01-13T09:30:08Z</time>
      </trkpt>
      <trkpt lat="48.6498" lon="2.52222">
        <ele>31.93188</ele>
        <time>2019-01-13T09:30:10Z</time>
      </trkpt>
      <trkpt lat="48.64988" lon="2.52211">
        <ele>32.204033</ele>
        <time>2019-01-13T09:30:12Z</time>
      </trkpt>
      <trkpt lat="48.64996" lon="2.52199">
        <ele>31.842043</ele>
        <time>2019-01-13T09:30:14Z</time>
      </trkpt>
      <trkpt lat="48.65005" lon="2.52188">
        <ele>31.72314</ele>
        <time>2019-01-13T09:30:16Z</time>
      </trkpt>
      <trkpt lat="48.65014" lon="2.52179">
        <ele>31.427206</ele>
        <time>2019-01-13T09:30:18Z</time>
      </trkpt>
      <trkpt lat="48.65023" lon="2.52169">
        <ele>31.64123</ele>
        <time>2019-01-13T09:30:20Z</time>
      </trkpt>
      <trkpt lat="48.65032" lon="2.52158">
        <ele>31.60688</ele>
        <time>2019-01-13T09:30:22Z</time>
      </trkpt>
      <trkpt lat="48.65043" lon="2.52144">
        <ele>31.892246</ele>
        <time>2019-01-13T09:30:24Z</time>
      </trkpt>
      <trkpt lat="48.65052" lon="2.52131">
        <ele>32.447124</ele>
        <time>2019-01-13T09:30:26Z</time>
      </trkpt>
      <trkpt lat="48.65062" lon="2.5212">
        <ele>32.33879</ele>
        <time>2019-01-13T09:30:28Z</time>
      </trkpt>
      <trkpt lat="48.65071" lon="2.52108">
        <ele>32.09306</ele>
        <time>2019-01-13T09:30:30Z</time>
      </trkpt>
      <trkpt lat="48.65081" lon="2.52095">
        <ele>31.340012</ele>
        <time>2019-01-13T09:30:32Z</time>
      </trkpt>
      <trkpt lat="48.6509" lon="2.52082">
        <ele>31.321514</ele>
        <time>2019-01-13T09:30:34Z</time>
      </trkpt>
      <trkpt lat="48.651" lon="2.52071">
        <ele>30.761353</ele>
        <time>2019-01-13T09:30:36Z</time>
      </trkpt>
      <trkpt lat="48.65109" lon="2.52061">
        <ele>30.980661</ele>
        <time>2019-01-13T09:30:38Z</time>
      </trkpt>
      <trkpt lat="48.65118" lon="2.5205">
        <ele>30.732288</ele>
        <time>2019-01-13T09:30:40Z</time>
      </trkpt>
      <trkpt lat="48.65127" lon="2.52039">
        <ele>31.046719</ele>
        <time>2019-01-13T09:30:42Z</time>
      </trkpt>
      <trkpt lat="48.65136" lon="2.52029">
        <ele>30.922531</ele>
        <time>2019-01-13T09:30:44Z</time>
      </trkpt>
      <trkpt lat="48.65145" lon="2.5202">
        <ele>30.867044</ele>
        <time>2019-01-13T09:30:46Z</time>
      </trkpt>
      <trkpt lat="48.65155" lon="2.52007">
        <ele>30.600174</ele>
        <time>2019-01-13T09:30:48Z</time>
      </trkpt>
      <trkpt lat="48.65164" lon="2.51995">
        <ele>30.531475</ele>
        <time>2019-01-13T09:30:50Z</time>
      </trkpt>
      <trkpt lat="48.65174" lon="2.51982">
        <ele>30.85119</ele>
        <time>2019-01-13T09:30:52Z</time>
      </trkpt>
      <trkpt lat="48.65183" lon="2.51971">
        <ele>30.938385</ele>
        <time>2019-01-13T09:30:54Z</time>
      </trkpt>
      <trkpt lat="48.65191" lon="2.5196">
        <ele>31.028223</ele>
        <time>2019-01-13T09:30:56Z</time>
      </trkpt>
      <trkpt lat="48.65198" lon="2.51949">
        <ele>30.690012</ele>
        <time>2019-01-13T09:30:58Z</time>
      </trkpt>
      <trkpt lat="48.65207" lon="2.51938">
        <ele>30.893467</ele>
        <time>2019-01-13T09:31:00Z</time>
      </trkpt>
      <trkpt lat="48.65216" lon="2.51927">
        <ele>31.007084</ele>
        <time>2019-01-13T09:31:02Z</time>
      </trkpt>
      <trkpt lat="48.65225" lon="2.51916">
        <ele>30.816841</ele>
        <time>2019-01-13T09:31:04Z</time>
      </trkpt>
      <trkpt lat="48.65234" lon="2.51906">
        <ele>31.596312</ele>
        <time>2019-01-13T09:31:06Z</time>
      </trkpt>
      <trkpt lat="48.65242" lon="2.51896">
        <ele>31.247532</ele>
        <time>2019-01-13T09:31:08Z</time>
      </trkpt>
      <trkpt lat="48.6525" lon="2.51887">
        <ele>31.255459</ele>
        <time>2019-01-13T09:31:10Z</time>
      </trkpt>
      <trkpt lat="48.65258" lon="2.51877">
        <ele>31.458914</ele>
        <time>2019-01-13T09:31:12Z</time>
      </trkpt>
      <trkpt lat="48.65267" lon="2.51868">
        <ele>31.424564</ele>
        <time>2019-01-13T09:31:14Z</time>
      </trkpt>
      <trkpt lat="48.65274" lon="2.51859">
        <ele>31.26867</ele>
        <time>2019-01-13T09:31:16Z</time>
      </trkpt>
      <trkpt lat="48.65282" lon="2.5185">
        <ele>31.218466</ele>
        <time>2019-01-13T09:31:18Z</time>
      </trkpt>
      <trkpt lat="48.6529" lon="2.51842">
        <ele>31.289808</ele>
        <time>2019-01-13T09:31:20Z</time>
      </trkpt>
      <trkpt lat="48.65299" lon="2.51833">
        <ele>31.522327</ele>
        <time>2019-01-13T09:31:22Z</time>
      </trkpt>
      <trkpt lat="48.65306" lon="2.51824">
        <ele>31.715214</ele>
        <time>2019-01-13T09:31:24Z</time>
      </trkpt>
      <trkpt lat="48.65315" lon="2.51814">
        <ele>31.717855</ele>
        <time>2019-01-13T09:31:26Z</time>
      </trkpt>
      <trkpt lat="48.65323" lon="2.51802">
        <ele>31.09428</ele>
        <time>2019-01-13T09:31:28Z</time>
      </trkpt>
      <trkpt lat="48.65331" lon="2.51792">
        <ele>31.287165</ele>
        <time>2019-01-13T09:31:30Z</time>
      </trkpt>
      <trkpt lat="48.65339" lon="2.51782">
        <ele>31.625376</ele>
        <time>2019-01-13T09:31:32Z</time>
      </trkpt>
      <trkpt lat="48.65346" lon="2.51775">
        <ele>31.567245</ele>
        <time>2019-01-13T09:31:34Z</time>
      </trkpt>
      <trkpt lat="48.65354" lon="2.51766">
        <ele>31.377003</ele>
        <time>2019-01-13T09:31:36Z</time>
      </trkpt>
      <trkpt lat="48.65362" lon="2.51757">
        <ele>31.57253</ele>
        <time>2019-01-13T09:31:38Z</time>
      </trkpt>
      <trkpt lat="48.6537" lon="2.51747">
        <ele>31.379644</ele>
        <time>2019-01-13T09:31:40Z</time>
      </trkpt>
      <trkpt lat="48.65379" lon="2.51737">
        <ele>31.347939</ele>
        <time>2019-01-13T09:31:42Z</time>
      </trkpt>
      <trkpt lat="48.65387" lon="2.51728">
        <ele>31.2581</ele>
        <time>2019-01-13T09:31:44Z</time>
      </trkpt>
      <trkpt lat="48.65397" lon="2.51718">
        <ele>31.16298</ele>
        <time>2019-01-13T09:31:46Z</time>
      </trkpt>
      <trkpt lat="48.65406" lon="2.51708">
        <ele>31.054646</ele>
        <time>2019-01-13T09:31:48Z</time>
      </trkpt>
      <trkpt lat="48.65415" lon="2.51698">
        <ele>31.36379</ele>
        <time>2019-01-13T09:31:50Z</time>
      </trkpt>
      <trkpt lat="48.65424" lon="2.51686">
        <ele>31.221107</ele>
        <time>2019-01-13T09:31:52Z</time>
      </trkpt>
      <trkpt lat="48.65432" lon="2.51675">
        <ele>31.654442</ele>
        <time>2019-01-13T09:31:54Z</time>
      </trkpt>
      <trkpt lat="48.6544" lon="2.51664">
        <ele>31.485336</ele>
        <time>2019-01-13T09:31:56Z</time>
      </trkpt>
      <trkpt lat="48.6545" lon="2.51654">
        <ele>31.49062</ele>
        <time>2019-01-13T09:31:58Z</time>
      </trkpt>
      <trkpt lat="48.65458" lon="2.51644">
        <ele>31.543467</ele>
        <time>2019-01-13T09:32:00Z</time>
      </trkpt>
      <trkpt lat="48.65467" lon="2.51634">
        <ele>31.66501</ele>
        <time>2019-01-13T09:32:02Z</time>
      </trkpt>
      <trkpt lat="48.65475" lon="2.51624">
        <ele>31.390213</ele>
        <time>2019-01-13T09:32:04Z</time>
      </trkpt>
      <trkpt lat="48.65483" lon="2.51614">
        <ele>31.82883</ele>
        <time>2019-01-13T09:32:06Z</time>
      </trkpt>
      <trkpt lat="48.6549" lon="2.51604">
        <ele>31.551394</ele>
        <time>2019-01-13T09:32:08Z</time>
      </trkpt>
      <trkpt lat="48.65502" lon="2.51589">
        <ele>31.413994</ele>
        <time>2019-01-13T09:32:11Z</time>
      </trkpt>
      <trkpt lat="48.65511" lon="2.51578">
        <ele>31.281881</ele>
        <time>2019-01-13T09:32:13Z</time>
      </trkpt>
      <trkpt lat="48.6552" lon="2.51567">
        <ele>31.860538</ele>
        <time>2019-01-13T09:32:15Z</time>
      </trkpt>
      <trkpt lat="48.65529" lon="2.51556">
        <ele>31.630661</ele>
        <time>2019-01-13T09:32:17Z</time>
      </trkpt>
      <trkpt lat="48.65539" lon="2.51546">
        <ele>31.643871</ele>
        <time>2019-01-13T09:32:19Z</time>
      </trkpt>
      <trkpt lat="48.65548" lon="2.51535">
        <ele>31.702002</ele>
        <time>2019-01-13T09:32:21Z</time>
      </trkpt>
      <trkpt lat="48.65557" lon="2.51525">
        <ele>31.522327</ele>
        <time>2019-01-13T09:32:23Z</time>
      </trkpt>
      <trkpt lat="48.65564" lon="2.51516">
        <ele>31.649157</ele>
        <time>2019-01-13T09:32:25Z</time>
      </trkpt>
      <trkpt lat="48.65574" lon="2.51505">
        <ele>31.099564</ele>
        <time>2019-01-13T09:32:27Z</time>
      </trkpt>
      <trkpt lat="48.65582" lon="2.51495">
        <ele>31.778627</ele>
        <time>2019-01-13T09:32:29Z</time>
      </trkpt>
      <trkpt lat="48.65591" lon="2.51485">
        <ele>31.836758</ele>
        <time>2019-01-13T09:32:31Z</time>
      </trkpt>
      <trkpt lat="48.65601" lon="2.51474">
        <ele>31.585743</ele>
        <time>2019-01-13T09:32:33Z</time>
      </trkpt>
      <trkpt lat="48.6561" lon="2.51466">
        <ele>31.752205</ele>
        <time>2019-01-13T09:32:35Z</time>
      </trkpt>
      <trkpt lat="48.65619" lon="2.51455">
        <ele>31.44306</ele>
        <time>2019-01-13T09:32:37Z</time>
      </trkpt>
      <trkpt lat="48.65627" lon="2.51444">
        <ele>31.52497</ele>
        <time>2019-01-13T09:32:39Z</time>
      </trkpt>
      <trkpt lat="48.65636" lon="2.51434">
        <ele>31.14184</ele>
        <time>2019-01-13T09:32:41Z</time>
      </trkpt>
      <trkpt lat="48.65645" lon="2.51423">
        <ele>30.94367</ele>
        <time>2019-01-13T09:32:43Z</time>
      </trkpt>
      <trkpt lat="48.65655" lon="2.51411">
        <ele>31.178833</ele>
        <time>2019-01-13T09:32:45Z</time>
      </trkpt>
      <trkpt lat="48.65664" lon="2.51399">
        <ele>30.882896</ele>
        <time>2019-01-13T09:32:47Z</time>
      </trkpt>
      <trkpt lat="48.65673" lon="2.51387">
        <ele>31.152409</ele>
        <time>2019-01-13T09:32:49Z</time>
      </trkpt>
      <trkpt lat="48.65683" lon="2.51375">
        <ele>30.581678</ele>
        <time>2019-01-13T09:32:51Z</time>
      </trkpt>
      <trkpt lat="48.65691" lon="2.51363">
        <ele>30.600174</ele>
        <time>2019-01-13T09:32:53Z</time>
      </trkpt>
      <trkpt lat="48.65699" lon="2.51353">
        <ele>30.544685</ele>
        <time>2019-01-13T09:32:55Z</time>
      </trkpt>
      <trkpt lat="48.65707" lon="2.51344">
        <ele>30.542044</ele>
        <time>2019-01-13T09:32:57Z</time>
      </trkpt>
      <trkpt lat="48.65716" lon="2.51334">
        <ele>30.240826</ele>
        <time>2019-01-13T09:33:00Z</time>
      </trkpt>
      <trkpt lat="48.65724" lon="2.51324">
        <ele>30.719076</ele>
        <time>2019-01-13T09:33:03Z</time>
      </trkpt>
      <trkpt lat="48.65731" lon="2.51316">
        <ele>30.655663</ele>
        <time>2019-01-13T09:33:05Z</time>
      </trkpt>
      <trkpt lat="48.65739" lon="2.51307">
        <ele>30.837978</ele>
        <time>2019-01-13T09:33:08Z</time>
      </trkpt>
      <trkpt lat="48.65744" lon="2.51295">
        <ele>30.409931</ele>
        <time>2019-01-13T09:33:11Z</time>
      </trkpt>
      <trkpt lat="48.65736" lon="2.51285">
        <ele>30.462776</ele>
        <time>2019-01-13T09:33:15Z</time>
      </trkpt>
      <trkpt lat="48.65726" lon="2.51283">
        <ele>30.407288</ele>
        <time>2019-01-13T09:33:18Z</time>
      </trkpt>
      <trkpt lat="48.65714" lon="2.5128">
        <ele>30.359728</ele>
        <time>2019-01-13T09:33:22Z</time>
      </trkpt>
      <trkpt lat="48.65705" lon="2.51277">
        <ele>30.100784</ele>
        <time>2019-01-13T09:33:25Z</time>
      </trkpt>
      <trkpt lat="48.65699" lon="2.51266">
        <ele>30.277817</ele>
        <time>2019-01-13T09:33:30Z</time>
      </trkpt>
      <trkpt lat="48.65693" lon="2.51253">
        <ele>30.557898</ele>
        <time>2019-01-13T09:33:35Z</time>
      </trkpt>
      <trkpt lat="48.65687" lon="2.5124">
        <ele>30.531475</ele>
        <time>2019-01-13T09:33:39Z</time>
      </trkpt>
      <trkpt lat="48.6568" lon="2.51229">
        <ele>30.653019</ele>
        <time>2019-01-13T09:33:42Z</time>
      </trkpt>
      <trkpt lat="48.65671" lon="2.51217">
        <ele>31.194685</ele>
        <time>2019-01-13T09:33:46Z</time>
      </trkpt>
      <trkpt lat="48.65664" lon="2.51207">
        <ele>30.243467</ele>
        <time>2019-01-13T09:33:50Z</time>
      </trkpt>
      <trkpt lat="48.65656" lon="2.51195">
        <ele>30.156273</ele>
        <time>2019-01-13T09:33:55Z</time>
      </trkpt>
      <trkpt lat="48.65649" lon="2.51185">
        <ele>30.174768</ele>
        <time>2019-01-13T09:34:00Z</time>
      </trkpt>
      <trkpt lat="48.65643" lon="2.51175">
        <ele>29.987167</ele>
        <time>2019-01-13T09:34:06Z</time>
      </trkpt>
      <trkpt lat="48.65641" lon="2.51171">
        <ele>29.857695</ele>
        <time>2019-01-13T09:34:10Z</time>
      </trkpt>
      <trkpt lat="48.65641" lon="2.51171">
        <ele>29.857695</ele>
        <time>2019-01-13T09:34:10Z</time>
      </trkpt>
      <trkpt lat="48.65635" lon="2.5116">
        <ele>30.066435</ele>
        <time>2019-01-13T09:34:50Z</time>
      </trkpt>
      <trkpt lat="48.6564" lon="2.51149">
        <ele>29.865622</ele>
        <time>2019-01-13T09:34:56Z</time>
      </trkpt>
      <trkpt lat="48.6564" lon="2.51133">
        <ele>30.301598</ele>
        <time>2019-01-13T09:35:01Z</time>
      </trkpt>
      <trkpt lat="48.65639" lon="2.51115">
        <ele>30.761353</ele>
        <time>2019-01-13T09:35:07Z</time>
      </trkpt>
      <trkpt lat="48.65648" lon="2.51112">
        <ele>30.616028</ele>
        <time>2019-01-13T09:35:10Z</time>
      </trkpt>
      <trkpt lat="48.65658" lon="2.51111">
        <ele>30.34123</ele>
        <time>2019-01-13T09:35:13Z</time>
      </trkpt>
      <trkpt lat="48.65668" lon="2.51112">
        <ele>29.963387</ele>
        <time>2019-01-13T09:35:16Z</time>
      </trkpt>
      <trkpt lat="48.65677" lon="2.51115">
        <ele>30.08493</ele>
        <time>2019-01-13T09:35:19Z</time>
      </trkpt>
      <trkpt lat="48.65689" lon="2.51118">
        <ele>30.333305</ele>
        <time>2019-01-13T09:35:23Z</time>
      </trkpt>
      <trkpt lat="48.65698" lon="2.51112">
        <ele>30.576393</ele>
        <time>2019-01-13T09:35:26Z</time>
      </trkpt>
      <trkpt lat="48.65707" lon="2.51106">
        <ele>30.470703</ele>
        <time>2019-01-13T09:35:29Z</time>
      </trkpt>
      <trkpt lat="48.65717" lon="2.51111">
        <ele>30.391434</ele>
        <time>2019-01-13T09:35:36Z</time>
      </trkpt>
      <trkpt lat="48.65721" lon="2.51123">
        <ele>30.43371</ele>
        <time>2019-01-13T09:35:39Z</time>
      </trkpt>
      <trkpt lat="48.65725" lon="2.51137">
        <ele>30.589605</ele>
        <time>2019-01-13T09:35:42Z</time>
      </trkpt>
      <trkpt lat="48.65729" lon="2.51153">
        <ele>30.452208</ele>
        <time>2019-01-13T09:35:45Z</time>
      </trkpt>
      <trkpt lat="48.65735" lon="2.51168">
        <ele>30.631882</ele>
        <time>2019-01-13T09:35:48Z</time>
      </trkpt>
      <trkpt lat="48.6574" lon="2.51184">
        <ele>30.60546</ele>
        <time>2019-01-13T09:35:51Z</time>
      </trkpt>
      <trkpt lat="48.65745" lon="2.51201">
        <ele>30.750784</ele>
        <time>2019-01-13T09:35:54Z</time>
      </trkpt>
      <trkpt lat="48.65752" lon="2.51217">
        <ele>30.76928</ele>
        <time>2019-01-13T09:35:57Z</time>
      </trkpt>
      <trkpt lat="48.65757" lon="2.51232">
        <ele>30.452208</ele>
        <time>2019-01-13T09:36:00Z</time>
      </trkpt>
      <trkpt lat="48.65761" lon="2.51247">
        <ele>30.837978</ele>
        <time>2019-01-13T09:36:03Z</time>
      </trkpt>
      <trkpt lat="48.65772" lon="2.51255">
        <ele>30.75607</ele>
        <time>2019-01-13T09:36:07Z</time>
      </trkpt>
      <trkpt lat="48.65782" lon="2.51251">
        <ele>30.930458</ele>
        <time>2019-01-13T09:36:10Z</time>
      </trkpt>
      <trkpt lat="48.65791" lon="2.51241">
        <ele>31.147125</ele>
        <time>2019-01-13T09:36:13Z</time>
      </trkpt>
      <trkpt lat="48.65801" lon="2.5123">
        <ele>30.996515</ele>
        <time>2019-01-13T09:36:16Z</time>
      </trkpt>
      <trkpt lat="48.65809" lon="2.51214">
        <ele>30.82741</ele>
        <time>2019-01-13T09:36:19Z</time>
      </trkpt>
      <trkpt lat="48.65815" lon="2.51197">
        <ele>31.358507</ele>
        <time>2019-01-13T09:36:22Z</time>
      </trkpt>
      <trkpt lat="48.65819" lon="2.51183">
        <ele>31.281881</ele>
        <time>2019-01-13T09:36:25Z</time>
      </trkpt>
      <trkpt lat="48.65828" lon="2.51172">
        <ele>31.231678</ele>
        <time>2019-01-13T09:36:28Z</time>
      </trkpt>
      <trkpt lat="48.65839" lon="2.51172">
        <ele>31.300377</ele>
        <time>2019-01-13T09:36:31Z</time>
      </trkpt>
      <trkpt lat="48.65853" lon="2.51169">
        <ele>31.337368</ele>
        <time>2019-01-13T09:36:34Z</time>
      </trkpt>
      <trkpt lat="48.65861" lon="2.51162">
        <ele>31.279238</ele>
        <time>2019-01-13T09:36:36Z</time>
      </trkpt>
      <trkpt lat="48.65871" lon="2.5115">
        <ele>31.073141</ele>
        <time>2019-01-13T09:36:39Z</time>
      </trkpt>
      <trkpt lat="48.65883" lon="2.5114">
        <ele>31.112776</ele>
        <time>2019-01-13T09:36:42Z</time>
      </trkpt>
      <trkpt lat="48.65891" lon="2.51131">
        <ele>31.007084</ele>
        <time>2019-01-13T09:36:44Z</time>
      </trkpt>
      <trkpt lat="48.65899" lon="2.51123">
        <ele>31.192043</ele>
        <time>2019-01-13T09:36:46Z</time>
      </trkpt>
      <trkpt lat="48.65907" lon="2.51112">
        <ele>31.2581</ele>
        <time>2019-01-13T09:36:48Z</time>
      </trkpt>
      <trkpt lat="48.65915" lon="2.51102">
        <ele>31.400784</ele>
        <time>2019-01-13T09:36:50Z</time>
      </trkpt>
      <trkpt lat="48.65923" lon="2.51094">
        <ele>31.2581</ele>
        <time>2019-01-13T09:36:52Z</time>
      </trkpt>
      <trkpt lat="48.6593" lon="2.51085">
        <ele>31.247532</ele>
        <time>2019-01-13T09:36:54Z</time>
      </trkpt>
      <trkpt lat="48.65938" lon="2.51077">
        <ele>31.088995</ele>
        <time>2019-01-13T09:36:56Z</time>
      </trkpt>
      <trkpt lat="48.65945" lon="2.51066">
        <ele>31.263386</ele>
        <time>2019-01-13T09:36:58Z</time>
      </trkpt>
      <trkpt lat="48.65954" lon="2.51057">
        <ele>31.170906</ele>
        <time>2019-01-13T09:37:00Z</time>
      </trkpt>
      <trkpt lat="48.65965" lon="2.51044">
        <ele>31.741636</ele>
        <time>2019-01-13T09:37:03Z</time>
      </trkpt>
      <trkpt lat="48.65973" lon="2.51036">
        <ele>31.662369</ele>
        <time>2019-01-13T09:37:05Z</time>
      </trkpt>
      <trkpt lat="48.65981" lon="2.51025">
        <ele>31.614807</ele>
        <time>2019-01-13T09:37:07Z</time>
      </trkpt>
      <trkpt lat="48.65989" lon="2.51014">
        <ele>31.707287</ele>
        <time>2019-01-13T09:37:09Z</time>
      </trkpt>
      <trkpt lat="48.65998" lon="2.51003">
        <ele>31.704645</ele>
        <time>2019-01-13T09:37:11Z</time>
      </trkpt>
      <trkpt lat="48.66007" lon="2.50992">
        <ele>31.702002</ele>
        <time>2019-01-13T09:37:13Z</time>
      </trkpt>
      <trkpt lat="48.66016" lon="2.50981">
        <ele>31.659725</ele>
        <time>2019-01-13T09:37:15Z</time>
      </trkpt>
      <trkpt lat="48.66024" lon="2.5097">
        <ele>31.783913</ele>
        <time>2019-01-13T09:37:17Z</time>
      </trkpt>
      <trkpt lat="48.66034" lon="2.5096">
        <ele>31.554035</ele>
        <time>2019-01-13T09:37:19Z</time>
      </trkpt>
      <trkpt lat="48.66042" lon="2.50949">
        <ele>31.546108</ele>
        <time>2019-01-13T09:37:21Z</time>
      </trkpt>
      <trkpt lat="48.66051" lon="2.50939">
        <ele>31.31623</ele>
        <time>2019-01-13T09:37:23Z</time>
      </trkpt>
      <trkpt lat="48.6606" lon="2.50929">
        <ele>31.609522</ele>
        <time>2019-01-13T09:37:25Z</time>
      </trkpt>
      <trkpt lat="48.66068" lon="2.50919">
        <ele>31.995295</ele>
        <time>2019-01-13T09:37:27Z</time>
      </trkpt>
      <trkpt lat="48.66076" lon="2.50909">
        <ele>31.635946</ele>
        <time>2019-01-13T09:37:29Z</time>
      </trkpt>
      <trkpt lat="48.66084" lon="2.509">
        <ele>31.678223</ele>
        <time>2019-01-13T09:37:31Z</time>
      </trkpt>
      <trkpt lat="48.66093" lon="2.5089">
        <ele>31.974157</ele>
        <time>2019-01-13T09:37:33Z</time>
      </trkpt>
      <trkpt lat="48.66102" lon="2.5088">
        <ele>31.947733</ele>
        <time>2019-01-13T09:37:35Z</time>
      </trkpt>
      <trkpt lat="48.66111" lon="2.5087">
        <ele>31.79184</ele>
        <time>2019-01-13T09:37:37Z</time>
      </trkpt>
      <trkpt lat="48.6612" lon="2.50862">
        <ele>31.609522</ele>
        <time>2019-01-13T09:37:39Z</time>
      </trkpt>
      <trkpt lat="48.66128" lon="2.50852">
        <ele>31.709929</ele>
        <time>2019-01-13T09:37:41Z</time>
      </trkpt>
      <trkpt lat="48.66136" lon="2.50842">
        <ele>31.797125</ele>
        <time>2019-01-13T09:37:43Z</time>
      </trkpt>
      <trkpt lat="48.66144" lon="2.50833">
        <ele>32.016434</ele>
        <time>2019-01-13T09:37:45Z</time>
      </trkpt>
      <trkpt lat="48.66152" lon="2.50823">
        <ele>32.034927</ele>
        <time>2019-01-13T09:37:47Z</time>
      </trkpt>
      <trkpt lat="48.6616" lon="2.50813">
        <ele>32.14062</ele>
        <time>2019-01-13T09:37:49Z</time>
      </trkpt>
      <trkpt lat="48.66168" lon="2.50803">
        <ele>32.381065</ele>
        <time>2019-01-13T09:37:51Z</time>
      </trkpt>
      <trkpt lat="48.66176" lon="2.50793">
        <ele>31.799767</ele>
        <time>2019-01-13T09:37:53Z</time>
      </trkpt>
      <trkpt lat="48.66184" lon="2.50781">
        <ele>32.06135</ele>
        <time>2019-01-13T09:37:55Z</time>
      </trkpt>
      <trkpt lat="48.66192" lon="2.50771">
        <ele>32.16176</ele>
        <time>2019-01-13T09:37:57Z</time>
      </trkpt>
      <trkpt lat="48.662" lon="2.50762">
        <ele>32.135334</ele>
        <time>2019-01-13T09:37:59Z</time>
      </trkpt>
      <trkpt lat="48.66208" lon="2.50753">
        <ele>32.053425</ele>
        <time>2019-01-13T09:38:01Z</time>
      </trkpt>
      <trkpt lat="48.66216" lon="2.50742">
        <ele>32.008507</ele>
        <time>2019-01-13T09:38:03Z</time>
      </trkpt>
      <trkpt lat="48.66224" lon="2.50732">
        <ele>31.905457</ele>
        <time>2019-01-13T09:38:05Z</time>
      </trkpt>
      <trkpt lat="48.66233" lon="2.50721">
        <ele>31.934523</ele>
        <time>2019-01-13T09:38:07Z</time>
      </trkpt>
      <trkpt lat="48.66242" lon="2.50711">
        <ele>31.704645</ele>
        <time>2019-01-13T09:38:09Z</time>
      </trkpt>
      <trkpt lat="48.66249" lon="2.50703">
        <ele>31.400784</ele>
        <time>2019-01-13T09:38:11Z</time>
      </trkpt>
      <trkpt lat="48.66258" lon="2.50693">
        <ele>31.284523</ele>
        <time>2019-01-13T09:38:14Z</time>
      </trkpt>
      <trkpt lat="48.66269" lon="2.50682">
        <ele>31.546108</ele>
        <time>2019-01-13T09:38:17Z</time>
      </trkpt>
      <trkpt lat="48.66277" lon="2.50672">
        <ele>31.567245</ele>
        <time>2019-01-13T09:38:19Z</time>
      </trkpt>
      <trkpt lat="48.66284" lon="2.50664">
        <ele>31.709929</ele>
        <time>2019-01-13T09:38:21Z</time>
      </trkpt>
      <trkpt lat="48.66293" lon="2.50656">
        <ele>32.103626</ele>
        <time>2019-01-13T09:38:23Z</time>
      </trkpt>
      <trkpt lat="48.66301" lon="2.50647">
        <ele>32.608303</ele>
        <time>2019-01-13T09:38:25Z</time>
      </trkpt>
      <trkpt lat="48.6631" lon="2.50639">
        <ele>31.839401</ele>
        <time>2019-01-13T09:38:27Z</time>
      </trkpt>
      <trkpt lat="48.66318" lon="2.5063">
        <ele>31.968872</ele>
        <time>2019-01-13T09:38:29Z</time>
      </trkpt>
      <trkpt lat="48.66327" lon="2.50619">
        <ele>32.05871</ele>
        <time>2019-01-13T09:38:31Z</time>
      </trkpt>
      <trkpt lat="48.66335" lon="2.5061">
        <ele>31.820904</ele>
        <time>2019-01-13T09:38:33Z</time>
      </trkpt>
      <trkpt lat="48.66344" lon="2.50599">
        <ele>32.378426</ele>
        <time>2019-01-13T09:38:35Z</time>
      </trkpt>
      <trkpt lat="48.66352" lon="2.50588">
        <ele>32.89631</ele>
        <time>2019-01-13T09:38:37Z</time>
      </trkpt>
      <trkpt lat="48.66359" lon="2.50578">
        <ele>32.56867</ele>
        <time>2019-01-13T09:38:39Z</time>
      </trkpt>
      <trkpt lat="48.66367" lon="2.50569">
        <ele>32.43391</ele>
        <time>2019-01-13T09:38:41Z</time>
      </trkpt>
      <trkpt lat="48.66376" lon="2.50558">
        <ele>32.135334</ele>
        <time>2019-01-13T09:38:43Z</time>
      </trkpt>
      <trkpt lat="48.66385" lon="2.50548">
        <ele>32.15383</ele>
        <time>2019-01-13T09:38:45Z</time>
      </trkpt>
      <trkpt lat="48.66394" lon="2.50537">
        <ele>32.13005</ele>
        <time>2019-01-13T09:38:47Z</time>
      </trkpt>
      <trkpt lat="48.66402" lon="2.50528">
        <ele>31.47741</ele>
        <time>2019-01-13T09:38:49Z</time>
      </trkpt>
      <trkpt lat="48.6641" lon="2.50519">
        <ele>31.680864</ele>
        <time>2019-01-13T09:38:51Z</time>
      </trkpt>
      <trkpt lat="48.66419" lon="2.50509">
        <ele>31.997936</ele>
        <time>2019-01-13T09:38:53Z</time>
      </trkpt>
      <trkpt lat="48.66426" lon="2.50498">
        <ele>32.47619</ele>
        <time>2019-01-13T09:38:55Z</time>
      </trkpt>
      <trkpt lat="48.66434" lon="2.50489">
        <ele>32.46298</ele>
        <time>2019-01-13T09:38:57Z</time>
      </trkpt>
      <trkpt lat="48.66444" lon="2.50478">
        <ele>32.44448</ele>
        <time>2019-01-13T09:39:00Z</time>
      </trkpt>
      <trkpt lat="48.66451" lon="2.50468">
        <ele>32.27273</ele>
        <time>2019-01-13T09:39:02Z</time>
      </trkpt>
      <trkpt lat="48.66459" lon="2.50458">
        <ele>32.46298</ele>
        <time>2019-01-13T09:39:04Z</time>
      </trkpt>
      <trkpt lat="48.66468" lon="2.50448">
        <ele>32.8831</ele>
        <time>2019-01-13T09:39:06Z</time>
      </trkpt>
      <trkpt lat="48.66477" lon="2.50438">
        <ele>33.24509</ele>
        <time>2019-01-13T09:39:08Z</time>
      </trkpt>
      <trkpt lat="48.66487" lon="2.50427">
        <ele>33.068058</ele>
        <time>2019-01-13T09:39:10Z</time>
      </trkpt>
      <trkpt lat="48.66495" lon="2.50417">
        <ele>32.840824</ele>
        <time>2019-01-13T09:39:12Z</time>
      </trkpt>
      <trkpt lat="48.66504" lon="2.50405">
        <ele>32.46826</ele>
        <time>2019-01-13T09:39:14Z</time>
      </trkpt>
      <trkpt lat="48.66513" lon="2.50396">
        <ele>32.782692</ele>
        <time>2019-01-13T09:39:16Z</time>
      </trkpt>
      <trkpt lat="48.66521" lon="2.50387">
        <ele>32.80119</ele>
        <time>2019-01-13T09:39:18Z</time>
      </trkpt>
      <trkpt lat="48.66529" lon="2.50377">
        <ele>32.983505</ele>
        <time>2019-01-13T09:39:20Z</time>
      </trkpt>
      <trkpt lat="48.66537" lon="2.50366">
        <ele>32.891026</ele>
        <time>2019-01-13T09:39:22Z</time>
      </trkpt>
      <trkpt lat="48.66546" lon="2.50355">
        <ele>32.49997</ele>
        <time>2019-01-13T09:39:24Z</time>
      </trkpt>
      <trkpt lat="48.66555" lon="2.50345">
        <ele>32.91745</ele>
        <time>2019-01-13T09:39:26Z</time>
      </trkpt>
      <trkpt lat="48.66563" lon="2.50335">
        <ele>33.266228</ele>
        <time>2019-01-13T09:39:28Z</time>
      </trkpt>
      <trkpt lat="48.66571" lon="2.50324">
        <ele>33.149967</ele>
        <time>2019-01-13T09:39:30Z</time>
      </trkpt>
      <trkpt lat="48.6658" lon="2.50313">
        <ele>32.843464</ele>
        <time>2019-01-13T09:39:32Z</time>
      </trkpt>
      <trkpt lat="48.66589" lon="2.50304">
        <ele>32.682285</ele>
        <time>2019-01-13T09:39:34Z</time>
      </trkpt>
      <trkpt lat="48.66597" lon="2.50293">
        <ele>32.785336</ele>
        <time>2019-01-13T09:39:36Z</time>
      </trkpt>
      <trkpt lat="48.66605" lon="2.50282">
        <ele>32.478832</ele>
        <time>2019-01-13T09:39:38Z</time>
      </trkpt>
      <trkpt lat="48.66613" lon="2.50271">
        <ele>32.43127</ele>
        <time>2019-01-13T09:39:40Z</time>
      </trkpt>
      <trkpt lat="48.66621" lon="2.50261">
        <ele>32.449764</ele>
        <time>2019-01-13T09:39:42Z</time>
      </trkpt>
      <trkpt lat="48.66629" lon="2.50251">
        <ele>32.439198</ele>
        <time>2019-01-13T09:39:44Z</time>
      </trkpt>
      <trkpt lat="48.66638" lon="2.5024">
        <ele>32.391636</ele>
        <time>2019-01-13T09:39:46Z</time>
      </trkpt>
      <trkpt lat="48.66647" lon="2.5023">
        <ele>32.544888</ele>
        <time>2019-01-13T09:39:48Z</time>
      </trkpt>
      <trkpt lat="48.66655" lon="2.50221">
        <ele>32.737774</ele>
        <time>2019-01-13T09:39:50Z</time>
      </trkpt>
      <trkpt lat="48.66666" lon="2.50209">
        <ele>32.19875</ele>
        <time>2019-01-13T09:39:53Z</time>
      </trkpt>
      <trkpt lat="48.66676" lon="2.50198">
        <ele>32.275375</ele>
        <time>2019-01-13T09:39:56Z</time>
      </trkpt>
      <trkpt lat="48.66684" lon="2.50189">
        <ele>32.61887</ele>
        <time>2019-01-13T09:39:58Z</time>
      </trkpt>
      <trkpt lat="48.66692" lon="2.50178">
        <ele>32.492043</ele>
        <time>2019-01-13T09:40:00Z</time>
      </trkpt>
      <trkpt lat="48.66701" lon="2.50168">
        <ele>32.748344</ele>
        <time>2019-01-13T09:40:02Z</time>
      </trkpt>
      <trkpt lat="48.6671" lon="2.50161">
        <ele>32.637367</ele>
        <time>2019-01-13T09:40:04Z</time>
      </trkpt>
      <trkpt lat="48.66722" lon="2.50148">
        <ele>32.67172</ele>
        <time>2019-01-13T09:40:07Z</time>
      </trkpt>
      <trkpt lat="48.66731" lon="2.50139">
        <ele>32.89367</ele>
        <time>2019-01-13T09:40:09Z</time>
      </trkpt>
      <trkpt lat="48.66739" lon="2.50128">
        <ele>33.02578</ele>
        <time>2019-01-13T09:40:11Z</time>
      </trkpt>
      <trkpt lat="48.66748" lon="2.50117">
        <ele>33.179035</ele>
        <time>2019-01-13T09:40:13Z</time>
      </trkpt>
      <trkpt lat="48.66756" lon="2.50107">
        <ele>33.482895</ele>
        <time>2019-01-13T09:40:15Z</time>
      </trkpt>
      <trkpt lat="48.66765" lon="2.50099">
        <ele>32.82761</ele>
        <time>2019-01-13T09:40:17Z</time>
      </trkpt>
      <trkpt lat="48.66773" lon="2.50091">
        <ele>32.962368</ele>
        <time>2019-01-13T09:40:19Z</time>
      </trkpt>
      <trkpt lat="48.66782" lon="2.50081">
        <ele>32.529034</ele>
        <time>2019-01-13T09:40:21Z</time>
      </trkpt>
      <trkpt lat="48.66791" lon="2.50072">
        <ele>32.912163</ele>
        <time>2019-01-13T09:40:23Z</time>
      </trkpt>
      <trkpt lat="48.668" lon="2.50062">
        <ele>32.946514</ele>
        <time>2019-01-13T09:40:25Z</time>
      </trkpt>
      <trkpt lat="48.66808" lon="2.50051">
        <ele>33.15261</ele>
        <time>2019-01-13T09:40:27Z</time>
      </trkpt>
      <trkpt lat="48.66817" lon="2.50039">
        <ele>32.972935</ele>
        <time>2019-01-13T09:40:29Z</time>
      </trkpt>
      <trkpt lat="48.66826" lon="2.50029">
        <ele>32.93066</ele>
        <time>2019-01-13T09:40:31Z</time>
      </trkpt>
      <trkpt lat="48.66835" lon="2.50018">
        <ele>32.888382</ele>
        <time>2019-01-13T09:40:33Z</time>
      </trkpt>
      <trkpt lat="48.66843" lon="2.50007">
        <ele>33.110332</ele>
        <time>2019-01-13T09:40:35Z</time>
      </trkpt>
      <trkpt lat="48.66851" lon="2.49997">
        <ele>33.654644</ele>
        <time>2019-01-13T09:40:37Z</time>
      </trkpt>
      <trkpt lat="48.66859" lon="2.49989">
        <ele>33.61765</ele>
        <time>2019-01-13T09:40:39Z</time>
      </trkpt>
      <trkpt lat="48.66867" lon="2.4998">
        <ele>33.44326</ele>
        <time>2019-01-13T09:40:41Z</time>
      </trkpt>
      <trkpt lat="48.66876" lon="2.49971">
        <ele>33.556877</ele>
        <time>2019-01-13T09:40:43Z</time>
      </trkpt>
      <trkpt lat="48.66883" lon="2.49962">
        <ele>33.776188</ele>
        <time>2019-01-13T09:40:45Z</time>
      </trkpt>
      <trkpt lat="48.66893" lon="2.49949">
        <ele>33.136757</ele>
        <time>2019-01-13T09:40:48Z</time>
      </trkpt>
      <trkpt lat="48.66902" lon="2.49939">
        <ele>33.51196</ele>
        <time>2019-01-13T09:40:50Z</time>
      </trkpt>
      <trkpt lat="48.6691" lon="2.49928">
        <ele>33.765617</ele>
        <time>2019-01-13T09:40:52Z</time>
      </trkpt>
      <trkpt lat="48.66917" lon="2.49919">
        <ele>33.459114</ele>
        <time>2019-01-13T09:40:54Z</time>
      </trkpt>
      <trkpt lat="48.66925" lon="2.49909">
        <ele>33.517246</ele>
        <time>2019-01-13T09:40:56Z</time>
      </trkpt>
      <trkpt lat="48.66934" lon="2.499">
        <ele>33.59123</ele>
        <time>2019-01-13T09:40:58Z</time>
      </trkpt>
      <trkpt lat="48.66942" lon="2.4989">
        <ele>33.564804</ele>
        <time>2019-01-13T09:41:00Z</time>
      </trkpt>
      <trkpt lat="48.6695" lon="2.4988">
        <ele>33.580658</ele>
        <time>2019-01-13T09:41:02Z</time>
      </trkpt>
      <trkpt lat="48.66958" lon="2.4987">
        <ele>33.562164</ele>
        <time>2019-01-13T09:41:04Z</time>
      </trkpt>
      <trkpt lat="48.66966" lon="2.49861">
        <ele>33.297935</ele>
        <time>2019-01-13T09:41:06Z</time>
      </trkpt>
      <trkpt lat="48.66974" lon="2.49852">
        <ele>33.448544</ele>
        <time>2019-01-13T09:41:08Z</time>
      </trkpt>
      <trkpt lat="48.66983" lon="2.49843">
        <ele>33.414196</ele>
        <time>2019-01-13T09:41:10Z</time>
      </trkpt>
      <trkpt lat="48.66991" lon="2.49833">
        <ele>34.154034</ele>
        <time>2019-01-13T09:41:12Z</time>
      </trkpt>
      <trkpt lat="48.67" lon="2.49824">
        <ele>34.0457</ele>
        <time>2019-01-13T09:41:14Z</time>
      </trkpt>
      <trkpt lat="48.67008" lon="2.49814">
        <ele>34.228016</ele>
        <time>2019-01-13T09:41:16Z</time>
      </trkpt>
      <trkpt lat="48.67017" lon="2.49804">
        <ele>34.08269</ele>
        <time>2019-01-13T09:41:18Z</time>
      </trkpt>
      <trkpt lat="48.67024" lon="2.49793">
        <ele>34.106472</ele>
        <time>2019-01-13T09:41:20Z</time>
      </trkpt>
      <trkpt lat="48.67033" lon="2.49781">
        <ele>34.09062</ele>
        <time>2019-01-13T09:41:22Z</time>
      </trkpt>
      <trkpt lat="48.67041" lon="2.4977">
        <ele>33.636147</ele>
        <time>2019-01-13T09:41:24Z</time>
      </trkpt>
      <trkpt lat="48.67049" lon="2.4976">
        <ele>33.50932</ele>
        <time>2019-01-13T09:41:26Z</time>
      </trkpt>
      <trkpt lat="48.67058" lon="2.4975">
        <ele>33.622936</ele>
        <time>2019-01-13T09:41:28Z</time>
      </trkpt>
      <trkpt lat="48.67065" lon="2.49741">
        <ele>33.527813</ele>
        <time>2019-01-13T09:41:30Z</time>
      </trkpt>
      <trkpt lat="48.67074" lon="2.49731">
        <ele>33.64143</ele>
        <time>2019-01-13T09:41:32Z</time>
      </trkpt>
      <trkpt lat="48.67082" lon="2.49722">
        <ele>33.881878</ele>
        <time>2019-01-13T09:41:34Z</time>
      </trkpt>
      <trkpt lat="48.67091" lon="2.49712">
        <ele>33.858097</ele>
        <time>2019-01-13T09:41:36Z</time>
      </trkpt>
      <trkpt lat="48.67099" lon="2.49701">
        <ele>34.032486</ele>
        <time>2019-01-13T09:41:38Z</time>
      </trkpt>
      <trkpt lat="48.67107" lon="2.49692">
        <ele>34.10119</ele>
        <time>2019-01-13T09:41:40Z</time>
      </trkpt>
      <trkpt lat="48.67116" lon="2.49681">
        <ele>34.18838</ele>
        <time>2019-01-13T09:41:42Z</time>
      </trkpt>
      <trkpt lat="48.67125" lon="2.49669">
        <ele>33.855457</ele>
        <time>2019-01-13T09:41:44Z</time>
      </trkpt>
      <trkpt lat="48.67134" lon="2.49658">
        <ele>33.94001</ele>
        <time>2019-01-13T09:41:46Z</time>
      </trkpt>
      <trkpt lat="48.67143" lon="2.49647">
        <ele>33.741837</ele>
        <time>2019-01-13T09:41:48Z</time>
      </trkpt>
      <trkpt lat="48.67151" lon="2.49637">
        <ele>33.57802</ele>
        <time>2019-01-13T09:41:50Z</time>
      </trkpt>
      <trkpt lat="48.6716" lon="2.49627">
        <ele>33.74448</ele>
        <time>2019-01-13T09:41:52Z</time>
      </trkpt>
      <trkpt lat="48.67169" lon="2.49615">
        <ele>33.319073</ele>
        <time>2019-01-13T09:41:54Z</time>
      </trkpt>
      <trkpt lat="48.67178" lon="2.49605">
        <ele>33.599155</ele>
        <time>2019-01-13T09:41:56Z</time>
      </trkpt>
      <trkpt lat="48.67186" lon="2.49595">
        <ele>33.493465</ele>
        <time>2019-01-13T09:41:58Z</time>
      </trkpt>
      <trkpt lat="48.67195" lon="2.49585">
        <ele>33.52517</ele>
        <time>2019-01-13T09:42:00Z</time>
      </trkpt>
      <trkpt lat="48.67203" lon="2.49575">
        <ele>33.216026</ele>
        <time>2019-01-13T09:42:03Z</time>
      </trkpt>
      <trkpt lat="48.67212" lon="2.49565">
        <ele>33.02578</ele>
        <time>2019-01-13T09:42:05Z</time>
      </trkpt>
      <trkpt lat="48.6722" lon="2.49556">
        <ele>32.99936</ele>
        <time>2019-01-13T09:42:07Z</time>
      </trkpt>
      <trkpt lat="48.67227" lon="2.49546">
        <ele>33.02578</ele>
        <time>2019-01-13T09:42:09Z</time>
      </trkpt>
      <trkpt lat="48.67235" lon="2.49537">
        <ele>32.87517</ele>
        <time>2019-01-13T09:42:11Z</time>
      </trkpt>
      <trkpt lat="48.67244" lon="2.49528">
        <ele>32.885742</ele>
        <time>2019-01-13T09:42:13Z</time>
      </trkpt>
      <trkpt lat="48.67252" lon="2.49519">
        <ele>33.131474</ele>
        <time>2019-01-13T09:42:15Z</time>
      </trkpt>
      <trkpt lat="48.67261" lon="2.49509">
        <ele>32.95708</ele>
        <time>2019-01-13T09:42:17Z</time>
      </trkpt>
      <trkpt lat="48.6727" lon="2.49501">
        <ele>33.044277</ele>
        <time>2019-01-13T09:42:19Z</time>
      </trkpt>
      <trkpt lat="48.67277" lon="2.49492">
        <ele>32.634724</ele>
        <time>2019-01-13T09:42:21Z</time>
      </trkpt>
      <trkpt lat="48.67286" lon="2.49483">
        <ele>32.542244</ele>
        <time>2019-01-13T09:42:23Z</time>
      </trkpt>
      <trkpt lat="48.67296" lon="2.49472">
        <ele>32.404846</ele>
        <time>2019-01-13T09:42:25Z</time>
      </trkpt>
      <trkpt lat="48.67304" lon="2.49461">
        <ele>32.034927</ele>
        <time>2019-01-13T09:42:27Z</time>
      </trkpt>
      <trkpt lat="48.67312" lon="2.49452">
        <ele>32.077206</ele>
        <time>2019-01-13T09:42:29Z</time>
      </trkpt>
      <trkpt lat="48.6732" lon="2.49444">
        <ele>32.04814</ele>
        <time>2019-01-13T09:42:31Z</time>
      </trkpt>
      <trkpt lat="48.67329" lon="2.49435">
        <ele>32.127407</ele>
        <time>2019-01-13T09:42:33Z</time>
      </trkpt>
      <trkpt lat="48.67337" lon="2.49426">
        <ele>32.22253</ele>
        <time>2019-01-13T09:42:35Z</time>
      </trkpt>
      <trkpt lat="48.67345" lon="2.49417">
        <ele>32.05871</ele>
        <time>2019-01-13T09:42:37Z</time>
      </trkpt>
      <trkpt lat="48.67353" lon="2.49408">
        <ele>32.346718</ele>
        <time>2019-01-13T09:42:39Z</time>
      </trkpt>
      <trkpt lat="48.6736" lon="2.49399">
        <ele>32.320293</ele>
        <time>2019-01-13T09:42:41Z</time>
      </trkpt>
      <trkpt lat="48.67371" lon="2.49385">
        <ele>32.743057</ele>
        <time>2019-01-13T09:42:44Z</time>
      </trkpt>
      <trkpt lat="48.67379" lon="2.49376">
        <ele>32.214603</ele>
        <time>2019-01-13T09:42:46Z</time>
      </trkpt>
      <trkpt lat="48.67387" lon="2.49366">
        <ele>32.19875</ele>
        <time>2019-01-13T09:42:48Z</time>
      </trkpt>
      <trkpt lat="48.67396" lon="2.49356">
        <ele>32.473545</ele>
        <time>2019-01-13T09:42:50Z</time>
      </trkpt>
      <trkpt lat="48.67403" lon="2.49345">
        <ele>32.655865</ele>
        <time>2019-01-13T09:42:52Z</time>
      </trkpt>
      <trkpt lat="48.67411" lon="2.49335">
        <ele>32.531677</ele>
        <time>2019-01-13T09:42:54Z</time>
      </trkpt>
      <trkpt lat="48.67418" lon="2.49325">
        <ele>32.399563</ele>
        <time>2019-01-13T09:42:56Z</time>
      </trkpt>
      <trkpt lat="48.67428" lon="2.49313">
        <ele>32.555458</ele>
        <time>2019-01-13T09:42:59Z</time>
      </trkpt>
      <trkpt lat="48.67438" lon="2.493">
        <ele>32.774765</ele>
        <time>2019-01-13T09:43:02Z</time>
      </trkpt>
      <trkpt lat="48.67446" lon="2.49291">
        <ele>33.216026</ele>
        <time>2019-01-13T09:43:04Z</time>
      </trkpt>
      <trkpt lat="48.67453" lon="2.49282">
        <ele>32.69814</ele>
        <time>2019-01-13T09:43:06Z</time>
      </trkpt>
      <trkpt lat="48.6746" lon="2.49272">
        <ele>32.66379</ele>
        <time>2019-01-13T09:43:08Z</time>
      </trkpt>
      <trkpt lat="48.6747" lon="2.4926">
        <ele>32.428627</ele>
        <time>2019-01-13T09:43:11Z</time>
      </trkpt>
      <trkpt lat="48.67481" lon="2.49248">
        <ele>32.24631</ele>
        <time>2019-01-13T09:43:14Z</time>
      </trkpt>
      <trkpt lat="48.67491" lon="2.49237">
        <ele>32.352</ele>
        <time>2019-01-13T09:43:17Z</time>
      </trkpt>
      <trkpt lat="48.675" lon="2.49229">
        <ele>32.034927</ele>
        <time>2019-01-13T09:43:20Z</time>
      </trkpt>
      <trkpt lat="48.6751" lon="2.49215">
        <ele>32.54753</ele>
        <time>2019-01-13T09:43:23Z</time>
      </trkpt>
      <trkpt lat="48.67519" lon="2.49205">
        <ele>32.597733</ele>
        <time>2019-01-13T09:43:25Z</time>
      </trkpt>
      <trkpt lat="48.67527" lon="2.49193">
        <ele>32.3018</ele>
        <time>2019-01-13T09:43:27Z</time>
      </trkpt>
      <trkpt lat="48.67535" lon="2.49183">
        <ele>32.217247</ele>
        <time>2019-01-13T09:43:29Z</time>
      </trkpt>
      <trkpt lat="48.67543" lon="2.49173">
        <ele>32.441837</ele>
        <time>2019-01-13T09:43:31Z</time>
      </trkpt>
      <trkpt lat="48.67553" lon="2.49162">
        <ele>32.169685</ele>
        <time>2019-01-13T09:43:34Z</time>
      </trkpt>
      <trkpt lat="48.67563" lon="2.49152">
        <ele>32.35993</ele>
        <time>2019-01-13T09:43:37Z</time>
      </trkpt>
      <trkpt lat="48.67574" lon="2.49142">
        <ele>32.478832</ele>
        <time>2019-01-13T09:43:40Z</time>
      </trkpt>
      <trkpt lat="48.67582" lon="2.49133">
        <ele>32.296513</ele>
        <time>2019-01-13T09:43:42Z</time>
      </trkpt>
      <trkpt lat="48.67592" lon="2.49119">
        <ele>32.0957</ele>
        <time>2019-01-13T09:43:45Z</time>
      </trkpt>
      <trkpt lat="48.676" lon="2.49109">
        <ele>31.881678</ele>
        <time>2019-01-13T09:43:47Z</time>
      </trkpt>
      <trkpt lat="48.6761" lon="2.49095">
        <ele>31.75749</ele>
        <time>2019-01-13T09:43:50Z</time>
      </trkpt>
      <trkpt lat="48.67618" lon="2.49086">
        <ele>31.704645</ele>
        <time>2019-01-13T09:43:53Z</time>
      </trkpt>
      <trkpt lat="48.67627" lon="2.49076">
        <ele>31.657084</ele>
        <time>2019-01-13T09:43:57Z</time>
      </trkpt>
      <trkpt lat="48.67635" lon="2.49069">
        <ele>31.622734</ele>
        <time>2019-01-13T09:44:02Z</time>
      </trkpt>
      <trkpt lat="48.67641" lon="2.49062">
        <ele>31.239605</ele>
        <time>2019-01-13T09:44:09Z</time>
      </trkpt>
      <trkpt lat="48.67641" lon="2.49062">
        <ele>31.239605</ele>
        <time>2019-01-13T09:44:09Z</time>
      </trkpt>
      <trkpt lat="48.6762" lon="2.49039">
        <ele>31.54875</ele>
        <time>2019-01-13T09:55:10Z</time>
      </trkpt>
      <trkpt lat="48.67612" lon="2.49046">
        <ele>31.173548</ele>
        <time>2019-01-13T09:55:13Z</time>
      </trkpt>
      <trkpt lat="48.67601" lon="2.49055">
        <ele>31.30566</ele>
        <time>2019-01-13T09:55:17Z</time>
      </trkpt>
      <trkpt lat="48.67592" lon="2.49063">
        <ele>30.96745</ele>
        <time>2019-01-13T09:55:20Z</time>
      </trkpt>
      <trkpt lat="48.67583" lon="2.49072">
        <ele>31.091637</ele>
        <time>2019-01-13T09:55:23Z</time>
      </trkpt>
      <trkpt lat="48.67576" lon="2.49085">
        <ele>31.099564</ele>
        <time>2019-01-13T09:55:26Z</time>
      </trkpt>
      <trkpt lat="48.67566" lon="2.49096">
        <ele>31.028223</ele>
        <time>2019-01-13T09:55:29Z</time>
      </trkpt>
      <trkpt lat="48.67556" lon="2.49108">
        <ele>31.028223</ele>
        <time>2019-01-13T09:55:32Z</time>
      </trkpt>
      <trkpt lat="48.67547" lon="2.49121">
        <ele>30.888182</ele>
        <time>2019-01-13T09:55:35Z</time>
      </trkpt>
      <trkpt lat="48.67539" lon="2.4913">
        <ele>31.062572</ele>
        <time>2019-01-13T09:55:37Z</time>
      </trkpt>
      <trkpt lat="48.67528" lon="2.49143">
        <ele>30.85119</ele>
        <time>2019-01-13T09:55:40Z</time>
      </trkpt>
      <trkpt lat="48.6752" lon="2.49151">
        <ele>30.99123</ele>
        <time>2019-01-13T09:55:42Z</time>
      </trkpt>
      <trkpt lat="48.67509" lon="2.49162">
        <ele>31.02558</ele>
        <time>2019-01-13T09:55:45Z</time>
      </trkpt>
      <trkpt lat="48.67499" lon="2.49174">
        <ele>30.927816</ele>
        <time>2019-01-13T09:55:48Z</time>
      </trkpt>
      <trkpt lat="48.67491" lon="2.49182">
        <ele>30.96745</ele>
        <time>2019-01-13T09:55:50Z</time>
      </trkpt>
      <trkpt lat="48.67483" lon="2.49191">
        <ele>30.779848</ele>
        <time>2019-01-13T09:55:52Z</time>
      </trkpt>
      <trkpt lat="48.67476" lon="2.492">
        <ele>30.719076</ele>
        <time>2019-01-13T09:55:54Z</time>
      </trkpt>
      <trkpt lat="48.67468" lon="2.49209">
        <ele>30.655663</ele>
        <time>2019-01-13T09:55:56Z</time>
      </trkpt>
      <trkpt lat="48.6746" lon="2.49219">
        <ele>30.761353</ele>
        <time>2019-01-13T09:55:58Z</time>
      </trkpt>
      <trkpt lat="48.67453" lon="2.49229">
        <ele>30.703222</ele>
        <time>2019-01-13T09:56:00Z</time>
      </trkpt>
      <trkpt lat="48.67445" lon="2.4924">
        <ele>30.8644</ele>
        <time>2019-01-13T09:56:02Z</time>
      </trkpt>
      <trkpt lat="48.67437" lon="2.4925">
        <ele>31.133913</ele>
        <time>2019-01-13T09:56:04Z</time>
      </trkpt>
      <trkpt lat="48.6743" lon="2.49259">
        <ele>30.80627</ele>
        <time>2019-01-13T09:56:06Z</time>
      </trkpt>
      <trkpt lat="48.67421" lon="2.49269">
        <ele>30.935743</ele>
        <time>2019-01-13T09:56:08Z</time>
      </trkpt>
      <trkpt lat="48.67413" lon="2.4928">
        <ele>31.099564</ele>
        <time>2019-01-13T09:56:10Z</time>
      </trkpt>
      <trkpt lat="48.67405" lon="2.49289">
        <ele>31.03615</ele>
        <time>2019-01-13T09:56:12Z</time>
      </trkpt>
      <trkpt lat="48.67395" lon="2.49303">
        <ele>30.877613</ele>
        <time>2019-01-13T09:56:15Z</time>
      </trkpt>
      <trkpt lat="48.67384" lon="2.49316">
        <ele>30.946312</ele>
        <time>2019-01-13T09:56:18Z</time>
      </trkpt>
      <trkpt lat="48.67376" lon="2.49325">
        <ele>30.61867</ele>
        <time>2019-01-13T09:56:20Z</time>
      </trkpt>
      <trkpt lat="48.67367" lon="2.49334">
        <ele>30.70058</ele>
        <time>2019-01-13T09:56:22Z</time>
      </trkpt>
      <trkpt lat="48.67358" lon="2.49343">
        <ele>30.6768</ele>
        <time>2019-01-13T09:56:24Z</time>
      </trkpt>
      <trkpt lat="48.6735" lon="2.49351">
        <ele>30.6768</ele>
        <time>2019-01-13T09:56:26Z</time>
      </trkpt>
      <trkpt lat="48.67342" lon="2.4936">
        <ele>30.438995</ele>
        <time>2019-01-13T09:56:28Z</time>
      </trkpt>
      <trkpt lat="48.67334" lon="2.49368">
        <ele>30.542044</ele>
        <time>2019-01-13T09:56:30Z</time>
      </trkpt>
      <trkpt lat="48.67325" lon="2.49379">
        <ele>30.58432</ele>
        <time>2019-01-13T09:56:32Z</time>
      </trkpt>
      <trkpt lat="48.67317" lon="2.49389">
        <ele>30.576393</ele>
        <time>2019-01-13T09:56:34Z</time>
      </trkpt>
      <trkpt lat="48.67308" lon="2.49399">
        <ele>30.534117</ele>
        <time>2019-01-13T09:56:36Z</time>
      </trkpt>
      <trkpt lat="48.673" lon="2.49409">
        <ele>30.452208</ele>
        <time>2019-01-13T09:56:38Z</time>
      </trkpt>
      <trkpt lat="48.67291" lon="2.49419">
        <ele>30.777206</ele>
        <time>2019-01-13T09:56:40Z</time>
      </trkpt>
      <trkpt lat="48.67283" lon="2.49428">
        <ele>30.869686</ele>
        <time>2019-01-13T09:56:42Z</time>
      </trkpt>
      <trkpt lat="48.67275" lon="2.49438">
        <ele>30.822124</ele>
        <time>2019-01-13T09:56:44Z</time>
      </trkpt>
      <trkpt lat="48.67267" lon="2.49447">
        <ele>30.740215</ele>
        <time>2019-01-13T09:56:46Z</time>
      </trkpt>
      <trkpt lat="48.67256" lon="2.49459">
        <ele>30.528833</ele>
        <time>2019-01-13T09:56:49Z</time>
      </trkpt>
      <trkpt lat="48.67248" lon="2.49469">
        <ele>30.763994</ele>
        <time>2019-01-13T09:56:51Z</time>
      </trkpt>
      <trkpt lat="48.67238" lon="2.49478">
        <ele>31.411352</ele>
        <time>2019-01-13T09:56:53Z</time>
      </trkpt>
      <trkpt lat="48.67228" lon="2.49487">
        <ele>31.427206</ele>
        <time>2019-01-13T09:56:55Z</time>
      </trkpt>
      <trkpt lat="48.6722" lon="2.49498">
        <ele>31.604239</ele>
        <time>2019-01-13T09:56:57Z</time>
      </trkpt>
      <trkpt lat="48.67212" lon="2.49508">
        <ele>31.620092</ele>
        <time>2019-01-13T09:56:59Z</time>
      </trkpt>
      <trkpt lat="48.67203" lon="2.49518">
        <ele>31.683506</ele>
        <time>2019-01-13T09:57:01Z</time>
      </trkpt>
      <trkpt lat="48.67194" lon="2.49528">
        <ele>31.868465</ele>
        <time>2019-01-13T09:57:03Z</time>
      </trkpt>
      <trkpt lat="48.67186" lon="2.49538">
        <ele>32.330864</ele>
        <time>2019-01-13T09:57:05Z</time>
      </trkpt>
      <trkpt lat="48.67178" lon="2.49548">
        <ele>31.281881</ele>
        <time>2019-01-13T09:57:07Z</time>
      </trkpt>
      <trkpt lat="48.6717" lon="2.49559">
        <ele>31.30566</ele>
        <time>2019-01-13T09:57:09Z</time>
      </trkpt>
      <trkpt lat="48.67161" lon="2.4957">
        <ele>31.42192</ele>
        <time>2019-01-13T09:57:11Z</time>
      </trkpt>
      <trkpt lat="48.67153" lon="2.4958">
        <ele>31.604239</ele>
        <time>2019-01-13T09:57:13Z</time>
      </trkpt>
      <trkpt lat="48.67144" lon="2.49591">
        <ele>31.683506</ele>
        <time>2019-01-13T09:57:15Z</time>
      </trkpt>
      <trkpt lat="48.67136" lon="2.49602">
        <ele>31.62802</ele>
        <time>2019-01-13T09:57:17Z</time>
      </trkpt>
      <trkpt lat="48.67128" lon="2.49614">
        <ele>31.968872</ele>
        <time>2019-01-13T09:57:19Z</time>
      </trkpt>
      <trkpt lat="48.67121" lon="2.49625">
        <ele>32.283302</ele>
        <time>2019-01-13T09:57:21Z</time>
      </trkpt>
      <trkpt lat="48.67113" lon="2.49636">
        <ele>31.540823</ele>
        <time>2019-01-13T09:57:23Z</time>
      </trkpt>
      <trkpt lat="48.67104" lon="2.49643">
        <ele>31.509117</ele>
        <time>2019-01-13T09:57:25Z</time>
      </trkpt>
      <trkpt lat="48.67096" lon="2.49654">
        <ele>31.369076</ele>
        <time>2019-01-13T09:57:27Z</time>
      </trkpt>
      <trkpt lat="48.67087" lon="2.49664">
        <ele>31.52497</ele>
        <time>2019-01-13T09:57:29Z</time>
      </trkpt>
      <trkpt lat="48.67078" lon="2.49668">
        <ele>31.38493</ele>
        <time>2019-01-13T09:57:31Z</time>
      </trkpt>
      <trkpt lat="48.67069" lon="2.49675">
        <ele>31.289808</ele>
        <time>2019-01-13T09:57:33Z</time>
      </trkpt>
      <trkpt lat="48.67062" lon="2.49685">
        <ele>31.279238</ele>
        <time>2019-01-13T09:57:35Z</time>
      </trkpt>
      <trkpt lat="48.67054" lon="2.49696">
        <ele>31.149767</ele>
        <time>2019-01-13T09:57:37Z</time>
      </trkpt>
      <trkpt lat="48.67044" lon="2.49707">
        <ele>31.392857</ele>
        <time>2019-01-13T09:57:39Z</time>
      </trkpt>
      <trkpt lat="48.67036" lon="2.49717">
        <ele>31.75749</ele>
        <time>2019-01-13T09:57:41Z</time>
      </trkpt>
      <trkpt lat="48.67027" lon="2.49729">
        <ele>31.744278</ele>
        <time>2019-01-13T09:57:43Z</time>
      </trkpt>
      <trkpt lat="48.6702" lon="2.49741">
        <ele>31.749563</ele>
        <time>2019-01-13T09:57:45Z</time>
      </trkpt>
      <trkpt lat="48.67012" lon="2.49755">
        <ele>31.453629</ele>
        <time>2019-01-13T09:57:47Z</time>
      </trkpt>
      <trkpt lat="48.67004" lon="2.49764">
        <ele>31.94245</ele>
        <time>2019-01-13T09:57:49Z</time>
      </trkpt>
      <trkpt lat="48.66995" lon="2.49775">
        <ele>31.894888</ele>
        <time>2019-01-13T09:57:51Z</time>
      </trkpt>
      <trkpt lat="48.66987" lon="2.49784">
        <ele>32.008507</ele>
        <time>2019-01-13T09:57:53Z</time>
      </trkpt>
      <trkpt lat="48.66979" lon="2.49793">
        <ele>32.219887</ele>
        <time>2019-01-13T09:57:55Z</time>
      </trkpt>
      <trkpt lat="48.6697" lon="2.49802">
        <ele>32.087776</ele>
        <time>2019-01-13T09:57:57Z</time>
      </trkpt>
      <trkpt lat="48.66961" lon="2.49811">
        <ele>31.826189</ele>
        <time>2019-01-13T09:57:59Z</time>
      </trkpt>
      <trkpt lat="48.66953" lon="2.4982">
        <ele>31.886961</ele>
        <time>2019-01-13T09:58:01Z</time>
      </trkpt>
      <trkpt lat="48.66945" lon="2.49828">
        <ele>31.546108</ele>
        <time>2019-01-13T09:58:03Z</time>
      </trkpt>
      <trkpt lat="48.66937" lon="2.49838">
        <ele>31.485336</ele>
        <time>2019-01-13T09:58:05Z</time>
      </trkpt>
      <trkpt lat="48.66928" lon="2.49847">
        <ele>31.355864</ele>
        <time>2019-01-13T09:58:07Z</time>
      </trkpt>
      <trkpt lat="48.66918" lon="2.49856">
        <ele>31.667652</ele>
        <time>2019-01-13T09:58:09Z</time>
      </trkpt>
      <trkpt lat="48.66909" lon="2.49865">
        <ele>31.823547</ele>
        <time>2019-01-13T09:58:11Z</time>
      </trkpt>
      <trkpt lat="48.66899" lon="2.49875">
        <ele>31.672937</ele>
        <time>2019-01-13T09:58:13Z</time>
      </trkpt>
      <trkpt lat="48.6689" lon="2.49885">
        <ele>31.794481</ele>
        <time>2019-01-13T09:58:15Z</time>
      </trkpt>
      <trkpt lat="48.66881" lon="2.49894">
        <ele>31.725782</ele>
        <time>2019-01-13T09:58:17Z</time>
      </trkpt>
      <trkpt lat="48.66873" lon="2.49905">
        <ele>31.923954</ele>
        <time>2019-01-13T09:58:19Z</time>
      </trkpt>
      <trkpt lat="48.66865" lon="2.49914">
        <ele>31.688791</ele>
        <time>2019-01-13T09:58:21Z</time>
      </trkpt>
      <trkpt lat="48.66856" lon="2.49925">
        <ele>32.06135</ele>
        <time>2019-01-13T09:58:23Z</time>
      </trkpt>
      <trkpt lat="48.66848" lon="2.49937">
        <ele>32.196106</ele>
        <time>2019-01-13T09:58:25Z</time>
      </trkpt>
      <trkpt lat="48.66839" lon="2.49947">
        <ele>31.886961</ele>
        <time>2019-01-13T09:58:27Z</time>
      </trkpt>
      <trkpt lat="48.66831" lon="2.49958">
        <ele>31.445702</ele>
        <time>2019-01-13T09:58:29Z</time>
      </trkpt>
      <trkpt lat="48.66824" lon="2.49969">
        <ele>31.369076</ele>
        <time>2019-01-13T09:58:31Z</time>
      </trkpt>
      <trkpt lat="48.66816" lon="2.49982">
        <ele>31.324158</ele>
        <time>2019-01-13T09:58:33Z</time>
      </trkpt>
      <trkpt lat="48.66808" lon="2.49993">
        <ele>31.453629</ele>
        <time>2019-01-13T09:58:35Z</time>
      </trkpt>
      <trkpt lat="48.66798" lon="2.50003">
        <ele>31.334726</ele>
        <time>2019-01-13T09:58:37Z</time>
      </trkpt>
      <trkpt lat="48.66789" lon="2.50014">
        <ele>31.551394</ele>
        <time>2019-01-13T09:58:39Z</time>
      </trkpt>
      <trkpt lat="48.66782" lon="2.50026">
        <ele>31.424564</ele>
        <time>2019-01-13T09:58:41Z</time>
      </trkpt>
      <trkpt lat="48.66775" lon="2.50038">
        <ele>31.538181</ele>
        <time>2019-01-13T09:58:43Z</time>
      </trkpt>
      <trkpt lat="48.66767" lon="2.5005">
        <ele>31.72314</ele>
        <time>2019-01-13T09:58:45Z</time>
      </trkpt>
      <trkpt lat="48.66758" lon="2.50058">
        <ele>31.517044</ele>
        <time>2019-01-13T09:58:47Z</time>
      </trkpt>
      <trkpt lat="48.66748" lon="2.50067">
        <ele>31.540823</ele>
        <time>2019-01-13T09:58:49Z</time>
      </trkpt>
      <trkpt lat="48.66739" lon="2.50078">
        <ele>31.57253</ele>
        <time>2019-01-13T09:58:51Z</time>
      </trkpt>
      <trkpt lat="48.6673" lon="2.50088">
        <ele>31.812977</ele>
        <time>2019-01-13T09:58:53Z</time>
      </trkpt>
      <trkpt lat="48.66721" lon="2.50098">
        <ele>31.910742</ele>
        <time>2019-01-13T09:58:55Z</time>
      </trkpt>
      <trkpt lat="48.66714" lon="2.50108">
        <ele>31.900173</ele>
        <time>2019-01-13T09:58:57Z</time>
      </trkpt>
      <trkpt lat="48.66705" lon="2.50117">
        <ele>31.744278</ele>
        <time>2019-01-13T09:58:59Z</time>
      </trkpt>
      <trkpt lat="48.66696" lon="2.50126">
        <ele>31.601597</ele>
        <time>2019-01-13T09:59:01Z</time>
      </trkpt>
      <trkpt lat="48.66688" lon="2.50134">
        <ele>31.538181</ele>
        <time>2019-01-13T09:59:03Z</time>
      </trkpt>
      <trkpt lat="48.66679" lon="2.50143">
        <ele>31.538181</ele>
        <time>2019-01-13T09:59:05Z</time>
      </trkpt>
      <trkpt lat="48.6667" lon="2.50154">
        <ele>31.40871</ele>
        <time>2019-01-13T09:59:07Z</time>
      </trkpt>
      <trkpt lat="48.6666" lon="2.50163">
        <ele>31.437775</ele>
        <time>2019-01-13T09:59:09Z</time>
      </trkpt>
      <trkpt lat="48.66652" lon="2.50174">
        <ele>31.69936</ele>
        <time>2019-01-13T09:59:11Z</time>
      </trkpt>
      <trkpt lat="48.66643" lon="2.50185">
        <ele>31.738995</ele>
        <time>2019-01-13T09:59:13Z</time>
      </trkpt>
      <trkpt lat="48.6663" lon="2.50201">
        <ele>31.59367</ele>
        <time>2019-01-13T09:59:15Z</time>
      </trkpt>
      <trkpt lat="48.66622" lon="2.50213">
        <ele>31.355864</ele>
        <time>2019-01-13T09:59:17Z</time>
      </trkpt>
      <trkpt lat="48.66614" lon="2.50226">
        <ele>31.495905</ele>
        <time>2019-01-13T09:59:19Z</time>
      </trkpt>
      <trkpt lat="48.66606" lon="2.50237">
        <ele>31.688791</ele>
        <time>2019-01-13T09:59:21Z</time>
      </trkpt>
      <trkpt lat="48.66598" lon="2.50248">
        <ele>31.41928</ele>
        <time>2019-01-13T09:59:23Z</time>
      </trkpt>
      <trkpt lat="48.66589" lon="2.50258">
        <ele>31.47741</ele>
        <time>2019-01-13T09:59:25Z</time>
      </trkpt>
      <trkpt lat="48.66581" lon="2.50269">
        <ele>31.123344</ele>
        <time>2019-01-13T09:59:27Z</time>
      </trkpt>
      <trkpt lat="48.66572" lon="2.5028">
        <ele>30.964808</ele>
        <time>2019-01-13T09:59:29Z</time>
      </trkpt>
      <trkpt lat="48.66563" lon="2.5029">
        <ele>31.16298</ele>
        <time>2019-01-13T09:59:31Z</time>
      </trkpt>
      <trkpt lat="48.66554" lon="2.50299">
        <ele>31.12863</ele>
        <time>2019-01-13T09:59:33Z</time>
      </trkpt>
      <trkpt lat="48.66546" lon="2.50311">
        <ele>31.181475</ele>
        <time>2019-01-13T09:59:35Z</time>
      </trkpt>
      <trkpt lat="48.66537" lon="2.50321">
        <ele>31.01501</ele>
        <time>2019-01-13T09:59:37Z</time>
      </trkpt>
      <trkpt lat="48.66528" lon="2.50332">
        <ele>30.959524</ele>
        <time>2019-01-13T09:59:40Z</time>
      </trkpt>
      <trkpt lat="48.66519" lon="2.5034">
        <ele>30.985947</ele>
        <time>2019-01-13T09:59:42Z</time>
      </trkpt>
      <trkpt lat="48.6651" lon="2.50349">
        <ele>31.102205</ele>
        <time>2019-01-13T09:59:44Z</time>
      </trkpt>
      <trkpt lat="48.66501" lon="2.50359">
        <ele>30.761353</ele>
        <time>2019-01-13T09:59:46Z</time>
      </trkpt>
      <trkpt lat="48.66494" lon="2.5037">
        <ele>30.671516</ele>
        <time>2019-01-13T09:59:48Z</time>
      </trkpt>
      <trkpt lat="48.66485" lon="2.50379">
        <ele>30.732288</ele>
        <time>2019-01-13T09:59:50Z</time>
      </trkpt>
      <trkpt lat="48.66476" lon="2.50389">
        <ele>30.946312</ele>
        <time>2019-01-13T09:59:52Z</time>
      </trkpt>
      <trkpt lat="48.66468" lon="2.50399">
        <ele>31.057287</ele>
        <time>2019-01-13T09:59:54Z</time>
      </trkpt>
      <trkpt lat="48.66459" lon="2.50409">
        <ele>31.110132</ele>
        <time>2019-01-13T09:59:56Z</time>
      </trkpt>
      <trkpt lat="48.6645" lon="2.50417">
        <ele>30.954239</ele>
        <time>2019-01-13T09:59:58Z</time>
      </trkpt>
      <trkpt lat="48.66441" lon="2.50427">
        <ele>31.115417</ele>
        <time>2019-01-13T10:00:00Z</time>
      </trkpt>
      <trkpt lat="48.66431" lon="2.50436">
        <ele>31.347939</ele>
        <time>2019-01-13T10:00:02Z</time>
      </trkpt>
      <trkpt lat="48.66422" lon="2.50448">
        <ele>31.017653</ele>
        <time>2019-01-13T10:00:03Z</time>
      </trkpt>
      <trkpt lat="48.66408" lon="2.50461">
        <ele>31.390213</ele>
        <time>2019-01-13T10:00:06Z</time>
      </trkpt>
      <trkpt lat="48.66399" lon="2.5047">
        <ele>31.250174</ele>
        <time>2019-01-13T10:00:08Z</time>
      </trkpt>
      <trkpt lat="48.66391" lon="2.50482">
        <ele>31.096922</ele>
        <time>2019-01-13T10:00:10Z</time>
      </trkpt>
      <trkpt lat="48.66383" lon="2.50493">
        <ele>31.086353</ele>
        <time>2019-01-13T10:00:12Z</time>
      </trkpt>
      <trkpt lat="48.66375" lon="2.50503">
        <ele>31.081068</ele>
        <time>2019-01-13T10:00:14Z</time>
      </trkpt>
      <trkpt lat="48.66367" lon="2.50513">
        <ele>30.822124</ele>
        <time>2019-01-13T10:00:16Z</time>
      </trkpt>
      <trkpt lat="48.66359" lon="2.50524">
        <ele>30.79306</ele>
        <time>2019-01-13T10:00:18Z</time>
      </trkpt>
      <trkpt lat="48.66351" lon="2.50534">
        <ele>30.779848</ele>
        <time>2019-01-13T10:00:20Z</time>
      </trkpt>
      <trkpt lat="48.66343" lon="2.50544">
        <ele>30.682085</ele>
        <time>2019-01-13T10:00:22Z</time>
      </trkpt>
      <trkpt lat="48.66335" lon="2.50553">
        <ele>30.79306</ele>
        <time>2019-01-13T10:00:24Z</time>
      </trkpt>
      <trkpt lat="48.66325" lon="2.50566">
        <ele>30.531475</ele>
        <time>2019-01-13T10:00:27Z</time>
      </trkpt>
      <trkpt lat="48.66319" lon="2.50576">
        <ele>30.695295</ele>
        <time>2019-01-13T10:00:29Z</time>
      </trkpt>
      <trkpt lat="48.66311" lon="2.50585">
        <ele>30.86176</ele>
        <time>2019-01-13T10:00:31Z</time>
      </trkpt>
      <trkpt lat="48.66301" lon="2.50596">
        <ele>31.345295</ele>
        <time>2019-01-13T10:00:33Z</time>
      </trkpt>
      <trkpt lat="48.6629" lon="2.50607">
        <ele>31.551394</ele>
        <time>2019-01-13T10:00:35Z</time>
      </trkpt>
      <trkpt lat="48.66281" lon="2.5062">
        <ele>30.985947</ele>
        <time>2019-01-13T10:00:37Z</time>
      </trkpt>
      <trkpt lat="48.66272" lon="2.5063">
        <ele>30.96745</ele>
        <time>2019-01-13T10:00:39Z</time>
      </trkpt>
      <trkpt lat="48.66263" lon="2.50641">
        <ele>30.859118</ele>
        <time>2019-01-13T10:00:41Z</time>
      </trkpt>
      <trkpt lat="48.66255" lon="2.50652">
        <ele>30.948954</ele>
        <time>2019-01-13T10:00:43Z</time>
      </trkpt>
      <trkpt lat="48.66246" lon="2.50663">
        <ele>31.046719</ele>
        <time>2019-01-13T10:00:45Z</time>
      </trkpt>
      <trkpt lat="48.66238" lon="2.50677">
        <ele>30.785133</ele>
        <time>2019-01-13T10:00:47Z</time>
      </trkpt>
      <trkpt lat="48.6623" lon="2.50689">
        <ele>30.845905</ele>
        <time>2019-01-13T10:00:49Z</time>
      </trkpt>
      <trkpt lat="48.66222" lon="2.507">
        <ele>30.671516</ele>
        <time>2019-01-13T10:00:51Z</time>
      </trkpt>
      <trkpt lat="48.66213" lon="2.5071">
        <ele>30.298954</ele>
        <time>2019-01-13T10:00:53Z</time>
      </trkpt>
      <trkpt lat="48.66203" lon="2.5072">
        <ele>30.37558</ele>
        <time>2019-01-13T10:00:56Z</time>
      </trkpt>
      <trkpt lat="48.66195" lon="2.50731">
        <ele>30.52619</ele>
        <time>2019-01-13T10:00:58Z</time>
      </trkpt>
      <trkpt lat="48.66185" lon="2.50741">
        <ele>30.766638</ele>
        <time>2019-01-13T10:01:00Z</time>
      </trkpt>
      <trkpt lat="48.66175" lon="2.50752">
        <ele>30.581678</ele>
        <time>2019-01-13T10:01:02Z</time>
      </trkpt>
      <trkpt lat="48.66161" lon="2.50767">
        <ele>30.425783</ele>
        <time>2019-01-13T10:01:04Z</time>
      </trkpt>
      <trkpt lat="48.66152" lon="2.50778">
        <ele>30.438995</ele>
        <time>2019-01-13T10:01:06Z</time>
      </trkpt>
      <trkpt lat="48.66144" lon="2.5079">
        <ele>30.396719</ele>
        <time>2019-01-13T10:01:08Z</time>
      </trkpt>
      <trkpt lat="48.66134" lon="2.50802">
        <ele>30.639809</ele>
        <time>2019-01-13T10:01:10Z</time>
      </trkpt>
      <trkpt lat="48.66125" lon="2.50815">
        <ele>30.449564</ele>
        <time>2019-01-13T10:01:12Z</time>
      </trkpt>
      <trkpt lat="48.66117" lon="2.50826">
        <ele>30.277817</ele>
        <time>2019-01-13T10:01:14Z</time>
      </trkpt>
      <trkpt lat="48.66107" lon="2.50835">
        <ele>30.267248</ele>
        <time>2019-01-13T10:01:16Z</time>
      </trkpt>
      <trkpt lat="48.66099" lon="2.50846">
        <ele>30.11928</ele>
        <time>2019-01-13T10:01:18Z</time>
      </trkpt>
      <trkpt lat="48.6609" lon="2.50856">
        <ele>30.26989</ele>
        <time>2019-01-13T10:01:20Z</time>
      </trkpt>
      <trkpt lat="48.66081" lon="2.50867">
        <ele>30.148346</ele>
        <time>2019-01-13T10:01:22Z</time>
      </trkpt>
      <trkpt lat="48.66072" lon="2.50878">
        <ele>30.042654</ele>
        <time>2019-01-13T10:01:24Z</time>
      </trkpt>
      <trkpt lat="48.66063" lon="2.50889">
        <ele>30.542044</ele>
        <time>2019-01-13T10:01:26Z</time>
      </trkpt>
      <trkpt lat="48.66054" lon="2.50901">
        <ele>30.349157</ele>
        <time>2019-01-13T10:01:28Z</time>
      </trkpt>
      <trkpt lat="48.66045" lon="2.50912">
        <ele>30.510336</ele>
        <time>2019-01-13T10:01:30Z</time>
      </trkpt>
      <trkpt lat="48.66035" lon="2.50923">
        <ele>30.840622</ele>
        <time>2019-01-13T10:01:32Z</time>
      </trkpt>
      <trkpt lat="48.66027" lon="2.50934">
        <ele>30.948954</ele>
        <time>2019-01-13T10:01:34Z</time>
      </trkpt>
      <trkpt lat="48.66018" lon="2.50943">
        <ele>30.581678</ele>
        <time>2019-01-13T10:01:36Z</time>
      </trkpt>
      <trkpt lat="48.66008" lon="2.50952">
        <ele>30.856474</ele>
        <time>2019-01-13T10:01:38Z</time>
      </trkpt>
      <trkpt lat="48.66" lon="2.50961">
        <ele>30.843264</ele>
        <time>2019-01-13T10:01:40Z</time>
      </trkpt>
      <trkpt lat="48.65991" lon="2.5097">
        <ele>31.03615</ele>
        <time>2019-01-13T10:01:42Z</time>
      </trkpt>
      <trkpt lat="48.65984" lon="2.5098">
        <ele>30.795702</ele>
        <time>2019-01-13T10:01:44Z</time>
      </trkpt>
      <trkpt lat="48.65973" lon="2.50995">
        <ele>30.542044</ele>
        <time>2019-01-13T10:01:47Z</time>
      </trkpt>
      <trkpt lat="48.65965" lon="2.51006">
        <ele>30.64245</ele>
        <time>2019-01-13T10:01:49Z</time>
      </trkpt>
      <trkpt lat="48.65957" lon="2.51016">
        <ele>30.9331</ele>
        <time>2019-01-13T10:01:51Z</time>
      </trkpt>
      <trkpt lat="48.65948" lon="2.51026">
        <ele>31.007084</ele>
        <time>2019-01-13T10:01:53Z</time>
      </trkpt>
      <trkpt lat="48.65939" lon="2.51038">
        <ele>31.004442</ele>
        <time>2019-01-13T10:01:55Z</time>
      </trkpt>
      <trkpt lat="48.65932" lon="2.51048">
        <ele>30.753426</ele>
        <time>2019-01-13T10:01:57Z</time>
      </trkpt>
      <trkpt lat="48.65925" lon="2.51059">
        <ele>30.925175</ele>
        <time>2019-01-13T10:01:59Z</time>
      </trkpt>
      <trkpt lat="48.65916" lon="2.51071">
        <ele>31.255459</ele>
        <time>2019-01-13T10:02:01Z</time>
      </trkpt>
      <trkpt lat="48.65907" lon="2.51079">
        <ele>31.173548</ele>
        <time>2019-01-13T10:02:03Z</time>
      </trkpt>
      <trkpt lat="48.65897" lon="2.51088">
        <ele>31.247532</ele>
        <time>2019-01-13T10:02:05Z</time>
      </trkpt>
      <trkpt lat="48.65889" lon="2.51096">
        <ele>31.057287</ele>
        <time>2019-01-13T10:02:08Z</time>
      </trkpt>
      <trkpt lat="48.65883" lon="2.51106">
        <ele>30.927816</ele>
        <time>2019-01-13T10:02:10Z</time>
      </trkpt>
      <trkpt lat="48.65872" lon="2.51118">
        <ele>30.803629</ele>
        <time>2019-01-13T10:02:13Z</time>
      </trkpt>
      <trkpt lat="48.65862" lon="2.51127">
        <ele>31.02558</ele>
        <time>2019-01-13T10:02:15Z</time>
      </trkpt>
      <trkpt lat="48.65853" lon="2.51138">
        <ele>31.332085</ele>
        <time>2019-01-13T10:02:17Z</time>
      </trkpt>
      <trkpt lat="48.65846" lon="2.51147">
        <ele>31.59367</ele>
        <time>2019-01-13T10:02:19Z</time>
      </trkpt>
      <trkpt lat="48.65835" lon="2.51153">
        <ele>31.577816</ele>
        <time>2019-01-13T10:02:22Z</time>
      </trkpt>
      <trkpt lat="48.65824" lon="2.51155">
        <ele>31.458914</ele>
        <time>2019-01-13T10:02:25Z</time>
      </trkpt>
      <trkpt lat="48.65813" lon="2.51161">
        <ele>30.832695</ele>
        <time>2019-01-13T10:02:27Z</time>
      </trkpt>
      <trkpt lat="48.65803" lon="2.51174">
        <ele>30.86176</ele>
        <time>2019-01-13T10:02:30Z</time>
      </trkpt>
      <trkpt lat="48.65799" lon="2.51187">
        <ele>30.814198</ele>
        <time>2019-01-13T10:02:32Z</time>
      </trkpt>
      <trkpt lat="48.65794" lon="2.512">
        <ele>30.86176</ele>
        <time>2019-01-13T10:02:34Z</time>
      </trkpt>
      <trkpt lat="48.65786" lon="2.51215">
        <ele>30.983303</ele>
        <time>2019-01-13T10:02:37Z</time>
      </trkpt>
      <trkpt lat="48.6578" lon="2.51225">
        <ele>31.062572</ele>
        <time>2019-01-13T10:02:39Z</time>
      </trkpt>
      <trkpt lat="48.6577" lon="2.51238">
        <ele>31.01237</ele>
        <time>2019-01-13T10:02:42Z</time>
      </trkpt>
      <trkpt lat="48.65763" lon="2.51248">
        <ele>30.94367</ele>
        <time>2019-01-13T10:02:45Z</time>
      </trkpt>
      <trkpt lat="48.65757" lon="2.5126">
        <ele>31.054646</ele>
        <time>2019-01-13T10:02:50Z</time>
      </trkpt>
      <trkpt lat="48.65757" lon="2.51262">
        <ele>31.192043</ele>
        <time>2019-01-13T10:02:54Z</time>
      </trkpt>
      <trkpt lat="48.65757" lon="2.51262">
        <ele>31.192043</ele>
        <time>2019-01-13T10:02:54Z</time>
      </trkpt>
      <trkpt lat="48.65743" lon="2.51276">
        <ele>29.989809</ele>
        <time>2019-01-13T10:03:09Z</time>
      </trkpt>
      <trkpt lat="48.65737" lon="2.51287">
        <ele>30.148346</ele>
        <time>2019-01-13T10:03:11Z</time>
      </trkpt>
      <trkpt lat="48.65728" lon="2.513">
        <ele>30.346516</ele>
        <time>2019-01-13T10:03:14Z</time>
      </trkpt>
      <trkpt lat="48.65722" lon="2.51311">
        <ele>30.261963</ele>
        <time>2019-01-13T10:03:16Z</time>
      </trkpt>
      <trkpt lat="48.65714" lon="2.51321">
        <ele>29.942247</ele>
        <time>2019-01-13T10:03:18Z</time>
      </trkpt>
      <trkpt lat="48.65705" lon="2.51331">
        <ele>29.902615</ele>
        <time>2019-01-13T10:03:20Z</time>
      </trkpt>
      <trkpt lat="48.65698" lon="2.51341">
        <ele>29.910542</ele>
        <time>2019-01-13T10:03:22Z</time>
      </trkpt>
      <trkpt lat="48.6569" lon="2.51349">
        <ele>30.195906</ele>
        <time>2019-01-13T10:03:24Z</time>
      </trkpt>
      <trkpt lat="48.65679" lon="2.51358">
        <ele>29.794281</ele>
        <time>2019-01-13T10:03:26Z</time>
      </trkpt>
      <trkpt lat="48.65671" lon="2.51367">
        <ele>29.86298</ele>
        <time>2019-01-13T10:03:28Z</time>
      </trkpt>
      <trkpt lat="48.65662" lon="2.51376">
        <ele>29.926394</ele>
        <time>2019-01-13T10:03:30Z</time>
      </trkpt>
      <trkpt lat="48.65654" lon="2.51386">
        <ele>29.910542</ele>
        <time>2019-01-13T10:03:32Z</time>
      </trkpt>
      <trkpt lat="48.65645" lon="2.51397">
        <ele>29.93432</ele>
        <time>2019-01-13T10:03:34Z</time>
      </trkpt>
      <trkpt lat="48.65637" lon="2.51407">
        <ele>30.230255</ele>
        <time>2019-01-13T10:03:36Z</time>
      </trkpt>
      <trkpt lat="48.65628" lon="2.51418">
        <ele>30.547329</ele>
        <time>2019-01-13T10:03:38Z</time>
      </trkpt>
      <trkpt lat="48.65619" lon="2.51429">
        <ele>30.904036</ele>
        <time>2019-01-13T10:03:40Z</time>
      </trkpt>
      <trkpt lat="48.65612" lon="2.5144">
        <ele>30.82741</ele>
        <time>2019-01-13T10:03:42Z</time>
      </trkpt>
      <trkpt lat="48.65604" lon="2.51449">
        <ele>31.173548</ele>
        <time>2019-01-13T10:03:44Z</time>
      </trkpt>
      <trkpt lat="48.65596" lon="2.51459">
        <ele>31.10749</ele>
        <time>2019-01-13T10:03:46Z</time>
      </trkpt>
      <trkpt lat="48.65587" lon="2.5147">
        <ele>30.845905</ele>
        <time>2019-01-13T10:03:48Z</time>
      </trkpt>
      <trkpt lat="48.65578" lon="2.5148">
        <ele>30.80627</ele>
        <time>2019-01-13T10:03:50Z</time>
      </trkpt>
      <trkpt lat="48.6557" lon="2.51488">
        <ele>30.777206</ele>
        <time>2019-01-13T10:03:52Z</time>
      </trkpt>
      <trkpt lat="48.65561" lon="2.51496">
        <ele>30.787775</ele>
        <time>2019-01-13T10:03:54Z</time>
      </trkpt>
      <trkpt lat="48.65551" lon="2.51505">
        <ele>30.798344</ele>
        <time>2019-01-13T10:03:56Z</time>
      </trkpt>
      <trkpt lat="48.6554" lon="2.51513">
        <ele>30.816841</ele>
        <time>2019-01-13T10:03:58Z</time>
      </trkpt>
      <trkpt lat="48.65531" lon="2.51522">
        <ele>30.869686</ele>
        <time>2019-01-13T10:04:00Z</time>
      </trkpt>
      <trkpt lat="48.65522" lon="2.51531">
        <ele>31.247532</ele>
        <time>2019-01-13T10:04:02Z</time>
      </trkpt>
      <trkpt lat="48.65514" lon="2.51541">
        <ele>31.297735</ele>
        <time>2019-01-13T10:04:04Z</time>
      </trkpt>
      <trkpt lat="48.65504" lon="2.5155">
        <ele>31.059929</ele>
        <time>2019-01-13T10:04:06Z</time>
      </trkpt>
      <trkpt lat="48.65495" lon="2.51561">
        <ele>31.110132</ele>
        <time>2019-01-13T10:04:08Z</time>
      </trkpt>
      <trkpt lat="48.65486" lon="2.51572">
        <ele>30.96745</ele>
        <time>2019-01-13T10:04:10Z</time>
      </trkpt>
      <trkpt lat="48.65477" lon="2.51581">
        <ele>31.115417</ele>
        <time>2019-01-13T10:04:12Z</time>
      </trkpt>
      <trkpt lat="48.65467" lon="2.51591">
        <ele>30.803629</ele>
        <time>2019-01-13T10:04:14Z</time>
      </trkpt>
      <trkpt lat="48.65458" lon="2.51602">
        <ele>30.890823</ele>
        <time>2019-01-13T10:04:16Z</time>
      </trkpt>
      <trkpt lat="48.65449" lon="2.51614">
        <ele>30.674158</ele>
        <time>2019-01-13T10:04:18Z</time>
      </trkpt>
      <trkpt lat="48.6544" lon="2.51624">
        <ele>30.650377</ele>
        <time>2019-01-13T10:04:20Z</time>
      </trkpt>
      <trkpt lat="48.65431" lon="2.51635">
        <ele>30.71115</ele>
        <time>2019-01-13T10:04:22Z</time>
      </trkpt>
      <trkpt lat="48.65421" lon="2.51644">
        <ele>30.917248</ele>
        <time>2019-01-13T10:04:24Z</time>
      </trkpt>
      <trkpt lat="48.65413" lon="2.51654">
        <ele>31.0018</ele>
        <time>2019-01-13T10:04:26Z</time>
      </trkpt>
      <trkpt lat="48.65404" lon="2.51663">
        <ele>30.922531</ele>
        <time>2019-01-13T10:04:28Z</time>
      </trkpt>
      <trkpt lat="48.65395" lon="2.51673">
        <ele>31.096922</ele>
        <time>2019-01-13T10:04:30Z</time>
      </trkpt>
      <trkpt lat="48.65387" lon="2.51684">
        <ele>31.091637</ele>
        <time>2019-01-13T10:04:32Z</time>
      </trkpt>
      <trkpt lat="48.65379" lon="2.51695">
        <ele>31.152409</ele>
        <time>2019-01-13T10:04:34Z</time>
      </trkpt>
      <trkpt lat="48.65372" lon="2.51707">
        <ele>31.35058</ele>
        <time>2019-01-13T10:04:36Z</time>
      </trkpt>
      <trkpt lat="48.65365" lon="2.51718">
        <ele>31.36379</ele>
        <time>2019-01-13T10:04:38Z</time>
      </trkpt>
      <trkpt lat="48.65356" lon="2.51728">
        <ele>31.23432</ele>
        <time>2019-01-13T10:04:40Z</time>
      </trkpt>
      <trkpt lat="48.65349" lon="2.51738">
        <ele>31.324158</ele>
        <time>2019-01-13T10:04:42Z</time>
      </trkpt>
      <trkpt lat="48.65341" lon="2.51748">
        <ele>31.435133</ele>
        <time>2019-01-13T10:04:44Z</time>
      </trkpt>
      <trkpt lat="48.65332" lon="2.51759">
        <ele>31.604239</ele>
        <time>2019-01-13T10:04:46Z</time>
      </trkpt>
      <trkpt lat="48.65323" lon="2.51769">
        <ele>31.266027</ele>
        <time>2019-01-13T10:04:48Z</time>
      </trkpt>
      <trkpt lat="48.65314" lon="2.51779">
        <ele>31.115417</ele>
        <time>2019-01-13T10:04:50Z</time>
      </trkpt>
      <trkpt lat="48.65305" lon="2.51792">
        <ele>31.160336</ele>
        <time>2019-01-13T10:04:52Z</time>
      </trkpt>
      <trkpt lat="48.65297" lon="2.51803">
        <ele>31.36379</ele>
        <time>2019-01-13T10:04:54Z</time>
      </trkpt>
      <trkpt lat="48.6529" lon="2.51812">
        <ele>31.538181</ele>
        <time>2019-01-13T10:04:56Z</time>
      </trkpt>
      <trkpt lat="48.65281" lon="2.51824">
        <ele>31.022938</ele>
        <time>2019-01-13T10:04:58Z</time>
      </trkpt>
      <trkpt lat="48.65271" lon="2.51833">
        <ele>31.247532</ele>
        <time>2019-01-13T10:05:00Z</time>
      </trkpt>
      <trkpt lat="48.65261" lon="2.51841">
        <ele>30.904036</ele>
        <time>2019-01-13T10:05:02Z</time>
      </trkpt>
      <trkpt lat="48.65251" lon="2.51853">
        <ele>30.645092</ele>
        <time>2019-01-13T10:05:04Z</time>
      </trkpt>
      <trkpt lat="48.65242" lon="2.51862">
        <ele>30.761353</ele>
        <time>2019-01-13T10:05:06Z</time>
      </trkpt>
      <trkpt lat="48.65233" lon="2.51872">
        <ele>30.853832</ele>
        <time>2019-01-13T10:05:08Z</time>
      </trkpt>
      <trkpt lat="48.65225" lon="2.51883">
        <ele>30.73493</ele>
        <time>2019-01-13T10:05:10Z</time>
      </trkpt>
      <trkpt lat="48.65216" lon="2.51894">
        <ele>30.653019</ele>
        <time>2019-01-13T10:05:12Z</time>
      </trkpt>
      <trkpt lat="48.65209" lon="2.51907">
        <ele>30.542044</ele>
        <time>2019-01-13T10:05:14Z</time>
      </trkpt>
      <trkpt lat="48.652" lon="2.51918">
        <ele>30.4205</ele>
        <time>2019-01-13T10:05:16Z</time>
      </trkpt>
      <trkpt lat="48.65192" lon="2.5193">
        <ele>30.64245</ele>
        <time>2019-01-13T10:05:18Z</time>
      </trkpt>
      <trkpt lat="48.65184" lon="2.51941">
        <ele>30.555256</ele>
        <time>2019-01-13T10:05:20Z</time>
      </trkpt>
      <trkpt lat="48.65175" lon="2.5195">
        <ele>30.222328</ele>
        <time>2019-01-13T10:05:22Z</time>
      </trkpt>
      <trkpt lat="48.65166" lon="2.51964">
        <ele>30.54997</ele>
        <time>2019-01-13T10:05:25Z</time>
      </trkpt>
      <trkpt lat="48.65158" lon="2.51974">
        <ele>30.645092</ele>
        <time>2019-01-13T10:05:27Z</time>
      </trkpt>
      <trkpt lat="48.6515" lon="2.51984">
        <ele>30.71115</ele>
        <time>2019-01-13T10:05:29Z</time>
      </trkpt>
      <trkpt lat="48.65142" lon="2.51994">
        <ele>31.14184</ele>
        <time>2019-01-13T10:05:31Z</time>
      </trkpt>
      <trkpt lat="48.65133" lon="2.52003">
        <ele>31.170906</ele>
        <time>2019-01-13T10:05:33Z</time>
      </trkpt>
      <trkpt lat="48.65124" lon="2.52013">
        <ele>31.377003</ele>
        <time>2019-01-13T10:05:35Z</time>
      </trkpt>
      <trkpt lat="48.65116" lon="2.5202">
        <ele>31.60688</ele>
        <time>2019-01-13T10:05:37Z</time>
      </trkpt>
      <trkpt lat="48.65107" lon="2.52028">
        <ele>31.231678</ele>
        <time>2019-01-13T10:05:39Z</time>
      </trkpt>
      <trkpt lat="48.65099" lon="2.52037">
        <ele>31.598953</ele>
        <time>2019-01-13T10:05:41Z</time>
      </trkpt>
      <trkpt lat="48.65091" lon="2.52046">
        <ele>31.517044</ele>
        <time>2019-01-13T10:05:43Z</time>
      </trkpt>
      <trkpt lat="48.65082" lon="2.52056">
        <ele>31.186758</ele>
        <time>2019-01-13T10:05:45Z</time>
      </trkpt>
      <trkpt lat="48.65073" lon="2.52065">
        <ele>31.556677</ele>
        <time>2019-01-13T10:05:47Z</time>
      </trkpt>
      <trkpt lat="48.65065" lon="2.52075">
        <ele>31.680864</ele>
        <time>2019-01-13T10:05:49Z</time>
      </trkpt>
      <trkpt lat="48.65058" lon="2.52084">
        <ele>31.35058</ele>
        <time>2019-01-13T10:05:51Z</time>
      </trkpt>
      <trkpt lat="48.65049" lon="2.52092">
        <ele>32.11684</ele>
        <time>2019-01-13T10:05:53Z</time>
      </trkpt>
      <trkpt lat="48.65039" lon="2.52101">
        <ele>31.812977</ele>
        <time>2019-01-13T10:05:55Z</time>
      </trkpt>
      <trkpt lat="48.65031" lon="2.52111">
        <ele>31.855255</ele>
        <time>2019-01-13T10:05:57Z</time>
      </trkpt>
      <trkpt lat="48.65023" lon="2.5212">
        <ele>31.614807</ele>
        <time>2019-01-13T10:05:59Z</time>
      </trkpt>
      <trkpt lat="48.65015" lon="2.52131">
        <ele>31.857897</ele>
        <time>2019-01-13T10:06:01Z</time>
      </trkpt>
      <trkpt lat="48.65007" lon="2.52142">
        <ele>31.575172</ele>
        <time>2019-01-13T10:06:03Z</time>
      </trkpt>
      <trkpt lat="48.64999" lon="2.5215">
        <ele>31.839401</ele>
        <time>2019-01-13T10:06:05Z</time>
      </trkpt>
      <trkpt lat="48.64991" lon="2.5216">
        <ele>32.09306</ele>
        <time>2019-01-13T10:06:07Z</time>
      </trkpt>
      <trkpt lat="48.64982" lon="2.52169">
        <ele>32.214603</ele>
        <time>2019-01-13T10:06:09Z</time>
      </trkpt>
      <trkpt lat="48.64974" lon="2.52177">
        <ele>31.879034</ele>
        <time>2019-01-13T10:06:11Z</time>
      </trkpt>
      <trkpt lat="48.64966" lon="2.52186">
        <ele>32.09306</ele>
        <time>2019-01-13T10:06:13Z</time>
      </trkpt>
      <trkpt lat="48.64958" lon="2.52193">
        <ele>32.151188</ele>
        <time>2019-01-13T10:06:15Z</time>
      </trkpt>
      <trkpt lat="48.64949" lon="2.52202">
        <ele>32.098343</ele>
        <time>2019-01-13T10:06:17Z</time>
      </trkpt>
      <trkpt lat="48.64941" lon="2.52212">
        <ele>32.296513</ele>
        <time>2019-01-13T10:06:18Z</time>
      </trkpt>
      <trkpt lat="48.64933" lon="2.52223">
        <ele>32.248955</ele>
        <time>2019-01-13T10:06:20Z</time>
      </trkpt>
      <trkpt lat="48.64925" lon="2.52233">
        <ele>32.03757</ele>
        <time>2019-01-13T10:06:22Z</time>
      </trkpt>
      <trkpt lat="48.64916" lon="2.52243">
        <ele>32.00322</ele>
        <time>2019-01-13T10:06:24Z</time>
      </trkpt>
      <trkpt lat="48.64908" lon="2.52254">
        <ele>31.802408</ele>
        <time>2019-01-13T10:06:26Z</time>
      </trkpt>
      <trkpt lat="48.64899" lon="2.52264">
        <ele>31.844685</ele>
        <time>2019-01-13T10:06:28Z</time>
      </trkpt>
      <trkpt lat="48.64891" lon="2.52273">
        <ele>31.929237</ele>
        <time>2019-01-13T10:06:30Z</time>
      </trkpt>
      <trkpt lat="48.64884" lon="2.52284">
        <ele>32.10627</ele>
        <time>2019-01-13T10:06:32Z</time>
      </trkpt>
      <trkpt lat="48.64876" lon="2.52292">
        <ele>32.367855</ele>
        <time>2019-01-13T10:06:34Z</time>
      </trkpt>
      <trkpt lat="48.64867" lon="2.52303">
        <ele>32.64001</ele>
        <time>2019-01-13T10:06:36Z</time>
      </trkpt>
      <trkpt lat="48.64858" lon="2.52314">
        <ele>32.388992</ele>
        <time>2019-01-13T10:06:38Z</time>
      </trkpt>
      <trkpt lat="48.64849" lon="2.52322">
        <ele>32.624157</ele>
        <time>2019-01-13T10:06:40Z</time>
      </trkpt>
      <trkpt lat="48.6484" lon="2.52332">
        <ele>32.98615</ele>
        <time>2019-01-13T10:06:42Z</time>
      </trkpt>
      <trkpt lat="48.64832" lon="2.52345">
        <ele>33.110332</ele>
        <time>2019-01-13T10:06:44Z</time>
      </trkpt>
      <trkpt lat="48.64824" lon="2.52356">
        <ele>33.28208</ele>
        <time>2019-01-13T10:06:46Z</time>
      </trkpt>
      <trkpt lat="48.64816" lon="2.52368">
        <ele>33.390415</ele>
        <time>2019-01-13T10:06:48Z</time>
      </trkpt>
      <trkpt lat="48.64807" lon="2.52378">
        <ele>32.89631</ele>
        <time>2019-01-13T10:06:50Z</time>
      </trkpt>
      <trkpt lat="48.64799" lon="2.5239">
        <ele>32.333508</ele>
        <time>2019-01-13T10:06:52Z</time>
      </trkpt>
      <trkpt lat="48.64791" lon="2.524">
        <ele>32.626797</ele>
        <time>2019-01-13T10:06:54Z</time>
      </trkpt>
      <trkpt lat="48.64782" lon="2.52411">
        <ele>32.880455</ele>
        <time>2019-01-13T10:06:56Z</time>
      </trkpt>
      <trkpt lat="48.64774" lon="2.52421">
        <ele>33.250374</ele>
        <time>2019-01-13T10:06:58Z</time>
      </trkpt>
      <trkpt lat="48.64766" lon="2.52429">
        <ele>33.086555</ele>
        <time>2019-01-13T10:07:00Z</time>
      </trkpt>
      <trkpt lat="48.64758" lon="2.52439">
        <ele>32.48676</ele>
        <time>2019-01-13T10:07:02Z</time>
      </trkpt>
      <trkpt lat="48.64749" lon="2.5245">
        <ele>32.632084</ele>
        <time>2019-01-13T10:07:04Z</time>
      </trkpt>
      <trkpt lat="48.6474" lon="2.52461">
        <ele>32.275375</ele>
        <time>2019-01-13T10:07:06Z</time>
      </trkpt>
      <trkpt lat="48.64732" lon="2.52472">
        <ele>32.349358</ele>
        <time>2019-01-13T10:07:08Z</time>
      </trkpt>
      <trkpt lat="48.64724" lon="2.52484">
        <ele>31.371717</ele>
        <time>2019-01-13T10:07:10Z</time>
      </trkpt>
      <trkpt lat="48.64714" lon="2.52496">
        <ele>31.287165</ele>
        <time>2019-01-13T10:07:12Z</time>
      </trkpt>
      <trkpt lat="48.64703" lon="2.52507">
        <ele>30.238182</ele>
        <time>2019-01-13T10:07:14Z</time>
      </trkpt>
      <trkpt lat="48.64693" lon="2.52518">
        <ele>29.41115</ele>
        <time>2019-01-13T10:07:16Z</time>
      </trkpt>
      <trkpt lat="48.64682" lon="2.52531">
        <ele>28.750582</ele>
        <time>2019-01-13T10:07:18Z</time>
      </trkpt>
      <trkpt lat="48.64672" lon="2.52543">
        <ele>28.343672</ele>
        <time>2019-01-13T10:07:20Z</time>
      </trkpt>
      <trkpt lat="48.64662" lon="2.52554">
        <ele>28.010746</ele>
        <time>2019-01-13T10:07:22Z</time>
      </trkpt>
      <trkpt lat="48.64653" lon="2.52566">
        <ele>28.296112</ele>
        <time>2019-01-13T10:07:24Z</time>
      </trkpt>
      <trkpt lat="48.64644" lon="2.52577">
        <ele>27.881275</ele>
        <time>2019-01-13T10:07:26Z</time>
      </trkpt>
      <trkpt lat="48.64636" lon="2.52589">
        <ele>28.16664</ele>
        <time>2019-01-13T10:07:28Z</time>
      </trkpt>
      <trkpt lat="48.64626" lon="2.52602">
        <ele>28.650175</ele>
        <time>2019-01-13T10:07:31Z</time>
      </trkpt>
      <trkpt lat="48.64619" lon="2.52611">
        <ele>28.745298</ele>
        <time>2019-01-13T10:07:33Z</time>
      </trkpt>
      <trkpt lat="48.64608" lon="2.52623">
        <ele>29.57233</ele>
        <time>2019-01-13T10:07:36Z</time>
      </trkpt>
      <trkpt lat="48.646" lon="2.5263">
        <ele>29.696516</ele>
        <time>2019-01-13T10:07:38Z</time>
      </trkpt>
      <trkpt lat="48.64592" lon="2.5264">
        <ele>29.810135</ele>
        <time>2019-01-13T10:07:40Z</time>
      </trkpt>
      <trkpt lat="48.64584" lon="2.52649">
        <ele>30.021517</ele>
        <time>2019-01-13T10:07:42Z</time>
      </trkpt>
      <trkpt lat="48.64574" lon="2.52661">
        <ele>30.077003</ele>
        <time>2019-01-13T10:07:45Z</time>
      </trkpt>
      <trkpt lat="48.64566" lon="2.52669">
        <ele>30.370296</ele>
        <time>2019-01-13T10:07:47Z</time>
      </trkpt>
      <trkpt lat="48.64558" lon="2.52677">
        <ele>30.57111</ele>
        <time>2019-01-13T10:07:49Z</time>
      </trkpt>
      <trkpt lat="48.6455" lon="2.52685">
        <ele>30.941027</ele>
        <time>2019-01-13T10:07:51Z</time>
      </trkpt>
      <trkpt lat="48.64543" lon="2.52694">
        <ele>30.95688</ele>
        <time>2019-01-13T10:07:53Z</time>
      </trkpt>
      <trkpt lat="48.64536" lon="2.52703">
        <ele>31.04936</ele>
        <time>2019-01-13T10:07:55Z</time>
      </trkpt>
      <trkpt lat="48.64528" lon="2.52714">
        <ele>31.2581</ele>
        <time>2019-01-13T10:07:57Z</time>
      </trkpt>
      <trkpt lat="48.64521" lon="2.52725">
        <ele>31.284523</ele>
        <time>2019-01-13T10:07:59Z</time>
      </trkpt>
      <trkpt lat="48.64512" lon="2.52735">
        <ele>31.413994</ele>
        <time>2019-01-13T10:08:01Z</time>
      </trkpt>
      <trkpt lat="48.64504" lon="2.52742">
        <ele>31.189402</ele>
        <time>2019-01-13T10:08:03Z</time>
      </trkpt>
      <trkpt lat="48.64495" lon="2.52751">
        <ele>31.263386</ele>
        <time>2019-01-13T10:08:05Z</time>
      </trkpt>
      <trkpt lat="48.64486" lon="2.5276">
        <ele>31.395498</ele>
        <time>2019-01-13T10:08:07Z</time>
      </trkpt>
      <trkpt lat="48.64478" lon="2.52768">
        <ele>31.495905</ele>
        <time>2019-01-13T10:08:09Z</time>
      </trkpt>
      <trkpt lat="48.6447" lon="2.52777">
        <ele>31.332085</ele>
        <time>2019-01-13T10:08:11Z</time>
      </trkpt>
      <trkpt lat="48.64461" lon="2.52787">
        <ele>31.448343</ele>
        <time>2019-01-13T10:08:13Z</time>
      </trkpt>
      <trkpt lat="48.64453" lon="2.52797">
        <ele>31.87375</ele>
        <time>2019-01-13T10:08:15Z</time>
      </trkpt>
      <trkpt lat="48.64445" lon="2.52808">
        <ele>31.715214</ele>
        <time>2019-01-13T10:08:17Z</time>
      </trkpt>
      <trkpt lat="48.64436" lon="2.5282">
        <ele>31.794481</ele>
        <time>2019-01-13T10:08:19Z</time>
      </trkpt>
      <trkpt lat="48.64427" lon="2.52833">
        <ele>31.604239</ele>
        <time>2019-01-13T10:08:21Z</time>
      </trkpt>
      <trkpt lat="48.64419" lon="2.52842">
        <ele>31.715214</ele>
        <time>2019-01-13T10:08:23Z</time>
      </trkpt>
      <trkpt lat="48.6441" lon="2.5285">
        <ele>31.382288</ele>
        <time>2019-01-13T10:08:25Z</time>
      </trkpt>
      <trkpt lat="48.64402" lon="2.52858">
        <ele>31.403425</ele>
        <time>2019-01-13T10:08:27Z</time>
      </trkpt>
      <trkpt lat="48.64395" lon="2.52867">
        <ele>31.371717</ele>
        <time>2019-01-13T10:08:29Z</time>
      </trkpt>
      <trkpt lat="48.64385" lon="2.52876">
        <ele>31.609522</ele>
        <time>2019-01-13T10:08:32Z</time>
      </trkpt>
      <trkpt lat="48.64374" lon="2.52878">
        <ele>31.543467</ele>
        <time>2019-01-13T10:08:35Z</time>
      </trkpt>
      <trkpt lat="48.64365" lon="2.52866">
        <ele>31.5144</ele>
        <time>2019-01-13T10:08:38Z</time>
      </trkpt>
      <trkpt lat="48.6436" lon="2.52854">
        <ele>31.392857</ele>
        <time>2019-01-13T10:08:40Z</time>
      </trkpt>
      <trkpt lat="48.64354" lon="2.52842">
        <ele>31.133913</ele>
        <time>2019-01-13T10:08:42Z</time>
      </trkpt>
      <trkpt lat="48.64347" lon="2.52825">
        <ele>31.147125</ele>
        <time>2019-01-13T10:08:45Z</time>
      </trkpt>
      <trkpt lat="48.64342" lon="2.52813">
        <ele>31.287165</ele>
        <time>2019-01-13T10:08:47Z</time>
      </trkpt>
      <trkpt lat="48.64337" lon="2.528">
        <ele>31.445702</ele>
        <time>2019-01-13T10:08:49Z</time>
      </trkpt>
      <trkpt lat="48.6433" lon="2.52786">
        <ele>31.054646</ele>
        <time>2019-01-13T10:08:51Z</time>
      </trkpt>
      <trkpt lat="48.64324" lon="2.52773">
        <ele>30.592247</ele>
        <time>2019-01-13T10:08:53Z</time>
      </trkpt>
      <trkpt lat="48.64317" lon="2.52762">
        <ele>30.436354</ele>
        <time>2019-01-13T10:08:55Z</time>
      </trkpt>
      <trkpt lat="48.64312" lon="2.52749">
        <ele>30.11928</ele>
        <time>2019-01-13T10:08:57Z</time>
      </trkpt>
      <trkpt lat="48.64307" lon="2.52735">
        <ele>29.781069</ele>
        <time>2019-01-13T10:08:59Z</time>
      </trkpt>
      <trkpt lat="48.643" lon="2.52722">
        <ele>29.382086</ele>
        <time>2019-01-13T10:09:01Z</time>
      </trkpt>
      <trkpt lat="48.64292" lon="2.52709">
        <ele>28.954037</ele>
        <time>2019-01-13T10:09:03Z</time>
      </trkpt>
      <trkpt lat="48.64284" lon="2.52692">
        <ele>28.385948</ele>
        <time>2019-01-13T10:09:06Z</time>
      </trkpt>
      <trkpt lat="48.64275" lon="2.52678">
        <ele>27.381884</ele>
        <time>2019-01-13T10:09:09Z</time>
      </trkpt>
      <trkpt lat="48.64265" lon="2.52673">
        <ele>27.455868</ele>
        <time>2019-01-13T10:09:11Z</time>
      </trkpt>
      <trkpt lat="48.64254" lon="2.52673">
        <ele>27.395096</ele>
        <time>2019-01-13T10:09:13Z</time>
      </trkpt>
      <trkpt lat="48.64245" lon="2.52675">
        <ele>27.286762</ele>
        <time>2019-01-13T10:09:15Z</time>
      </trkpt>
      <trkpt lat="48.6423" lon="2.52676">
        <ele>26.951195</ele>
        <time>2019-01-13T10:09:17Z</time>
      </trkpt>
      <trkpt lat="48.64215" lon="2.52677">
        <ele>26.91156</ele>
        <time>2019-01-13T10:09:19Z</time>
      </trkpt>
      <trkpt lat="48.64202" lon="2.5268">
        <ele>26.900991</ele>
        <time>2019-01-13T10:09:21Z</time>
      </trkpt>
      <trkpt lat="48.6419" lon="2.52681">
        <ele>26.705462</ele>
        <time>2019-01-13T10:09:23Z</time>
      </trkpt>
      <trkpt lat="48.6418" lon="2.52683">
        <ele>26.428024</ele>
        <time>2019-01-13T10:09:25Z</time>
      </trkpt>
      <trkpt lat="48.6417" lon="2.52684">
        <ele>26.937983</ele>
        <time>2019-01-13T10:09:27Z</time>
      </trkpt>
      <trkpt lat="48.64158" lon="2.52684">
        <ele>27.34225</ele>
        <time>2019-01-13T10:09:29Z</time>
      </trkpt>
      <trkpt lat="48.64146" lon="2.52686">
        <ele>27.257698</ele>
        <time>2019-01-13T10:09:31Z</time>
      </trkpt>
      <trkpt lat="48.64135" lon="2.52688">
        <ele>27.099161</ele>
        <time>2019-01-13T10:09:33Z</time>
      </trkpt>
      <trkpt lat="48.64125" lon="2.52689">
        <ele>27.125584</ele>
        <time>2019-01-13T10:09:35Z</time>
      </trkpt>
      <trkpt lat="48.64114" lon="2.5269">
        <ele>27.44794</ele>
        <time>2019-01-13T10:09:37Z</time>
      </trkpt>
      <trkpt lat="48.64104" lon="2.52688">
        <ele>28.269688</ele>
        <time>2019-01-13T10:09:39Z</time>
      </trkpt>
      <trkpt lat="48.64094" lon="2.52684">
        <ele>27.786152</ele>
        <time>2019-01-13T10:09:41Z</time>
      </trkpt>
      <trkpt lat="48.64084" lon="2.52682">
        <ele>27.371315</ele>
        <time>2019-01-13T10:09:43Z</time>
      </trkpt>
      <trkpt lat="48.64074" lon="2.52684">
        <ele>27.572128</ele>
        <time>2019-01-13T10:09:45Z</time>
      </trkpt>
      <trkpt lat="48.64063" lon="2.52685">
        <ele>27.728022</ele>
        <time>2019-01-13T10:09:47Z</time>
      </trkpt>
      <trkpt lat="48.64053" lon="2.52686">
        <ele>27.957901</ele>
        <time>2019-01-13T10:09:49Z</time>
      </trkpt>
      <trkpt lat="48.64043" lon="2.52686">
        <ele>28.253836</ele>
        <time>2019-01-13T10:09:51Z</time>
      </trkpt>
      <trkpt lat="48.64033" lon="2.52687">
        <ele>28.301395</ele>
        <time>2019-01-13T10:09:53Z</time>
      </trkpt>
      <trkpt lat="48.64022" lon="2.52689">
        <ele>28.230055</ele>
        <time>2019-01-13T10:09:55Z</time>
      </trkpt>
      <trkpt lat="48.64012" lon="2.5269">
        <ele>28.385948</ele>
        <time>2019-01-13T10:09:57Z</time>
      </trkpt>
      <trkpt lat="48.64002" lon="2.52691">
        <ele>28.74794</ele>
        <time>2019-01-13T10:09:59Z</time>
      </trkpt>
      <trkpt lat="48.63992" lon="2.52692">
        <ele>29.379444</ele>
        <time>2019-01-13T10:10:01Z</time>
      </trkpt>
      <trkpt lat="48.63982" lon="2.52692">
        <ele>29.302818</ele>
        <time>2019-01-13T10:10:03Z</time>
      </trkpt>
      <trkpt lat="48.63972" lon="2.52693">
        <ele>29.923752</ele>
        <time>2019-01-13T10:10:05Z</time>
      </trkpt>
      <trkpt lat="48.63961" lon="2.52693">
        <ele>29.831272</ele>
        <time>2019-01-13T10:10:07Z</time>
      </trkpt>
      <trkpt lat="48.63951" lon="2.52694">
        <ele>29.794281</ele>
        <time>2019-01-13T10:10:09Z</time>
      </trkpt>
      <trkpt lat="48.63941" lon="2.52694">
        <ele>30.11928</ele>
        <time>2019-01-13T10:10:11Z</time>
      </trkpt>
      <trkpt lat="48.63931" lon="2.52695">
        <ele>30.697939</ele>
        <time>2019-01-13T10:10:13Z</time>
      </trkpt>
      <trkpt lat="48.63921" lon="2.52695">
        <ele>31.112776</ele>
        <time>2019-01-13T10:10:15Z</time>
      </trkpt>
      <trkpt lat="48.63911" lon="2.52696">
        <ele>30.57111</ele>
        <time>2019-01-13T10:10:17Z</time>
      </trkpt>
      <trkpt lat="48.63902" lon="2.52697">
        <ele>31.160336</ele>
        <time>2019-01-13T10:10:19Z</time>
      </trkpt>
      <trkpt lat="48.63892" lon="2.52699">
        <ele>31.329441</ele>
        <time>2019-01-13T10:10:21Z</time>
      </trkpt>
      <trkpt lat="48.63882" lon="2.527">
        <ele>31.284523</ele>
        <time>2019-01-13T10:10:23Z</time>
      </trkpt>
      <trkpt lat="48.63873" lon="2.52702">
        <ele>31.12863</ele>
        <time>2019-01-13T10:10:25Z</time>
      </trkpt>
      <trkpt lat="48.63863" lon="2.52704">
        <ele>31.511759</ele>
        <time>2019-01-13T10:10:27Z</time>
      </trkpt>
      <trkpt lat="48.63854" lon="2.52705">
        <ele>31.120703</ele>
        <time>2019-01-13T10:10:29Z</time>
      </trkpt>
      <trkpt lat="48.63844" lon="2.52705">
        <ele>31.41928</ele>
        <time>2019-01-13T10:10:31Z</time>
      </trkpt>
      <trkpt lat="48.63834" lon="2.52706">
        <ele>31.371717</ele>
        <time>2019-01-13T10:10:33Z</time>
      </trkpt>
      <trkpt lat="48.63821" lon="2.52707">
        <ele>31.773344</ele>
        <time>2019-01-13T10:10:36Z</time>
      </trkpt>
      <trkpt lat="48.63811" lon="2.52708">
        <ele>31.604239</ele>
        <time>2019-01-13T10:10:38Z</time>
      </trkpt>
      <trkpt lat="48.63801" lon="2.52709">
        <ele>31.69936</ele>
        <time>2019-01-13T10:10:40Z</time>
      </trkpt>
      <trkpt lat="48.63791" lon="2.5271">
        <ele>31.865824</ele>
        <time>2019-01-13T10:10:42Z</time>
      </trkpt>
      <trkpt lat="48.63782" lon="2.52711">
        <ele>31.638588</ele>
        <time>2019-01-13T10:10:44Z</time>
      </trkpt>
      <trkpt lat="48.63772" lon="2.52711">
        <ele>31.947733</ele>
        <time>2019-01-13T10:10:46Z</time>
      </trkpt>
      <trkpt lat="48.63762" lon="2.52712">
        <ele>31.659725</ele>
        <time>2019-01-13T10:10:48Z</time>
      </trkpt>
      <trkpt lat="48.63752" lon="2.52713">
        <ele>31.937164</ele>
        <time>2019-01-13T10:10:51Z</time>
      </trkpt>
      <trkpt lat="48.63742" lon="2.52714">
        <ele>31.720499</ele>
        <time>2019-01-13T10:10:53Z</time>
      </trkpt>
      <trkpt lat="48.63732" lon="2.52715">
        <ele>31.97944</ele>
        <time>2019-01-13T10:10:55Z</time>
      </trkpt>
      <trkpt lat="48.63722" lon="2.52716">
        <ele>31.575172</ele>
        <time>2019-01-13T10:10:57Z</time>
      </trkpt>
      <trkpt lat="48.63712" lon="2.52716">
        <ele>31.704645</ele>
        <time>2019-01-13T10:10:59Z</time>
      </trkpt>
      <trkpt lat="48.63702" lon="2.52717">
        <ele>31.97944</ele>
        <time>2019-01-13T10:11:01Z</time>
      </trkpt>
      <trkpt lat="48.63692" lon="2.52718">
        <ele>31.926596</ele>
        <time>2019-01-13T10:11:03Z</time>
      </trkpt>
      <trkpt lat="48.63682" lon="2.5272">
        <ele>32.346718</ele>
        <time>2019-01-13T10:11:05Z</time>
      </trkpt>
      <trkpt lat="48.63671" lon="2.52721">
        <ele>31.926596</ele>
        <time>2019-01-13T10:11:07Z</time>
      </trkpt>
      <trkpt lat="48.63661" lon="2.52721">
        <ele>32.27802</ele>
        <time>2019-01-13T10:11:09Z</time>
      </trkpt>
      <trkpt lat="48.63652" lon="2.52722">
        <ele>32.658504</ele>
        <time>2019-01-13T10:11:11Z</time>
      </trkpt>
      <trkpt lat="48.63641" lon="2.52722">
        <ele>32.65322</ele>
        <time>2019-01-13T10:11:13Z</time>
      </trkpt>
      <trkpt lat="48.63631" lon="2.52723">
        <ele>33.202812</ele>
        <time>2019-01-13T10:11:15Z</time>
      </trkpt>
      <trkpt lat="48.63621" lon="2.52724">
        <ele>32.566025</ele>
        <time>2019-01-13T10:11:17Z</time>
      </trkpt>
      <trkpt lat="48.63611" lon="2.52725">
        <ele>32.959724</ele>
        <time>2019-01-13T10:11:19Z</time>
      </trkpt>
      <trkpt lat="48.63601" lon="2.52726">
        <ele>32.58188</ele>
        <time>2019-01-13T10:11:21Z</time>
      </trkpt>
      <trkpt lat="48.63591" lon="2.52727">
        <ele>32.798546</ele>
        <time>2019-01-13T10:11:23Z</time>
      </trkpt>
      <trkpt lat="48.63581" lon="2.52728">
        <ele>32.925377</ele>
        <time>2019-01-13T10:11:25Z</time>
      </trkpt>
      <trkpt lat="48.63571" lon="2.52729">
        <ele>32.89631</ele>
        <time>2019-01-13T10:11:27Z</time>
      </trkpt>
      <trkpt lat="48.63561" lon="2.5273">
        <ele>33.16582</ele>
        <time>2019-01-13T10:11:29Z</time>
      </trkpt>
      <trkpt lat="48.63551" lon="2.52731">
        <ele>33.06013</ele>
        <time>2019-01-13T10:11:31Z</time>
      </trkpt>
      <trkpt lat="48.63541" lon="2.52731">
        <ele>33.18432</ele>
        <time>2019-01-13T10:11:33Z</time>
      </trkpt>
      <trkpt lat="48.63531" lon="2.52732">
        <ele>33.155254</ele>
        <time>2019-01-13T10:11:35Z</time>
      </trkpt>
      <trkpt lat="48.63521" lon="2.52733">
        <ele>33.807896</ele>
        <time>2019-01-13T10:11:37Z</time>
      </trkpt>
      <trkpt lat="48.63511" lon="2.52734">
        <ele>33.340214</ele>
        <time>2019-01-13T10:11:39Z</time>
      </trkpt>
      <trkpt lat="48.63501" lon="2.52736">
        <ele>34.00871</ele>
        <time>2019-01-13T10:11:41Z</time>
      </trkpt>
      <trkpt lat="48.63492" lon="2.52736">
        <ele>33.7207</ele>
        <time>2019-01-13T10:11:43Z</time>
      </trkpt>
      <trkpt lat="48.63482" lon="2.52736">
        <ele>34.12761</ele>
        <time>2019-01-13T10:11:45Z</time>
      </trkpt>
      <trkpt lat="48.63473" lon="2.52737">
        <ele>33.424767</ele>
        <time>2019-01-13T10:11:47Z</time>
      </trkpt>
      <trkpt lat="48.63462" lon="2.52738">
        <ele>33.749763</ele>
        <time>2019-01-13T10:11:49Z</time>
      </trkpt>
      <trkpt lat="48.63453" lon="2.52738">
        <ele>33.644073</ele>
        <time>2019-01-13T10:11:51Z</time>
      </trkpt>
      <trkpt lat="48.63443" lon="2.52737">
        <ele>33.7022</ele>
        <time>2019-01-13T10:11:53Z</time>
      </trkpt>
      <trkpt lat="48.63431" lon="2.52738">
        <ele>33.398342</ele>
        <time>2019-01-13T10:11:56Z</time>
      </trkpt>
      <trkpt lat="48.63419" lon="2.52738">
        <ele>33.31379</ele>
        <time>2019-01-13T10:11:59Z</time>
      </trkpt>
      <trkpt lat="48.63406" lon="2.5274">
        <ele>33.250374</ele>
        <time>2019-01-13T10:12:02Z</time>
      </trkpt>
      <trkpt lat="48.63395" lon="2.52745">
        <ele>33.390415</ele>
        <time>2019-01-13T10:12:05Z</time>
      </trkpt>
      <trkpt lat="48.63388" lon="2.52754">
        <ele>33.567448</ele>
        <time>2019-01-13T10:12:08Z</time>
      </trkpt>
      <trkpt lat="48.63378" lon="2.52758">
        <ele>33.858097</ele>
        <time>2019-01-13T10:12:12Z</time>
      </trkpt>
      <trkpt lat="48.63366" lon="2.5276">
        <ele>33.519886</ele>
        <time>2019-01-13T10:12:17Z</time>
      </trkpt>
      <trkpt lat="48.63356" lon="2.5276">
        <ele>33.715416</ele>
        <time>2019-01-13T10:12:21Z</time>
      </trkpt>
      <trkpt lat="48.63347" lon="2.5276">
        <ele>34.658707</ele>
        <time>2019-01-13T10:12:24Z</time>
      </trkpt>
      <trkpt lat="48.63336" lon="2.52761">
        <ele>34.58208</ele>
        <time>2019-01-13T10:12:27Z</time>
      </trkpt>
      <trkpt lat="48.63324" lon="2.52762">
        <ele>34.93879</ele>
        <time>2019-01-13T10:12:30Z</time>
      </trkpt>
      <trkpt lat="48.63312" lon="2.52764">
        <ele>35.31663</ele>
        <time>2019-01-13T10:12:33Z</time>
      </trkpt>
      <trkpt lat="48.63301" lon="2.52765">
        <ele>35.956062</ele>
        <time>2019-01-13T10:12:36Z</time>
      </trkpt>
      <trkpt lat="48.6329" lon="2.52766">
        <ele>36.722324</ele>
        <time>2019-01-13T10:12:39Z</time>
      </trkpt>
      <trkpt lat="48.63279" lon="2.52767">
        <ele>37.6022</ele>
        <time>2019-01-13T10:12:42Z</time>
      </trkpt>
      <trkpt lat="48.63268" lon="2.52768">
        <ele>38.31033</ele>
        <time>2019-01-13T10:12:45Z</time>
      </trkpt>
      <trkpt lat="48.63257" lon="2.52769">
        <ele>39.063377</ele>
        <time>2019-01-13T10:12:48Z</time>
      </trkpt>
      <trkpt lat="48.63245" lon="2.52771">
        <ele>39.509922</ele>
        <time>2019-01-13T10:12:51Z</time>
      </trkpt>
      <trkpt lat="48.63234" lon="2.52771">
        <ele>41.304024</ele>
        <time>2019-01-13T10:12:54Z</time>
      </trkpt>
      <trkpt lat="48.6323" lon="2.52772">
        <ele>41.557686</ele>
        <time>2019-01-13T10:12:55Z</time>
      </trkpt>
      <trkpt lat="48.63226" lon="2.52772">
        <ele>41.385937</ele>
        <time>2019-01-13T10:12:56Z</time>
      </trkpt>
      <trkpt lat="48.63214" lon="2.52775">
        <ele>41.3648</ele>
        <time>2019-01-13T10:12:59Z</time>
      </trkpt>
      <trkpt lat="48.63201" lon="2.52776">
        <ele>41.568253</ele>
        <time>2019-01-13T10:13:02Z</time>
      </trkpt>
      <trkpt lat="48.63197" lon="2.52776">
        <ele>41.666016</ele>
        <time>2019-01-13T10:13:03Z</time>
      </trkpt>
      <trkpt lat="48.63192" lon="2.52777">
        <ele>41.44671</ele>
        <time>2019-01-13T10:13:04Z</time>
      </trkpt>
      <trkpt lat="48.63179" lon="2.52777">
        <ele>41.07679</ele>
        <time>2019-01-13T10:13:07Z</time>
      </trkpt>
      <trkpt lat="48.63166" lon="2.52778">
        <ele>40.820488</ele>
        <time>2019-01-13T10:13:10Z</time>
      </trkpt>
      <trkpt lat="48.63157" lon="2.52779">
        <ele>40.37923</ele>
        <time>2019-01-13T10:13:12Z</time>
      </trkpt>
      <trkpt lat="48.63147" lon="2.5278">
        <ele>40.1335</ele>
        <time>2019-01-13T10:13:14Z</time>
      </trkpt>
      <trkpt lat="48.63136" lon="2.52781">
        <ele>39.768864</ele>
        <time>2019-01-13T10:13:16Z</time>
      </trkpt>
      <trkpt lat="48.63125" lon="2.52782">
        <ele>39.243053</ele>
        <time>2019-01-13T10:13:18Z</time>
      </trkpt>
      <trkpt lat="48.63112" lon="2.52783">
        <ele>38.947117</ele>
        <time>2019-01-13T10:13:20Z</time>
      </trkpt>
      <trkpt lat="48.631" lon="2.52783">
        <ele>38.815002</ele>
        <time>2019-01-13T10:13:22Z</time>
      </trkpt>
      <trkpt lat="48.63087" lon="2.52784">
        <ele>38.305046</ele>
        <time>2019-01-13T10:13:24Z</time>
      </trkpt>
      <trkpt lat="48.63074" lon="2.52785">
        <ele>37.433094</ele>
        <time>2019-01-13T10:13:26Z</time>
      </trkpt>
      <trkpt lat="48.63062" lon="2.52785">
        <ele>37.012974</ele>
        <time>2019-01-13T10:13:28Z</time>
      </trkpt>
      <trkpt lat="48.6305" lon="2.52787">
        <ele>36.653625</ele>
        <time>2019-01-13T10:13:30Z</time>
      </trkpt>
      <trkpt lat="48.63039" lon="2.52788">
        <ele>36.51094</ele>
        <time>2019-01-13T10:13:32Z</time>
      </trkpt>
      <trkpt lat="48.63028" lon="2.52788">
        <ele>36.236145</ele>
        <time>2019-01-13T10:13:34Z</time>
      </trkpt>
      <trkpt lat="48.63016" lon="2.52788">
        <ele>35.8398</ele>
        <time>2019-01-13T10:13:36Z</time>
      </trkpt>
      <trkpt lat="48.63005" lon="2.52788">
        <ele>35.52273</ele>
        <time>2019-01-13T10:13:38Z</time>
      </trkpt>
      <trkpt lat="48.62995" lon="2.52786">
        <ele>35.37212</ele>
        <time>2019-01-13T10:13:40Z</time>
      </trkpt>
      <trkpt lat="48.62986" lon="2.5278">
        <ele>35.308704</ele>
        <time>2019-01-13T10:13:42Z</time>
      </trkpt>
      <trkpt lat="48.62973" lon="2.52774">
        <ele>34.93879</ele>
        <time>2019-01-13T10:13:45Z</time>
      </trkpt>
      <trkpt lat="48.62963" lon="2.52774">
        <ele>34.936146</ele>
        <time>2019-01-13T10:13:47Z</time>
      </trkpt>
      <trkpt lat="48.62952" lon="2.52776">
        <ele>35.11318</ele>
        <time>2019-01-13T10:13:49Z</time>
      </trkpt>
      <trkpt lat="48.62942" lon="2.52776">
        <ele>34.774967</ele>
        <time>2019-01-13T10:13:51Z</time>
      </trkpt>
      <trkpt lat="48.62933" lon="2.52777">
        <ele>34.59529</ele>
        <time>2019-01-13T10:13:53Z</time>
      </trkpt>
      <trkpt lat="48.62923" lon="2.52779">
        <ele>34.52131</ele>
        <time>2019-01-13T10:13:56Z</time>
      </trkpt>
      <trkpt lat="48.62912" lon="2.52782">
        <ele>34.526592</ele>
        <time>2019-01-13T10:14:00Z</time>
      </trkpt>
      <trkpt lat="48.62901" lon="2.52782">
        <ele>35.073544</ele>
        <time>2019-01-13T10:14:03Z</time>
      </trkpt>
      <trkpt lat="48.62892" lon="2.52782">
        <ele>34.87009</ele>
        <time>2019-01-13T10:14:05Z</time>
      </trkpt>
      <trkpt lat="48.62879" lon="2.52783">
        <ele>35.51216</ele>
        <time>2019-01-13T10:14:08Z</time>
      </trkpt>
      <trkpt lat="48.62869" lon="2.52784">
        <ele>35.27964</ele>
        <time>2019-01-13T10:14:10Z</time>
      </trkpt>
      <trkpt lat="48.6286" lon="2.52785">
        <ele>35.63635</ele>
        <time>2019-01-13T10:14:12Z</time>
      </trkpt>
      <trkpt lat="48.62849" lon="2.52787">
        <ele>36.019478</ele>
        <time>2019-01-13T10:14:14Z</time>
      </trkpt>
      <trkpt lat="48.6284" lon="2.52788">
        <ele>35.30078</ele>
        <time>2019-01-13T10:14:16Z</time>
      </trkpt>
      <trkpt lat="48.62829" lon="2.52789">
        <ele>35.168667</ele>
        <time>2019-01-13T10:14:18Z</time>
      </trkpt>
      <trkpt lat="48.62819" lon="2.52789">
        <ele>35.575577</ele>
        <time>2019-01-13T10:14:20Z</time>
      </trkpt>
      <trkpt lat="48.62809" lon="2.52791">
        <ele>35.216225</ele>
        <time>2019-01-13T10:14:22Z</time>
      </trkpt>
      <trkpt lat="48.62799" lon="2.52791">
        <ele>35.549152</ele>
        <time>2019-01-13T10:14:24Z</time>
      </trkpt>
      <trkpt lat="48.62788" lon="2.52793">
        <ele>34.402405</ele>
        <time>2019-01-13T10:14:26Z</time>
      </trkpt>
      <trkpt lat="48.62778" lon="2.52794">
        <ele>35.004845</ele>
        <time>2019-01-13T10:14:28Z</time>
      </trkpt>
      <trkpt lat="48.62767" lon="2.52795">
        <ele>34.481674</ele>
        <time>2019-01-13T10:14:30Z</time>
      </trkpt>
      <trkpt lat="48.62757" lon="2.52795">
        <ele>34.801388</ele>
        <time>2019-01-13T10:14:32Z</time>
      </trkpt>
      <trkpt lat="48.62746" lon="2.52796">
        <ele>34.658707</ele>
        <time>2019-01-13T10:14:34Z</time>
      </trkpt>
      <trkpt lat="48.62736" lon="2.52798">
        <ele>34.407692</ele>
        <time>2019-01-13T10:14:36Z</time>
      </trkpt>
      <trkpt lat="48.62724" lon="2.52798">
        <ele>34.75647</ele>
        <time>2019-01-13T10:14:38Z</time>
      </trkpt>
      <trkpt lat="48.62714" lon="2.52799">
        <ele>34.66135</ele>
        <time>2019-01-13T10:14:40Z</time>
      </trkpt>
      <trkpt lat="48.62703" lon="2.52799">
        <ele>34.82517</ele>
        <time>2019-01-13T10:14:42Z</time>
      </trkpt>
      <trkpt lat="48.62693" lon="2.528">
        <ele>34.286148</ele>
        <time>2019-01-13T10:14:44Z</time>
      </trkpt>
      <trkpt lat="48.62682" lon="2.528">
        <ele>34.658707</ele>
        <time>2019-01-13T10:14:46Z</time>
      </trkpt>
      <trkpt lat="48.62672" lon="2.52801">
        <ele>34.56887</ele>
        <time>2019-01-13T10:14:48Z</time>
      </trkpt>
      <trkpt lat="48.62661" lon="2.52801">
        <ele>34.309925</ele>
        <time>2019-01-13T10:14:50Z</time>
      </trkpt>
      <trkpt lat="48.6265" lon="2.52802">
        <ele>34.333706</ele>
        <time>2019-01-13T10:14:52Z</time>
      </trkpt>
      <trkpt lat="48.62639" lon="2.52804">
        <ele>34.024563</ele>
        <time>2019-01-13T10:14:54Z</time>
      </trkpt>
      <trkpt lat="48.62629" lon="2.52805">
        <ele>34.58208</ele>
        <time>2019-01-13T10:14:56Z</time>
      </trkpt>
      <trkpt lat="48.62618" lon="2.52807">
        <ele>34.645496</ele>
        <time>2019-01-13T10:14:58Z</time>
      </trkpt>
      <trkpt lat="48.62606" lon="2.52807">
        <ele>34.645496</ele>
        <time>2019-01-13T10:15:00Z</time>
      </trkpt>
      <trkpt lat="48.62595" lon="2.52808">
        <ele>34.33635</ele>
        <time>2019-01-13T10:15:02Z</time>
      </trkpt>
      <trkpt lat="48.62584" lon="2.52809">
        <ele>34.81196</ele>
        <time>2019-01-13T10:15:04Z</time>
      </trkpt>
      <trkpt lat="48.62573" lon="2.5281">
        <ele>34.59265</ele>
        <time>2019-01-13T10:15:06Z</time>
      </trkpt>
      <trkpt lat="48.62562" lon="2.52811">
        <ele>35.538586</ele>
        <time>2019-01-13T10:15:08Z</time>
      </trkpt>
      <trkpt lat="48.62552" lon="2.52812">
        <ele>35.11846</ele>
        <time>2019-01-13T10:15:10Z</time>
      </trkpt>
      <trkpt lat="48.62535" lon="2.52813">
        <ele>34.566227</ele>
        <time>2019-01-13T10:15:13Z</time>
      </trkpt>
      <trkpt lat="48.62525" lon="2.52814">
        <ele>34.52131</ele>
        <time>2019-01-13T10:15:15Z</time>
      </trkpt>
      <trkpt lat="48.62515" lon="2.52814">
        <ele>34.44204</ele>
        <time>2019-01-13T10:15:17Z</time>
      </trkpt>
      <trkpt lat="48.62505" lon="2.52815">
        <ele>34.270294</ele>
        <time>2019-01-13T10:15:19Z</time>
      </trkpt>
      <trkpt lat="48.62495" lon="2.52816">
        <ele>34.423546</ele>
        <time>2019-01-13T10:15:21Z</time>
      </trkpt>
      <trkpt lat="48.62485" lon="2.52817">
        <ele>34.307285</ele>
        <time>2019-01-13T10:15:23Z</time>
      </trkpt>
      <trkpt lat="48.62476" lon="2.52817">
        <ele>33.89773</ele>
        <time>2019-01-13T10:15:25Z</time>
      </trkpt>
      <trkpt lat="48.62466" lon="2.52818">
        <ele>33.876595</ele>
        <time>2019-01-13T10:15:27Z</time>
      </trkpt>
      <trkpt lat="48.62456" lon="2.52819">
        <ele>34.0457</ele>
        <time>2019-01-13T10:15:29Z</time>
      </trkpt>
      <trkpt lat="48.62446" lon="2.52819">
        <ele>33.97964</ele>
        <time>2019-01-13T10:15:31Z</time>
      </trkpt>
      <trkpt lat="48.62437" lon="2.52819">
        <ele>34.17517</ele>
        <time>2019-01-13T10:15:33Z</time>
      </trkpt>
      <trkpt lat="48.62425" lon="2.52819">
        <ele>34.0959</ele>
        <time>2019-01-13T10:15:36Z</time>
      </trkpt>
      <trkpt lat="48.62415" lon="2.5282">
        <ele>34.17517</ele>
        <time>2019-01-13T10:15:39Z</time>
      </trkpt>
      <trkpt lat="48.62404" lon="2.5282">
        <ele>33.829033</ele>
        <time>2019-01-13T10:15:43Z</time>
      </trkpt>
      <trkpt lat="48.62393" lon="2.52821">
        <ele>33.564804</ele>
        <time>2019-01-13T10:15:47Z</time>
      </trkpt>
      <trkpt lat="48.62382" lon="2.52823">
        <ele>33.194885</ele>
        <time>2019-01-13T10:15:51Z</time>
      </trkpt>
      <trkpt lat="48.62371" lon="2.52825">
        <ele>32.98086</ele>
        <time>2019-01-13T10:15:54Z</time>
      </trkpt>
      <trkpt lat="48.62358" lon="2.52826">
        <ele>33.459114</ele>
        <time>2019-01-13T10:15:57Z</time>
      </trkpt>
      <trkpt lat="48.62348" lon="2.52827">
        <ele>33.424767</ele>
        <time>2019-01-13T10:15:59Z</time>
      </trkpt>
      <trkpt lat="48.62335" lon="2.52827">
        <ele>33.35078</ele>
        <time>2019-01-13T10:16:02Z</time>
      </trkpt>
      <trkpt lat="48.62325" lon="2.52828">
        <ele>33.32436</ele>
        <time>2019-01-13T10:16:04Z</time>
      </trkpt>
      <trkpt lat="48.62316" lon="2.52828">
        <ele>33.67578</ele>
        <time>2019-01-13T10:16:06Z</time>
      </trkpt>
      <trkpt lat="48.62307" lon="2.5283">
        <ele>33.871307</ele>
        <time>2019-01-13T10:16:08Z</time>
      </trkpt>
      <trkpt lat="48.62296" lon="2.52831">
        <ele>34.71948</ele>
        <time>2019-01-13T10:16:10Z</time>
      </trkpt>
      <trkpt lat="48.62286" lon="2.52832">
        <ele>34.627</ele>
        <time>2019-01-13T10:16:12Z</time>
      </trkpt>
      <trkpt lat="48.62276" lon="2.52832">
        <ele>33.924156</ele>
        <time>2019-01-13T10:16:14Z</time>
      </trkpt>
      <trkpt lat="48.62266" lon="2.52833">
        <ele>33.670498</ele>
        <time>2019-01-13T10:16:16Z</time>
      </trkpt>
      <trkpt lat="48.62256" lon="2.52834">
        <ele>33.741837</ele>
        <time>2019-01-13T10:16:18Z</time>
      </trkpt>
      <trkpt lat="48.62246" lon="2.52836">
        <ele>33.575375</ele>
        <time>2019-01-13T10:16:20Z</time>
      </trkpt>
      <trkpt lat="48.62236" lon="2.52837">
        <ele>33.427406</ele>
        <time>2019-01-13T10:16:22Z</time>
      </trkpt>
      <trkpt lat="48.62225" lon="2.52838">
        <ele>33.29529</ele>
        <time>2019-01-13T10:16:24Z</time>
      </trkpt>
      <trkpt lat="48.62215" lon="2.52839">
        <ele>33.482895</ele>
        <time>2019-01-13T10:16:26Z</time>
      </trkpt>
      <trkpt lat="48.62205" lon="2.5284">
        <ele>33.414196</ele>
        <time>2019-01-13T10:16:28Z</time>
      </trkpt>
      <trkpt lat="48.62194" lon="2.5284">
        <ele>33.807896</ele>
        <time>2019-01-13T10:16:30Z</time>
      </trkpt>
      <trkpt lat="48.62183" lon="2.52841">
        <ele>33.53574</ele>
        <time>2019-01-13T10:16:32Z</time>
      </trkpt>
      <trkpt lat="48.62173" lon="2.52842">
        <ele>33.157894</ele>
        <time>2019-01-13T10:16:34Z</time>
      </trkpt>
      <trkpt lat="48.62162" lon="2.52843">
        <ele>33.36399</ele>
        <time>2019-01-13T10:16:36Z</time>
      </trkpt>
      <trkpt lat="48.62152" lon="2.52844">
        <ele>33.160538</ele>
        <time>2019-01-13T10:16:38Z</time>
      </trkpt>
      <trkpt lat="48.62141" lon="2.52845">
        <ele>33.451187</ele>
        <time>2019-01-13T10:16:40Z</time>
      </trkpt>
      <trkpt lat="48.62131" lon="2.52845">
        <ele>33.652</ele>
        <time>2019-01-13T10:16:42Z</time>
      </trkpt>
      <trkpt lat="48.6212" lon="2.52845">
        <ele>33.11826</ele>
        <time>2019-01-13T10:16:44Z</time>
      </trkpt>
      <trkpt lat="48.62109" lon="2.52847">
        <ele>32.872528</ele>
        <time>2019-01-13T10:16:46Z</time>
      </trkpt>
      <trkpt lat="48.621" lon="2.52847">
        <ele>32.80119</ele>
        <time>2019-01-13T10:16:48Z</time>
      </trkpt>
      <trkpt lat="48.62089" lon="2.52847">
        <ele>32.832897</ele>
        <time>2019-01-13T10:16:50Z</time>
      </trkpt>
      <trkpt lat="48.62079" lon="2.52849">
        <ele>32.97822</ele>
        <time>2019-01-13T10:16:52Z</time>
      </trkpt>
      <trkpt lat="48.62069" lon="2.52849">
        <ele>32.761555</ele>
        <time>2019-01-13T10:16:54Z</time>
      </trkpt>
      <trkpt lat="48.62058" lon="2.5285">
        <ele>33.311146</ele>
        <time>2019-01-13T10:16:56Z</time>
      </trkpt>
      <trkpt lat="48.62048" lon="2.52852">
        <ele>32.98615</ele>
        <time>2019-01-13T10:16:58Z</time>
      </trkpt>
      <trkpt lat="48.62037" lon="2.52852">
        <ele>33.18696</ele>
        <time>2019-01-13T10:17:00Z</time>
      </trkpt>
      <trkpt lat="48.62028" lon="2.52853">
        <ele>32.766838</ele>
        <time>2019-01-13T10:17:02Z</time>
      </trkpt>
      <trkpt lat="48.62016" lon="2.52855">
        <ele>32.73513</ele>
        <time>2019-01-13T10:17:05Z</time>
      </trkpt>
      <trkpt lat="48.62006" lon="2.52858">
        <ele>32.835537</ele>
        <time>2019-01-13T10:17:08Z</time>
      </trkpt>
      <trkpt lat="48.61996" lon="2.52855">
        <ele>32.46298</ele>
        <time>2019-01-13T10:17:15Z</time>
      </trkpt>
      <trkpt lat="48.61985" lon="2.52856">
        <ele>32.61623</ele>
        <time>2019-01-13T10:17:19Z</time>
      </trkpt>
      <trkpt lat="48.61975" lon="2.52857">
        <ele>32.965008</ele>
        <time>2019-01-13T10:17:22Z</time>
      </trkpt>
      <trkpt lat="48.61965" lon="2.52858">
        <ele>32.983505</ele>
        <time>2019-01-13T10:17:25Z</time>
      </trkpt>
      <trkpt lat="48.61953" lon="2.52859">
        <ele>33.04956</ele>
        <time>2019-01-13T10:17:28Z</time>
      </trkpt>
      <trkpt lat="48.61943" lon="2.52861">
        <ele>32.589806</ele>
        <time>2019-01-13T10:17:31Z</time>
      </trkpt>
      <trkpt lat="48.61931" lon="2.52861">
        <ele>33.284725</ele>
        <time>2019-01-13T10:17:35Z</time>
      </trkpt>
      <trkpt lat="48.6192" lon="2.52863">
        <ele>33.284725</ele>
        <time>2019-01-13T10:17:38Z</time>
      </trkpt>
      <trkpt lat="48.61908" lon="2.52863">
        <ele>33.097122</ele>
        <time>2019-01-13T10:17:41Z</time>
      </trkpt>
      <trkpt lat="48.61898" lon="2.52865">
        <ele>33.155254</ele>
        <time>2019-01-13T10:17:43Z</time>
      </trkpt>
      <trkpt lat="48.61889" lon="2.52866">
        <ele>33.408913</ele>
        <time>2019-01-13T10:17:45Z</time>
      </trkpt>
      <trkpt lat="48.6188" lon="2.52866">
        <ele>33.858097</ele>
        <time>2019-01-13T10:17:47Z</time>
      </trkpt>
      <trkpt lat="48.6187" lon="2.52867">
        <ele>33.889805</ele>
        <time>2019-01-13T10:17:49Z</time>
      </trkpt>
      <trkpt lat="48.61861" lon="2.52868">
        <ele>33.810535</ele>
        <time>2019-01-13T10:17:51Z</time>
      </trkpt>
      <trkpt lat="48.61851" lon="2.52868">
        <ele>33.593872</ele>
        <time>2019-01-13T10:17:53Z</time>
      </trkpt>
      <trkpt lat="48.61841" lon="2.52868">
        <ele>33.218666</ele>
        <time>2019-01-13T10:17:55Z</time>
      </trkpt>
      <trkpt lat="48.61831" lon="2.5287">
        <ele>33.250374</ele>
        <time>2019-01-13T10:17:57Z</time>
      </trkpt>
      <trkpt lat="48.61821" lon="2.5287">
        <ele>33.18696</ele>
        <time>2019-01-13T10:17:59Z</time>
      </trkpt>
      <trkpt lat="48.61811" lon="2.52871">
        <ele>33.213383</ele>
        <time>2019-01-13T10:18:01Z</time>
      </trkpt>
      <trkpt lat="48.618" lon="2.52873">
        <ele>33.353424</ele>
        <time>2019-01-13T10:18:03Z</time>
      </trkpt>
      <trkpt lat="48.6179" lon="2.52874">
        <ele>33.68371</ele>
        <time>2019-01-13T10:18:05Z</time>
      </trkpt>
      <trkpt lat="48.61779" lon="2.52875">
        <ele>33.926796</ele>
        <time>2019-01-13T10:18:07Z</time>
      </trkpt>
      <trkpt lat="48.61769" lon="2.52876">
        <ele>33.75769</ele>
        <time>2019-01-13T10:18:09Z</time>
      </trkpt>
      <trkpt lat="48.61759" lon="2.52876">
        <ele>33.903015</ele>
        <time>2019-01-13T10:18:11Z</time>
      </trkpt>
      <trkpt lat="48.61748" lon="2.52877">
        <ele>33.670498</ele>
        <time>2019-01-13T10:18:13Z</time>
      </trkpt>
      <trkpt lat="48.61738" lon="2.52878">
        <ele>34.331066</ele>
        <time>2019-01-13T10:18:15Z</time>
      </trkpt>
      <trkpt lat="48.61728" lon="2.52879">
        <ele>34.590008</ele>
        <time>2019-01-13T10:18:17Z</time>
      </trkpt>
      <trkpt lat="48.61717" lon="2.52881">
        <ele>34.34692</ele>
        <time>2019-01-13T10:18:19Z</time>
      </trkpt>
      <trkpt lat="48.61706" lon="2.52881">
        <ele>34.106472</ele>
        <time>2019-01-13T10:18:21Z</time>
      </trkpt>
      <trkpt lat="48.61696" lon="2.52882">
        <ele>34.006065</ele>
        <time>2019-01-13T10:18:23Z</time>
      </trkpt>
      <trkpt lat="48.61685" lon="2.52883">
        <ele>34.01135</ele>
        <time>2019-01-13T10:18:25Z</time>
      </trkpt>
      <trkpt lat="48.61675" lon="2.52883">
        <ele>33.844887</ele>
        <time>2019-01-13T10:18:27Z</time>
      </trkpt>
      <trkpt lat="48.61663" lon="2.52884">
        <ele>34.22009</ele>
        <time>2019-01-13T10:18:29Z</time>
      </trkpt>
      <trkpt lat="48.61653" lon="2.52885">
        <ele>34.222733</ele>
        <time>2019-01-13T10:18:31Z</time>
      </trkpt>
      <trkpt lat="48.61642" lon="2.52886">
        <ele>34.191025</ele>
        <time>2019-01-13T10:18:33Z</time>
      </trkpt>
      <trkpt lat="48.61632" lon="2.52887">
        <ele>34.32578</ele>
        <time>2019-01-13T10:18:35Z</time>
      </trkpt>
      <trkpt lat="48.61622" lon="2.52887">
        <ele>34.629642</ele>
        <time>2019-01-13T10:18:37Z</time>
      </trkpt>
      <trkpt lat="48.61611" lon="2.52888">
        <ele>34.40505</ele>
        <time>2019-01-13T10:18:39Z</time>
      </trkpt>
      <trkpt lat="48.61601" lon="2.52889">
        <ele>34.085335</ele>
        <time>2019-01-13T10:18:41Z</time>
      </trkpt>
      <trkpt lat="48.61591" lon="2.5289">
        <ele>34.077408</ele>
        <time>2019-01-13T10:18:43Z</time>
      </trkpt>
      <trkpt lat="48.6158" lon="2.52891">
        <ele>34.315212</ele>
        <time>2019-01-13T10:18:45Z</time>
      </trkpt>
      <trkpt lat="48.61569" lon="2.52891">
        <ele>34.748543</ele>
        <time>2019-01-13T10:18:47Z</time>
      </trkpt>
      <trkpt lat="48.61558" lon="2.52892">
        <ele>34.66399</ele>
        <time>2019-01-13T10:18:49Z</time>
      </trkpt>
      <trkpt lat="48.61547" lon="2.52892">
        <ele>35.75525</ele>
        <time>2019-01-13T10:18:51Z</time>
      </trkpt>
      <trkpt lat="48.61537" lon="2.52892">
        <ele>35.32456</ele>
        <time>2019-01-13T10:18:53Z</time>
      </trkpt>
      <trkpt lat="48.61527" lon="2.52894">
        <ele>35.181877</ele>
        <time>2019-01-13T10:18:55Z</time>
      </trkpt>
      <trkpt lat="48.61516" lon="2.52894">
        <ele>35.261147</ele>
        <time>2019-01-13T10:18:57Z</time>
      </trkpt>
      <trkpt lat="48.61505" lon="2.52895">
        <ele>35.22151</ele>
        <time>2019-01-13T10:18:59Z</time>
      </trkpt>
      <trkpt lat="48.61495" lon="2.52897">
        <ele>34.991634</ele>
        <time>2019-01-13T10:19:01Z</time>
      </trkpt>
      <trkpt lat="48.61485" lon="2.52898">
        <ele>35.311348</ele>
        <time>2019-01-13T10:19:03Z</time>
      </trkpt>
      <trkpt lat="48.61475" lon="2.52899">
        <ele>36.02212</ele>
        <time>2019-01-13T10:19:05Z</time>
      </trkpt>
      <trkpt lat="48.61465" lon="2.529">
        <ele>35.44082</ele>
        <time>2019-01-13T10:19:07Z</time>
      </trkpt>
      <trkpt lat="48.61454" lon="2.529">
        <ele>35.56765</ele>
        <time>2019-01-13T10:19:09Z</time>
      </trkpt>
      <trkpt lat="48.61445" lon="2.52901">
        <ele>35.900574</ele>
        <time>2019-01-13T10:19:11Z</time>
      </trkpt>
      <trkpt lat="48.61435" lon="2.52902">
        <ele>35.66013</ele>
        <time>2019-01-13T10:19:13Z</time>
      </trkpt>
      <trkpt lat="48.61425" lon="2.52903">
        <ele>35.546513</ele>
        <time>2019-01-13T10:19:15Z</time>
      </trkpt>
      <trkpt lat="48.61416" lon="2.52903">
        <ele>35.67334</ele>
        <time>2019-01-13T10:19:17Z</time>
      </trkpt>
      <trkpt lat="48.61406" lon="2.52903">
        <ele>35.620495</ele>
        <time>2019-01-13T10:19:19Z</time>
      </trkpt>
      <trkpt lat="48.61397" lon="2.52904">
        <ele>35.823948</ele>
        <time>2019-01-13T10:19:21Z</time>
      </trkpt>
      <trkpt lat="48.61387" lon="2.52905">
        <ele>35.401184</ele>
        <time>2019-01-13T10:19:23Z</time>
      </trkpt>
      <trkpt lat="48.61378" lon="2.52906">
        <ele>35.583504</ele>
        <time>2019-01-13T10:19:25Z</time>
      </trkpt>
      <trkpt lat="48.61368" lon="2.52906">
        <ele>35.29021</ele>
        <time>2019-01-13T10:19:27Z</time>
      </trkpt>
      <trkpt lat="48.61359" lon="2.52907">
        <ele>35.61785</ele>
        <time>2019-01-13T10:19:29Z</time>
      </trkpt>
      <trkpt lat="48.6135" lon="2.52908">
        <ele>35.575577</ele>
        <time>2019-01-13T10:19:31Z</time>
      </trkpt>
      <trkpt lat="48.61341" lon="2.52908">
        <ele>35.927</ele>
        <time>2019-01-13T10:19:33Z</time>
      </trkpt>
      <trkpt lat="48.61332" lon="2.52909">
        <ele>35.98777</ele>
        <time>2019-01-13T10:19:35Z</time>
      </trkpt>
      <trkpt lat="48.6132" lon="2.5291">
        <ele>35.81602</ele>
        <time>2019-01-13T10:19:38Z</time>
      </trkpt>
      <trkpt lat="48.6131" lon="2.52911">
        <ele>35.541225</ele>
        <time>2019-01-13T10:19:41Z</time>
      </trkpt>
      <trkpt lat="48.613" lon="2.52913">
        <ele>35.41968</ele>
        <time>2019-01-13T10:19:44Z</time>
      </trkpt>
      <trkpt lat="48.61291" lon="2.52914">
        <ele>35.810738</ele>
        <time>2019-01-13T10:19:47Z</time>
      </trkpt>
      <trkpt lat="48.6128" lon="2.52914">
        <ele>35.374763</ele>
        <time>2019-01-13T10:19:50Z</time>
      </trkpt>
      <trkpt lat="48.61271" lon="2.52915">
        <ele>36.130455</ele>
        <time>2019-01-13T10:19:53Z</time>
      </trkpt>
      <trkpt lat="48.61259" lon="2.52918">
        <ele>36.25464</ele>
        <time>2019-01-13T10:19:56Z</time>
      </trkpt>
      <trkpt lat="48.61246" lon="2.5292">
        <ele>36.106674</ele>
        <time>2019-01-13T10:19:59Z</time>
      </trkpt>
      <trkpt lat="48.61233" lon="2.5292">
        <ele>36.384113</ele>
        <time>2019-01-13T10:20:02Z</time>
      </trkpt>
      <trkpt lat="48.61224" lon="2.5292">
        <ele>36.212364</ele>
        <time>2019-01-13T10:20:04Z</time>
      </trkpt>
      <trkpt lat="48.61214" lon="2.5292">
        <ele>36.595493</ele>
        <time>2019-01-13T10:20:06Z</time>
      </trkpt>
      <trkpt lat="48.61204" lon="2.52921">
        <ele>36.806877</ele>
        <time>2019-01-13T10:20:08Z</time>
      </trkpt>
      <trkpt lat="48.61191" lon="2.52923">
        <ele>36.793663</ele>
        <time>2019-01-13T10:20:11Z</time>
      </trkpt>
      <trkpt lat="48.61181" lon="2.52924">
        <ele>36.86765</ele>
        <time>2019-01-13T10:20:13Z</time>
      </trkpt>
      <trkpt lat="48.61171" lon="2.52925">
        <ele>37.234924</ele>
        <time>2019-01-13T10:20:15Z</time>
      </trkpt>
      <trkpt lat="48.61161" lon="2.52926">
        <ele>37.607483</ele>
        <time>2019-01-13T10:20:17Z</time>
      </trkpt>
      <trkpt lat="48.61151" lon="2.52926">
        <ele>37.351185</ele>
        <time>2019-01-13T10:20:19Z</time>
      </trkpt>
      <trkpt lat="48.61141" lon="2.52928">
        <ele>36.957485</ele>
        <time>2019-01-13T10:20:21Z</time>
      </trkpt>
      <trkpt lat="48.61131" lon="2.52929">
        <ele>36.796307</ele>
        <time>2019-01-13T10:20:23Z</time>
      </trkpt>
      <trkpt lat="48.6112" lon="2.52929">
        <ele>37.012974</ele>
        <time>2019-01-13T10:20:25Z</time>
      </trkpt>
      <trkpt lat="48.6111" lon="2.5293">
        <ele>36.830654</ele>
        <time>2019-01-13T10:20:27Z</time>
      </trkpt>
      <trkpt lat="48.611" lon="2.5293">
        <ele>37.002403</ele>
        <time>2019-01-13T10:20:29Z</time>
      </trkpt>
      <trkpt lat="48.61091" lon="2.5293">
        <ele>36.90728</ele>
        <time>2019-01-13T10:20:31Z</time>
      </trkpt>
      <trkpt lat="48.61081" lon="2.52929">
        <ele>36.45017</ele>
        <time>2019-01-13T10:20:33Z</time>
      </trkpt>
      <trkpt lat="48.61071" lon="2.5293">
        <ele>36.600777</ele>
        <time>2019-01-13T10:20:35Z</time>
      </trkpt>
      <trkpt lat="48.61062" lon="2.5293">
        <ele>36.7646</ele>
        <time>2019-01-13T10:20:37Z</time>
      </trkpt>
      <trkpt lat="48.61051" lon="2.52932">
        <ele>36.57964</ele>
        <time>2019-01-13T10:20:39Z</time>
      </trkpt>
      <trkpt lat="48.61041" lon="2.52931">
        <ele>37.213787</ele>
        <time>2019-01-13T10:20:41Z</time>
      </trkpt>
      <trkpt lat="48.61031" lon="2.52931">
        <ele>36.828014</ele>
        <time>2019-01-13T10:20:43Z</time>
      </trkpt>
      <trkpt lat="48.6102" lon="2.52933">
        <ele>36.93106</ele>
        <time>2019-01-13T10:20:45Z</time>
      </trkpt>
      <trkpt lat="48.6101" lon="2.52936">
        <ele>36.513584</ele>
        <time>2019-01-13T10:20:47Z</time>
      </trkpt>
      <trkpt lat="48.60999" lon="2.52937">
        <ele>37.100166</ele>
        <time>2019-01-13T10:20:49Z</time>
      </trkpt>
      <trkpt lat="48.60989" lon="2.52939">
        <ele>37.24285</ele>
        <time>2019-01-13T10:20:51Z</time>
      </trkpt>
      <trkpt lat="48.60979" lon="2.52939">
        <ele>36.98391</ele>
        <time>2019-01-13T10:20:53Z</time>
      </trkpt>
      <trkpt lat="48.60968" lon="2.5294">
        <ele>36.981266</ele>
        <time>2019-01-13T10:20:55Z</time>
      </trkpt>
      <trkpt lat="48.60958" lon="2.52942">
        <ele>37.24285</ele>
        <time>2019-01-13T10:20:57Z</time>
      </trkpt>
      <trkpt lat="48.60948" lon="2.52944">
        <ele>36.90728</ele>
        <time>2019-01-13T10:20:59Z</time>
      </trkpt>
      <trkpt lat="48.60938" lon="2.52945">
        <ele>37.221714</ele>
        <time>2019-01-13T10:21:01Z</time>
      </trkpt>
      <trkpt lat="48.60927" lon="2.52945">
        <ele>37.28777</ele>
        <time>2019-01-13T10:21:03Z</time>
      </trkpt>
      <trkpt lat="48.60917" lon="2.52946">
        <ele>37.123947</ele>
        <time>2019-01-13T10:21:05Z</time>
      </trkpt>
      <trkpt lat="48.60906" lon="2.52947">
        <ele>37.04732</ele>
        <time>2019-01-13T10:21:07Z</time>
      </trkpt>
      <trkpt lat="48.60895" lon="2.52948">
        <ele>37.398746</ele>
        <time>2019-01-13T10:21:09Z</time>
      </trkpt>
      <trkpt lat="48.60885" lon="2.52948">
        <ele>36.862362</ele>
        <time>2019-01-13T10:21:11Z</time>
      </trkpt>
      <trkpt lat="48.60873" lon="2.5295">
        <ele>37.68411</ele>
        <time>2019-01-13T10:21:13Z</time>
      </trkpt>
      <trkpt lat="48.60863" lon="2.5295">
        <ele>37.70789</ele>
        <time>2019-01-13T10:21:15Z</time>
      </trkpt>
      <trkpt lat="48.60852" lon="2.52951">
        <ele>37.76338</ele>
        <time>2019-01-13T10:21:17Z</time>
      </trkpt>
      <trkpt lat="48.60841" lon="2.52952">
        <ele>38.249557</ele>
        <time>2019-01-13T10:21:19Z</time>
      </trkpt>
      <trkpt lat="48.6083" lon="2.52953">
        <ele>37.771305</ele>
        <time>2019-01-13T10:21:21Z</time>
      </trkpt>
      <trkpt lat="48.6082" lon="2.52954">
        <ele>37.750168</ele>
        <time>2019-01-13T10:21:23Z</time>
      </trkpt>
      <trkpt lat="48.60809" lon="2.52955">
        <ele>37.686752</ele>
        <time>2019-01-13T10:21:25Z</time>
      </trkpt>
      <trkpt lat="48.60799" lon="2.52955">
        <ele>37.710533</ele>
        <time>2019-01-13T10:21:27Z</time>
      </trkpt>
      <trkpt lat="48.60789" lon="2.52955">
        <ele>37.573135</ele>
        <time>2019-01-13T10:21:29Z</time>
      </trkpt>
      <trkpt lat="48.60778" lon="2.52955">
        <ele>37.845287</ele>
        <time>2019-01-13T10:21:31Z</time>
      </trkpt>
      <trkpt lat="48.60768" lon="2.52956">
        <ele>37.56521</ele>
        <time>2019-01-13T10:21:33Z</time>
      </trkpt>
      <trkpt lat="48.60758" lon="2.52957">
        <ele>37.583702</ele>
        <time>2019-01-13T10:21:35Z</time>
      </trkpt>
      <trkpt lat="48.60748" lon="2.52958">
        <ele>37.581062</ele>
        <time>2019-01-13T10:21:37Z</time>
      </trkpt>
      <trkpt lat="48.60737" lon="2.52961">
        <ele>37.61277</ele>
        <time>2019-01-13T10:21:39Z</time>
      </trkpt>
      <trkpt lat="48.60727" lon="2.52963">
        <ele>37.57578</ele>
        <time>2019-01-13T10:21:41Z</time>
      </trkpt>
      <trkpt lat="48.60717" lon="2.52963">
        <ele>37.89021</ele>
        <time>2019-01-13T10:21:43Z</time>
      </trkpt>
      <trkpt lat="48.60706" lon="2.52964">
        <ele>37.76866</ele>
        <time>2019-01-13T10:21:45Z</time>
      </trkpt>
      <trkpt lat="48.60695" lon="2.52965">
        <ele>38.03289</ele>
        <time>2019-01-13T10:21:47Z</time>
      </trkpt>
      <trkpt lat="48.60684" lon="2.52965">
        <ele>37.63919</ele>
        <time>2019-01-13T10:21:49Z</time>
      </trkpt>
      <trkpt lat="48.60674" lon="2.52966">
        <ele>38.02232</ele>
        <time>2019-01-13T10:21:51Z</time>
      </trkpt>
      <trkpt lat="48.60663" lon="2.52967">
        <ele>37.71846</ele>
        <time>2019-01-13T10:21:53Z</time>
      </trkpt>
      <trkpt lat="48.60652" lon="2.52968">
        <ele>37.491226</ele>
        <time>2019-01-13T10:21:55Z</time>
      </trkpt>
      <trkpt lat="48.60641" lon="2.52968">
        <ele>37.68411</ele>
        <time>2019-01-13T10:21:57Z</time>
      </trkpt>
      <trkpt lat="48.6063" lon="2.52968">
        <ele>37.411957</ele>
        <time>2019-01-13T10:21:59Z</time>
      </trkpt>
      <trkpt lat="48.6062" lon="2.52969">
        <ele>37.45423</ele>
        <time>2019-01-13T10:22:01Z</time>
      </trkpt>
      <trkpt lat="48.60609" lon="2.5297">
        <ele>37.470085</ele>
        <time>2019-01-13T10:22:03Z</time>
      </trkpt>
      <trkpt lat="48.60599" lon="2.52971">
        <ele>37.42781</ele>
        <time>2019-01-13T10:22:05Z</time>
      </trkpt>
      <trkpt lat="48.60589" lon="2.52971">
        <ele>37.448948</ele>
        <time>2019-01-13T10:22:07Z</time>
      </trkpt>
      <trkpt lat="48.60578" lon="2.52973">
        <ele>37.15037</ele>
        <time>2019-01-13T10:22:09Z</time>
      </trkpt>
      <trkpt lat="48.60568" lon="2.52973">
        <ele>37.100166</ele>
        <time>2019-01-13T10:22:11Z</time>
      </trkpt>
      <trkpt lat="48.60557" lon="2.52975">
        <ele>37.063175</ele>
        <time>2019-01-13T10:22:13Z</time>
      </trkpt>
      <trkpt lat="48.60546" lon="2.52976">
        <ele>37.36175</ele>
        <time>2019-01-13T10:22:15Z</time>
      </trkpt>
      <trkpt lat="48.60535" lon="2.52978">
        <ele>37.20586</ele>
        <time>2019-01-13T10:22:17Z</time>
      </trkpt>
      <trkpt lat="48.60524" lon="2.52979">
        <ele>37.20586</ele>
        <time>2019-01-13T10:22:19Z</time>
      </trkpt>
      <trkpt lat="48.60513" lon="2.5298">
        <ele>37.100166</ele>
        <time>2019-01-13T10:22:21Z</time>
      </trkpt>
      <trkpt lat="48.60502" lon="2.52981">
        <ele>37.425167</ele>
        <time>2019-01-13T10:22:23Z</time>
      </trkpt>
      <trkpt lat="48.60491" lon="2.52982">
        <ele>37.160942</ele>
        <time>2019-01-13T10:22:25Z</time>
      </trkpt>
      <trkpt lat="48.6048" lon="2.52984">
        <ele>37.43045</ele>
        <time>2019-01-13T10:22:27Z</time>
      </trkpt>
      <trkpt lat="48.60469" lon="2.52984">
        <ele>37.05261</ele>
        <time>2019-01-13T10:22:29Z</time>
      </trkpt>
      <trkpt lat="48.60459" lon="2.52984">
        <ele>36.925777</ele>
        <time>2019-01-13T10:22:31Z</time>
      </trkpt>
      <trkpt lat="48.60448" lon="2.52985">
        <ele>37.41724</ele>
        <time>2019-01-13T10:22:33Z</time>
      </trkpt>
      <trkpt lat="48.60437" lon="2.52986">
        <ele>37.192646</ele>
        <time>2019-01-13T10:22:35Z</time>
      </trkpt>
      <trkpt lat="48.60426" lon="2.52986">
        <ele>37.031467</ele>
        <time>2019-01-13T10:22:37Z</time>
      </trkpt>
      <trkpt lat="48.60416" lon="2.52986">
        <ele>37.237568</ele>
        <time>2019-01-13T10:22:39Z</time>
      </trkpt>
      <trkpt lat="48.60405" lon="2.52987">
        <ele>36.851795</ele>
        <time>2019-01-13T10:22:41Z</time>
      </trkpt>
      <trkpt lat="48.60395" lon="2.52988">
        <ele>36.761955</ele>
        <time>2019-01-13T10:22:43Z</time>
      </trkpt>
      <trkpt lat="48.60383" lon="2.52989">
        <ele>36.899357</ele>
        <time>2019-01-13T10:22:45Z</time>
      </trkpt>
      <trkpt lat="48.60371" lon="2.52989">
        <ele>37.129234</ele>
        <time>2019-01-13T10:22:47Z</time>
      </trkpt>
      <trkpt lat="48.6036" lon="2.52989">
        <ele>36.946915</ele>
        <time>2019-01-13T10:22:49Z</time>
      </trkpt>
      <trkpt lat="48.60349" lon="2.52989">
        <ele>37.005047</ele>
        <time>2019-01-13T10:22:51Z</time>
      </trkpt>
      <trkpt lat="48.60338" lon="2.5299">
        <ele>36.933704</ele>
        <time>2019-01-13T10:22:53Z</time>
      </trkpt>
      <trkpt lat="48.60328" lon="2.52991">
        <ele>36.946915</ele>
        <time>2019-01-13T10:22:55Z</time>
      </trkpt>
      <trkpt lat="48.60317" lon="2.52992">
        <ele>36.978622</ele>
        <time>2019-01-13T10:22:57Z</time>
      </trkpt>
      <trkpt lat="48.60307" lon="2.52993">
        <ele>37.071102</ele>
        <time>2019-01-13T10:22:59Z</time>
      </trkpt>
      <trkpt lat="48.60296" lon="2.52993">
        <ele>36.909924</ele>
        <time>2019-01-13T10:23:01Z</time>
      </trkpt>
      <trkpt lat="48.60286" lon="2.52994">
        <ele>36.576996</ele>
        <time>2019-01-13T10:23:03Z</time>
      </trkpt>
      <trkpt lat="48.60275" lon="2.52995">
        <ele>36.81216</ele>
        <time>2019-01-13T10:23:05Z</time>
      </trkpt>
      <trkpt lat="48.60265" lon="2.52996">
        <ele>36.61399</ele>
        <time>2019-01-13T10:23:07Z</time>
      </trkpt>
      <trkpt lat="48.60255" lon="2.52997">
        <ele>36.51094</ele>
        <time>2019-01-13T10:23:09Z</time>
      </trkpt>
      <trkpt lat="48.60244" lon="2.52998">
        <ele>36.846508</ele>
        <time>2019-01-13T10:23:11Z</time>
      </trkpt>
      <trkpt lat="48.60233" lon="2.52998">
        <ele>36.632484</ele>
        <time>2019-01-13T10:23:13Z</time>
      </trkpt>
      <trkpt lat="48.60224" lon="2.53">
        <ele>36.703827</ele>
        <time>2019-01-13T10:23:15Z</time>
      </trkpt>
      <trkpt lat="48.60211" lon="2.53">
        <ele>36.561146</ele>
        <time>2019-01-13T10:23:18Z</time>
      </trkpt>
      <trkpt lat="48.60201" lon="2.52999">
        <ele>36.42903</ele>
        <time>2019-01-13T10:23:21Z</time>
      </trkpt>
      <trkpt lat="48.60192" lon="2.53">
        <ele>36.53472</ele>
        <time>2019-01-13T10:23:24Z</time>
      </trkpt>
      <trkpt lat="48.60183" lon="2.53002">
        <ele>36.156876</ele>
        <time>2019-01-13T10:23:27Z</time>
      </trkpt>
      <trkpt lat="48.60171" lon="2.53003">
        <ele>36.466022</ele>
        <time>2019-01-13T10:23:30Z</time>
      </trkpt>
      <trkpt lat="48.60162" lon="2.53005">
        <ele>36.00098</ele>
        <time>2019-01-13T10:23:32Z</time>
      </trkpt>
      <trkpt lat="48.60149" lon="2.53009">
        <ele>36.225574</ele>
        <time>2019-01-13T10:23:35Z</time>
      </trkpt>
      <trkpt lat="48.60138" lon="2.53012">
        <ele>36.444885</ele>
        <time>2019-01-13T10:23:38Z</time>
      </trkpt>
      <trkpt lat="48.60128" lon="2.53014">
        <ele>36.6457</ele>
        <time>2019-01-13T10:23:41Z</time>
      </trkpt>
      <trkpt lat="48.60115" lon="2.53013">
        <ele>36.399963</ele>
        <time>2019-01-13T10:23:44Z</time>
      </trkpt>
      <trkpt lat="48.60106" lon="2.53013">
        <ele>36.39204</ele>
        <time>2019-01-13T10:23:46Z</time>
      </trkpt>
      <trkpt lat="48.60095" lon="2.53013">
        <ele>36.772526</ele>
        <time>2019-01-13T10:23:48Z</time>
      </trkpt>
      <trkpt lat="48.60084" lon="2.53013">
        <ele>36.180656</ele>
        <time>2019-01-13T10:23:50Z</time>
      </trkpt>
      <trkpt lat="48.60074" lon="2.53014">
        <ele>36.42903</ele>
        <time>2019-01-13T10:23:52Z</time>
      </trkpt>
      <trkpt lat="48.60064" lon="2.53017">
        <ele>35.7896</ele>
        <time>2019-01-13T10:23:54Z</time>
      </trkpt>
      <trkpt lat="48.60054" lon="2.53017">
        <ele>36.082893</ele>
        <time>2019-01-13T10:23:56Z</time>
      </trkpt>
      <trkpt lat="48.60044" lon="2.53019">
        <ele>36.17273</ele>
        <time>2019-01-13T10:23:58Z</time>
      </trkpt>
      <trkpt lat="48.60034" lon="2.5302">
        <ele>36.201794</ele>
        <time>2019-01-13T10:24:00Z</time>
      </trkpt>
      <trkpt lat="48.60024" lon="2.53021">
        <ele>36.43696</ele>
        <time>2019-01-13T10:24:02Z</time>
      </trkpt>
      <trkpt lat="48.60014" lon="2.53023">
        <ele>36.60342</ele>
        <time>2019-01-13T10:24:04Z</time>
      </trkpt>
      <trkpt lat="48.60004" lon="2.53023">
        <ele>36.34448</ele>
        <time>2019-01-13T10:24:06Z</time>
      </trkpt>
      <trkpt lat="48.59995" lon="2.53023">
        <ele>36.6457</ele>
        <time>2019-01-13T10:24:08Z</time>
      </trkpt>
      <trkpt lat="48.59985" lon="2.53023">
        <ele>36.851795</ele>
        <time>2019-01-13T10:24:10Z</time>
      </trkpt>
      <trkpt lat="48.59976" lon="2.53025">
        <ele>36.666836</ele>
        <time>2019-01-13T10:24:12Z</time>
      </trkpt>
      <trkpt lat="48.59966" lon="2.53026">
        <ele>36.767242</ele>
        <time>2019-01-13T10:24:14Z</time>
      </trkpt>
      <trkpt lat="48.59957" lon="2.53026">
        <ele>36.99976</ele>
        <time>2019-01-13T10:24:16Z</time>
      </trkpt>
      <trkpt lat="48.59947" lon="2.53026">
        <ele>36.970695</ele>
        <time>2019-01-13T10:24:18Z</time>
      </trkpt>
      <trkpt lat="48.59937" lon="2.53027">
        <ele>36.59021</ele>
        <time>2019-01-13T10:24:20Z</time>
      </trkpt>
      <trkpt lat="48.59926" lon="2.53028">
        <ele>36.74346</ele>
        <time>2019-01-13T10:24:22Z</time>
      </trkpt>
      <trkpt lat="48.59916" lon="2.53029">
        <ele>36.563786</ele>
        <time>2019-01-13T10:24:24Z</time>
      </trkpt>
      <trkpt lat="48.59906" lon="2.53029">
        <ele>36.540005</ele>
        <time>2019-01-13T10:24:26Z</time>
      </trkpt>
      <trkpt lat="48.59896" lon="2.53031">
        <ele>36.70911</ele>
        <time>2019-01-13T10:24:28Z</time>
      </trkpt>
      <trkpt lat="48.59885" lon="2.53031">
        <ele>36.761955</ele>
        <time>2019-01-13T10:24:30Z</time>
      </trkpt>
      <trkpt lat="48.59876" lon="2.53032">
        <ele>36.59285</ele>
        <time>2019-01-13T10:24:32Z</time>
      </trkpt>
      <trkpt lat="48.59865" lon="2.53032">
        <ele>36.701183</ele>
        <time>2019-01-13T10:24:34Z</time>
      </trkpt>
      <trkpt lat="48.59855" lon="2.53033">
        <ele>36.717037</ele>
        <time>2019-01-13T10:24:36Z</time>
      </trkpt>
      <trkpt lat="48.59844" lon="2.53035">
        <ele>36.1833</ele>
        <time>2019-01-13T10:24:38Z</time>
      </trkpt>
      <trkpt lat="48.59834" lon="2.53037">
        <ele>36.505657</ele>
        <time>2019-01-13T10:24:40Z</time>
      </trkpt>
      <trkpt lat="48.59823" lon="2.53037">
        <ele>36.27842</ele>
        <time>2019-01-13T10:24:42Z</time>
      </trkpt>
      <trkpt lat="48.59813" lon="2.53037">
        <ele>36.399963</ele>
        <time>2019-01-13T10:24:44Z</time>
      </trkpt>
      <trkpt lat="48.59802" lon="2.53037">
        <ele>36.2335</ele>
        <time>2019-01-13T10:24:46Z</time>
      </trkpt>
      <trkpt lat="48.59791" lon="2.53038">
        <ele>37.306267</ele>
        <time>2019-01-13T10:24:48Z</time>
      </trkpt>
      <trkpt lat="48.59781" lon="2.53039">
        <ele>36.75139</ele>
        <time>2019-01-13T10:24:50Z</time>
      </trkpt>
      <trkpt lat="48.5977" lon="2.53041">
        <ele>37.068462</ele>
        <time>2019-01-13T10:24:52Z</time>
      </trkpt>
      <trkpt lat="48.5976" lon="2.53042">
        <ele>37.58899</ele>
        <time>2019-01-13T10:24:54Z</time>
      </trkpt>
      <trkpt lat="48.59749" lon="2.53043">
        <ele>36.656265</ele>
        <time>2019-01-13T10:24:56Z</time>
      </trkpt>
      <trkpt lat="48.59738" lon="2.53044">
        <ele>36.48716</ele>
        <time>2019-01-13T10:24:58Z</time>
      </trkpt>
      <trkpt lat="48.59728" lon="2.53044">
        <ele>37.641834</ele>
        <time>2019-01-13T10:25:00Z</time>
      </trkpt>
      <trkpt lat="48.59718" lon="2.53046">
        <ele>36.841225</ele>
        <time>2019-01-13T10:25:02Z</time>
      </trkpt>
      <trkpt lat="48.59709" lon="2.53046">
        <ele>36.33919</ele>
        <time>2019-01-13T10:25:04Z</time>
      </trkpt>
      <trkpt lat="48.597" lon="2.53045">
        <ele>36.735535</ele>
        <time>2019-01-13T10:25:06Z</time>
      </trkpt>
      <trkpt lat="48.59688" lon="2.53049">
        <ele>35.93228</ele>
        <time>2019-01-13T10:25:09Z</time>
      </trkpt>
      <trkpt lat="48.59676" lon="2.53051">
        <ele>37.216427</ele>
        <time>2019-01-13T10:25:12Z</time>
      </trkpt>
      <trkpt lat="48.59666" lon="2.5305">
        <ele>36.386753</ele>
        <time>2019-01-13T10:25:14Z</time>
      </trkpt>
      <trkpt lat="48.59657" lon="2.5305">
        <ele>37.121307</ele>
        <time>2019-01-13T10:25:16Z</time>
      </trkpt>
      <trkpt lat="48.59643" lon="2.53052">
        <ele>35.82659</ele>
        <time>2019-01-13T10:25:19Z</time>
      </trkpt>
      <trkpt lat="48.59634" lon="2.53057">
        <ele>35.982487</ele>
        <time>2019-01-13T10:25:21Z</time>
      </trkpt>
      <trkpt lat="48.59625" lon="2.53061">
        <ele>36.47395</ele>
        <time>2019-01-13T10:25:23Z</time>
      </trkpt>
      <trkpt lat="48.59614" lon="2.53063">
        <ele>36.175373</ele>
        <time>2019-01-13T10:25:25Z</time>
      </trkpt>
      <trkpt lat="48.59604" lon="2.53063">
        <ele>35.781673</ele>
        <time>2019-01-13T10:25:27Z</time>
      </trkpt>
      <trkpt lat="48.59592" lon="2.53064">
        <ele>35.61785</ele>
        <time>2019-01-13T10:25:29Z</time>
      </trkpt>
      <trkpt lat="48.59581" lon="2.53063">
        <ele>35.213585</ele>
        <time>2019-01-13T10:25:31Z</time>
      </trkpt>
      <trkpt lat="48.5957" lon="2.53064">
        <ele>35.337772</ele>
        <time>2019-01-13T10:25:33Z</time>
      </trkpt>
      <trkpt lat="48.59559" lon="2.53065">
        <ele>35.60464</ele>
        <time>2019-01-13T10:25:35Z</time>
      </trkpt>
      <trkpt lat="48.59547" lon="2.53065">
        <ele>35.607285</ele>
        <time>2019-01-13T10:25:37Z</time>
      </trkpt>
      <trkpt lat="48.59536" lon="2.53067">
        <ele>35.52009</ele>
        <time>2019-01-13T10:25:39Z</time>
      </trkpt>
      <trkpt lat="48.59525" lon="2.53068">
        <ele>35.467243</ele>
        <time>2019-01-13T10:25:41Z</time>
      </trkpt>
      <trkpt lat="48.59514" lon="2.53067">
        <ele>35.712975</ele>
        <time>2019-01-13T10:25:43Z</time>
      </trkpt>
      <trkpt lat="48.59502" lon="2.53068">
        <ele>35.995697</ele>
        <time>2019-01-13T10:25:45Z</time>
      </trkpt>
      <trkpt lat="48.59491" lon="2.53069">
        <ele>35.665413</ele>
        <time>2019-01-13T10:25:47Z</time>
      </trkpt>
      <trkpt lat="48.5948" lon="2.53069">
        <ele>35.52009</ele>
        <time>2019-01-13T10:25:49Z</time>
      </trkpt>
      <trkpt lat="48.59469" lon="2.53071">
        <ele>35.269073</ele>
        <time>2019-01-13T10:25:51Z</time>
      </trkpt>
      <trkpt lat="48.59459" lon="2.53072">
        <ele>34.970493</ele>
        <time>2019-01-13T10:25:53Z</time>
      </trkpt>
      <trkpt lat="48.59448" lon="2.53073">
        <ele>34.627</ele>
        <time>2019-01-13T10:25:55Z</time>
      </trkpt>
      <trkpt lat="48.59439" lon="2.53074">
        <ele>34.751186</ele>
        <time>2019-01-13T10:25:57Z</time>
      </trkpt>
      <trkpt lat="48.59429" lon="2.53075">
        <ele>34.671917</ele>
        <time>2019-01-13T10:25:59Z</time>
      </trkpt>
      <trkpt lat="48.5942" lon="2.53077">
        <ele>34.714195</ele>
        <time>2019-01-13T10:26:01Z</time>
      </trkpt>
      <trkpt lat="48.59409" lon="2.53078">
        <ele>34.793465</ele>
        <time>2019-01-13T10:26:03Z</time>
      </trkpt>
      <trkpt lat="48.59396" lon="2.53079">
        <ele>34.560944</ele>
        <time>2019-01-13T10:26:05Z</time>
      </trkpt>
      <trkpt lat="48.59385" lon="2.5308">
        <ele>34.471104</ele>
        <time>2019-01-13T10:26:07Z</time>
      </trkpt>
      <trkpt lat="48.59375" lon="2.53085">
        <ele>34.13818</ele>
        <time>2019-01-13T10:26:09Z</time>
      </trkpt>
      <trkpt lat="48.59366" lon="2.53089">
        <ele>34.183098</ele>
        <time>2019-01-13T10:26:11Z</time>
      </trkpt>
      <trkpt lat="48.59356" lon="2.53096">
        <ele>34.25444</ele>
        <time>2019-01-13T10:26:13Z</time>
      </trkpt>
      <trkpt lat="48.59348" lon="2.53104">
        <ele>34.368057</ele>
        <time>2019-01-13T10:26:15Z</time>
      </trkpt>
      <trkpt lat="48.59336" lon="2.53114">
        <ele>34.28086</ele>
        <time>2019-01-13T10:26:18Z</time>
      </trkpt>
      <trkpt lat="48.59326" lon="2.5312">
        <ele>34.27822</ele>
        <time>2019-01-13T10:26:20Z</time>
      </trkpt>
      <trkpt lat="48.59317" lon="2.53126">
        <ele>34.25444</ele>
        <time>2019-01-13T10:26:22Z</time>
      </trkpt>
      <trkpt lat="48.59309" lon="2.53134">
        <ele>34.124966</ele>
        <time>2019-01-13T10:26:24Z</time>
      </trkpt>
      <trkpt lat="48.59299" lon="2.53141">
        <ele>34.378624</ele>
        <time>2019-01-13T10:26:26Z</time>
      </trkpt>
      <trkpt lat="48.59289" lon="2.53148">
        <ele>34.47903</ele>
        <time>2019-01-13T10:26:28Z</time>
      </trkpt>
      <trkpt lat="48.5928" lon="2.53155">
        <ele>34.574154</ele>
        <time>2019-01-13T10:26:30Z</time>
      </trkpt>
      <trkpt lat="48.5927" lon="2.53162">
        <ele>34.444683</ele>
        <time>2019-01-13T10:26:32Z</time>
      </trkpt>
      <trkpt lat="48.59261" lon="2.5317">
        <ele>34.550373</ele>
        <time>2019-01-13T10:26:34Z</time>
      </trkpt>
      <trkpt lat="48.59251" lon="2.53179">
        <ele>34.12761</ele>
        <time>2019-01-13T10:26:36Z</time>
      </trkpt>
      <trkpt lat="48.59242" lon="2.53187">
        <ele>34.013992</ele>
        <time>2019-01-13T10:26:38Z</time>
      </trkpt>
      <trkpt lat="48.59232" lon="2.53194">
        <ele>33.900375</ele>
        <time>2019-01-13T10:26:40Z</time>
      </trkpt>
      <trkpt lat="48.59222" lon="2.53204">
        <ele>33.913586</ele>
        <time>2019-01-13T10:26:42Z</time>
      </trkpt>
      <trkpt lat="48.59212" lon="2.53212">
        <ele>33.79468</ele>
        <time>2019-01-13T10:26:44Z</time>
      </trkpt>
      <trkpt lat="48.59202" lon="2.53221">
        <ele>33.765617</ele>
        <time>2019-01-13T10:26:46Z</time>
      </trkpt>
      <trkpt lat="48.59193" lon="2.53231">
        <ele>33.818462</ele>
        <time>2019-01-13T10:26:48Z</time>
      </trkpt>
      <trkpt lat="48.59184" lon="2.53239">
        <ele>33.625576</ele>
        <time>2019-01-13T10:26:50Z</time>
      </trkpt>
      <trkpt lat="48.59175" lon="2.53247">
        <ele>33.41684</ele>
        <time>2019-01-13T10:26:52Z</time>
      </trkpt>
      <trkpt lat="48.59166" lon="2.53254">
        <ele>33.308506</ele>
        <time>2019-01-13T10:26:54Z</time>
      </trkpt>
      <trkpt lat="48.59156" lon="2.53263">
        <ele>33.29001</ele>
        <time>2019-01-13T10:26:56Z</time>
      </trkpt>
      <trkpt lat="48.59147" lon="2.5327">
        <ele>33.250374</ele>
        <time>2019-01-13T10:26:58Z</time>
      </trkpt>
      <trkpt lat="48.59137" lon="2.53277">
        <ele>33.461758</ele>
        <time>2019-01-13T10:27:00Z</time>
      </trkpt>
      <trkpt lat="48.59127" lon="2.53285">
        <ele>33.514603</ele>
        <time>2019-01-13T10:27:02Z</time>
      </trkpt>
      <trkpt lat="48.59118" lon="2.53292">
        <ele>33.06013</ele>
        <time>2019-01-13T10:27:04Z</time>
      </trkpt>
      <trkpt lat="48.59109" lon="2.533">
        <ele>32.79062</ele>
        <time>2019-01-13T10:27:06Z</time>
      </trkpt>
      <trkpt lat="48.59098" lon="2.53309">
        <ele>32.8144</ele>
        <time>2019-01-13T10:27:08Z</time>
      </trkpt>
      <trkpt lat="48.59088" lon="2.53319">
        <ele>33.112976</ele>
        <time>2019-01-13T10:27:10Z</time>
      </trkpt>
      <trkpt lat="48.59078" lon="2.53329">
        <ele>33.398342</ele>
        <time>2019-01-13T10:27:12Z</time>
      </trkpt>
      <trkpt lat="48.59068" lon="2.53339">
        <ele>33.044277</ele>
        <time>2019-01-13T10:27:14Z</time>
      </trkpt>
      <trkpt lat="48.59059" lon="2.53348">
        <ele>32.972935</ele>
        <time>2019-01-13T10:27:16Z</time>
      </trkpt>
      <trkpt lat="48.5905" lon="2.53356">
        <ele>32.809116</ele>
        <time>2019-01-13T10:27:18Z</time>
      </trkpt>
      <trkpt lat="48.5904" lon="2.53365">
        <ele>32.647938</ele>
        <time>2019-01-13T10:27:21Z</time>
      </trkpt>
      <trkpt lat="48.59031" lon="2.53373">
        <ele>33.10241</ele>
        <time>2019-01-13T10:27:24Z</time>
      </trkpt>
      <trkpt lat="48.59023" lon="2.5338">
        <ele>33.297935</ele>
        <time>2019-01-13T10:27:26Z</time>
      </trkpt>
      <trkpt lat="48.59012" lon="2.53388">
        <ele>34.52131</ele>
        <time>2019-01-13T10:27:29Z</time>
      </trkpt>
      <trkpt lat="48.59001" lon="2.53396">
        <ele>33.657284</ele>
        <time>2019-01-13T10:27:32Z</time>
      </trkpt>
      <trkpt lat="48.58992" lon="2.53403">
        <ele>33.633503</ele>
        <time>2019-01-13T10:27:34Z</time>
      </trkpt>
      <trkpt lat="48.58984" lon="2.53411">
        <ele>33.588585</ele>
        <time>2019-01-13T10:27:36Z</time>
      </trkpt>
      <trkpt lat="48.58976" lon="2.53418">
        <ele>33.427406</ele>
        <time>2019-01-13T10:27:38Z</time>
      </trkpt>
      <trkpt lat="48.58965" lon="2.53427">
        <ele>33.192245</ele>
        <time>2019-01-13T10:27:41Z</time>
      </trkpt>
      <trkpt lat="48.58957" lon="2.53434">
        <ele>32.928017</ele>
        <time>2019-01-13T10:27:43Z</time>
      </trkpt>
      <trkpt lat="48.58945" lon="2.53441">
        <ele>33.01257</ele>
        <time>2019-01-13T10:27:46Z</time>
      </trkpt>
      <trkpt lat="48.58935" lon="2.53451">
        <ele>32.914806</ele>
        <time>2019-01-13T10:27:49Z</time>
      </trkpt>
      <trkpt lat="48.58927" lon="2.53459">
        <ele>33.020496</ele>
        <time>2019-01-13T10:27:52Z</time>
      </trkpt>
      <trkpt lat="48.58918" lon="2.53463">
        <ele>33.229237</ele>
        <time>2019-01-13T10:27:56Z</time>
      </trkpt>
      <trkpt lat="48.5891" lon="2.53471">
        <ele>32.703423</ele>
        <time>2019-01-13T10:27:59Z</time>
      </trkpt>
      <trkpt lat="48.58904" lon="2.53482">
        <ele>32.87517</ele>
        <time>2019-01-13T10:28:02Z</time>
      </trkpt>
      <trkpt lat="48.58896" lon="2.53489">
        <ele>33.097122</ele>
        <time>2019-01-13T10:28:05Z</time>
      </trkpt>
      <trkpt lat="48.58885" lon="2.53499">
        <ele>33.17639</ele>
        <time>2019-01-13T10:28:08Z</time>
      </trkpt>
      <trkpt lat="48.58873" lon="2.53509">
        <ele>33.673138</ele>
        <time>2019-01-13T10:28:11Z</time>
      </trkpt>
      <trkpt lat="48.58862" lon="2.53519">
        <ele>33.482895</ele>
        <time>2019-01-13T10:28:14Z</time>
      </trkpt>
      <trkpt lat="48.5885" lon="2.53528">
        <ele>33.435333</ele>
        <time>2019-01-13T10:28:17Z</time>
      </trkpt>
      <trkpt lat="48.58837" lon="2.53537">
        <ele>33.43005</ele>
        <time>2019-01-13T10:28:20Z</time>
      </trkpt>
      <trkpt lat="48.58827" lon="2.53543">
        <ele>33.551594</ele>
        <time>2019-01-13T10:28:22Z</time>
      </trkpt>
      <trkpt lat="48.58818" lon="2.5355">
        <ele>33.60444</ele>
        <time>2019-01-13T10:28:24Z</time>
      </trkpt>
      <trkpt lat="48.5881" lon="2.53556">
        <ele>33.776188</ele>
        <time>2019-01-13T10:28:26Z</time>
      </trkpt>
      <trkpt lat="48.58799" lon="2.53568">
        <ele>33.61501</ele>
        <time>2019-01-13T10:28:29Z</time>
      </trkpt>
      <trkpt lat="48.58789" lon="2.53574">
        <ele>33.68899</ele>
        <time>2019-01-13T10:28:31Z</time>
      </trkpt>
      <trkpt lat="48.5878" lon="2.53581">
        <ele>34.19895</ele>
        <time>2019-01-13T10:28:33Z</time>
      </trkpt>
      <trkpt lat="48.58769" lon="2.53591">
        <ele>34.167244</ele>
        <time>2019-01-13T10:28:36Z</time>
      </trkpt>
      <trkpt lat="48.5876" lon="2.536">
        <ele>34.296715</ele>
        <time>2019-01-13T10:28:38Z</time>
      </trkpt>
      <trkpt lat="48.58751" lon="2.53607">
        <ele>34.265007</ele>
        <time>2019-01-13T10:28:40Z</time>
      </trkpt>
      <trkpt lat="48.58743" lon="2.53615">
        <ele>34.283504</ele>
        <time>2019-01-13T10:28:42Z</time>
      </trkpt>
      <trkpt lat="48.58736" lon="2.53622">
        <ele>34.423546</ele>
        <time>2019-01-13T10:28:44Z</time>
      </trkpt>
      <trkpt lat="48.58728" lon="2.5363">
        <ele>34.619072</ele>
        <time>2019-01-13T10:28:46Z</time>
      </trkpt>
      <trkpt lat="48.58716" lon="2.53638">
        <ele>34.809315</ele>
        <time>2019-01-13T10:28:49Z</time>
      </trkpt>
      <trkpt lat="48.58707" lon="2.53644">
        <ele>34.444683</ele>
        <time>2019-01-13T10:28:51Z</time>
      </trkpt>
      <trkpt lat="48.58699" lon="2.53652">
        <ele>34.169888</ele>
        <time>2019-01-13T10:28:53Z</time>
      </trkpt>
      <trkpt lat="48.58691" lon="2.53661">
        <ele>33.80261</ele>
        <time>2019-01-13T10:28:55Z</time>
      </trkpt>
      <trkpt lat="48.58683" lon="2.53669">
        <ele>33.921513</ele>
        <time>2019-01-13T10:28:57Z</time>
      </trkpt>
      <trkpt lat="48.58674" lon="2.53675">
        <ele>33.80261</ele>
        <time>2019-01-13T10:28:59Z</time>
      </trkpt>
      <trkpt lat="48.5866" lon="2.53686">
        <ele>34.183098</ele>
        <time>2019-01-13T10:29:01Z</time>
      </trkpt>
      <trkpt lat="48.58651" lon="2.53692">
        <ele>33.963787</ele>
        <time>2019-01-13T10:29:03Z</time>
      </trkpt>
      <trkpt lat="48.58644" lon="2.537">
        <ele>34.146107</ele>
        <time>2019-01-13T10:29:05Z</time>
      </trkpt>
      <trkpt lat="48.58635" lon="2.53706">
        <ele>34.38655</ele>
        <time>2019-01-13T10:29:07Z</time>
      </trkpt>
      <trkpt lat="48.58626" lon="2.53714">
        <ele>34.238586</ele>
        <time>2019-01-13T10:29:09Z</time>
      </trkpt>
      <trkpt lat="48.58617" lon="2.5372">
        <ele>34.341633</ele>
        <time>2019-01-13T10:29:11Z</time>
      </trkpt>
      <trkpt lat="48.58608" lon="2.53727">
        <ele>34.32314</ele>
        <time>2019-01-13T10:29:13Z</time>
      </trkpt>
      <trkpt lat="48.586" lon="2.53734">
        <ele>34.621716</ele>
        <time>2019-01-13T10:29:15Z</time>
      </trkpt>
      <trkpt lat="48.58592" lon="2.53744">
        <ele>34.81724</ele>
        <time>2019-01-13T10:29:17Z</time>
      </trkpt>
      <trkpt lat="48.58583" lon="2.5375">
        <ele>35.12639</ele>
        <time>2019-01-13T10:29:19Z</time>
      </trkpt>
      <trkpt lat="48.58575" lon="2.53758">
        <ele>35.084114</ele>
        <time>2019-01-13T10:29:21Z</time>
      </trkpt>
      <trkpt lat="48.58564" lon="2.53769">
        <ele>34.81724</ele>
        <time>2019-01-13T10:29:24Z</time>
      </trkpt>
      <trkpt lat="48.58556" lon="2.53775">
        <ele>34.553017</ele>
        <time>2019-01-13T10:29:26Z</time>
      </trkpt>
      <trkpt lat="48.58546" lon="2.53785">
        <ele>34.81196</ele>
        <time>2019-01-13T10:29:29Z</time>
      </trkpt>
      <trkpt lat="48.58533" lon="2.53787">
        <ele>34.983707</ele>
        <time>2019-01-13T10:29:32Z</time>
      </trkpt>
      <trkpt lat="48.58523" lon="2.53791">
        <ele>34.970493</ele>
        <time>2019-01-13T10:29:34Z</time>
      </trkpt>
      <trkpt lat="48.58516" lon="2.53802">
        <ele>35.16074</ele>
        <time>2019-01-13T10:29:36Z</time>
      </trkpt>
      <trkpt lat="48.58506" lon="2.53817">
        <ele>35.06826</ele>
        <time>2019-01-13T10:29:39Z</time>
      </trkpt>
      <trkpt lat="48.58497" lon="2.53824">
        <ele>35.274357</ele>
        <time>2019-01-13T10:29:41Z</time>
      </trkpt>
      <trkpt lat="48.58488" lon="2.5383">
        <ele>35.102608</ele>
        <time>2019-01-13T10:29:43Z</time>
      </trkpt>
      <trkpt lat="48.58479" lon="2.53837">
        <ele>34.930862</ele>
        <time>2019-01-13T10:29:45Z</time>
      </trkpt>
      <trkpt lat="48.5847" lon="2.53846">
        <ele>35.049763</ele>
        <time>2019-01-13T10:29:47Z</time>
      </trkpt>
      <trkpt lat="48.58461" lon="2.53853">
        <ele>34.92822</ele>
        <time>2019-01-13T10:29:49Z</time>
      </trkpt>
      <trkpt lat="48.58452" lon="2.53862">
        <ele>34.5583</ele>
        <time>2019-01-13T10:29:51Z</time>
      </trkpt>
      <trkpt lat="48.58444" lon="2.53871">
        <ele>34.40505</ele>
        <time>2019-01-13T10:29:53Z</time>
      </trkpt>
      <trkpt lat="48.58435" lon="2.53879">
        <ele>34.735332</ele>
        <time>2019-01-13T10:29:55Z</time>
      </trkpt>
      <trkpt lat="48.58427" lon="2.53887">
        <ele>34.727406</ele>
        <time>2019-01-13T10:29:57Z</time>
      </trkpt>
      <trkpt lat="48.58417" lon="2.53895">
        <ele>34.51074</ele>
        <time>2019-01-13T10:29:59Z</time>
      </trkpt>
      <trkpt lat="48.58408" lon="2.53904">
        <ele>34.36013</ele>
        <time>2019-01-13T10:30:01Z</time>
      </trkpt>
      <trkpt lat="48.58397" lon="2.53914">
        <ele>34.19895</ele>
        <time>2019-01-13T10:30:03Z</time>
      </trkpt>
      <trkpt lat="48.58388" lon="2.53923">
        <ele>34.365414</ele>
        <time>2019-01-13T10:30:05Z</time>
      </trkpt>
      <trkpt lat="48.58378" lon="2.53931">
        <ele>34.36013</ele>
        <time>2019-01-13T10:30:07Z</time>
      </trkpt>
      <trkpt lat="48.58368" lon="2.53937">
        <ele>34.523952</ele>
        <time>2019-01-13T10:30:09Z</time>
      </trkpt>
      <trkpt lat="48.58358" lon="2.53946">
        <ele>34.66399</ele>
        <time>2019-01-13T10:30:11Z</time>
      </trkpt>
      <trkpt lat="48.58348" lon="2.53954">
        <ele>34.481674</ele>
        <time>2019-01-13T10:30:13Z</time>
      </trkpt>
      <trkpt lat="48.58337" lon="2.53961">
        <ele>34.473747</ele>
        <time>2019-01-13T10:30:15Z</time>
      </trkpt>
      <trkpt lat="48.58327" lon="2.5397">
        <ele>34.759113</ele>
        <time>2019-01-13T10:30:17Z</time>
      </trkpt>
      <trkpt lat="48.58317" lon="2.53978">
        <ele>34.29407</ele>
        <time>2019-01-13T10:30:19Z</time>
      </trkpt>
      <trkpt lat="48.58308" lon="2.53987">
        <ele>34.344276</ele>
        <time>2019-01-13T10:30:22Z</time>
      </trkpt>
      <trkpt lat="48.58299" lon="2.53995">
        <ele>33.91623</ele>
        <time>2019-01-13T10:30:24Z</time>
      </trkpt>
      <trkpt lat="48.5829" lon="2.54003">
        <ele>34.251797</ele>
        <time>2019-01-13T10:30:26Z</time>
      </trkpt>
      <trkpt lat="48.5828" lon="2.54013">
        <ele>33.934723</ele>
        <time>2019-01-13T10:30:28Z</time>
      </trkpt>
      <trkpt lat="48.58272" lon="2.54023">
        <ele>34.225372</ele>
        <time>2019-01-13T10:30:30Z</time>
      </trkpt>
      <trkpt lat="48.58263" lon="2.54032">
        <ele>34.106472</ele>
        <time>2019-01-13T10:30:32Z</time>
      </trkpt>
      <trkpt lat="48.58254" lon="2.54041">
        <ele>33.91887</ele>
        <time>2019-01-13T10:30:34Z</time>
      </trkpt>
      <trkpt lat="48.58244" lon="2.54049">
        <ele>34.087975</ele>
        <time>2019-01-13T10:30:36Z</time>
      </trkpt>
      <trkpt lat="48.58234" lon="2.54057">
        <ele>33.79204</ele>
        <time>2019-01-13T10:30:38Z</time>
      </trkpt>
      <trkpt lat="48.58224" lon="2.54066">
        <ele>33.64143</ele>
        <time>2019-01-13T10:30:40Z</time>
      </trkpt>
      <trkpt lat="48.58214" lon="2.54073">
        <ele>33.61765</ele>
        <time>2019-01-13T10:30:42Z</time>
      </trkpt>
      <trkpt lat="48.58204" lon="2.54081">
        <ele>33.599155</ele>
        <time>2019-01-13T10:30:44Z</time>
      </trkpt>
      <trkpt lat="48.58194" lon="2.54088">
        <ele>33.622936</ele>
        <time>2019-01-13T10:30:46Z</time>
      </trkpt>
      <trkpt lat="48.58184" lon="2.54097">
        <ele>33.538383</ele>
        <time>2019-01-13T10:30:48Z</time>
      </trkpt>
      <trkpt lat="48.58175" lon="2.54106">
        <ele>33.506676</ele>
        <time>2019-01-13T10:30:50Z</time>
      </trkpt>
      <trkpt lat="48.58165" lon="2.54115">
        <ele>33.68899</ele>
        <time>2019-01-13T10:30:52Z</time>
      </trkpt>
      <trkpt lat="48.58155" lon="2.54124">
        <ele>33.76826</ele>
        <time>2019-01-13T10:30:54Z</time>
      </trkpt>
      <trkpt lat="48.58146" lon="2.54133">
        <ele>33.622936</ele>
        <time>2019-01-13T10:30:56Z</time>
      </trkpt>
      <trkpt lat="48.58135" lon="2.54144">
        <ele>33.67578</ele>
        <time>2019-01-13T10:30:58Z</time>
      </trkpt>
      <trkpt lat="48.58126" lon="2.54156">
        <ele>33.889805</ele>
        <time>2019-01-13T10:31:00Z</time>
      </trkpt>
      <trkpt lat="48.58117" lon="2.54168">
        <ele>33.54895</ele>
        <time>2019-01-13T10:31:02Z</time>
      </trkpt>
      <trkpt lat="48.58108" lon="2.54177">
        <ele>32.795902</ele>
        <time>2019-01-13T10:31:04Z</time>
      </trkpt>
      <trkpt lat="48.58098" lon="2.54184">
        <ele>32.891026</ele>
        <time>2019-01-13T10:31:06Z</time>
      </trkpt>
      <trkpt lat="48.58088" lon="2.54193">
        <ele>32.965008</ele>
        <time>2019-01-13T10:31:08Z</time>
      </trkpt>
      <trkpt lat="48.58079" lon="2.542">
        <ele>32.891026</ele>
        <time>2019-01-13T10:31:10Z</time>
      </trkpt>
      <trkpt lat="48.5807" lon="2.54209">
        <ele>32.891026</ele>
        <time>2019-01-13T10:31:12Z</time>
      </trkpt>
      <trkpt lat="48.5806" lon="2.54217">
        <ele>33.065414</ele>
        <time>2019-01-13T10:31:14Z</time>
      </trkpt>
      <trkpt lat="48.5805" lon="2.54225">
        <ele>33.181675</ele>
        <time>2019-01-13T10:31:16Z</time>
      </trkpt>
      <trkpt lat="48.5804" lon="2.54234">
        <ele>32.92009</ele>
        <time>2019-01-13T10:31:18Z</time>
      </trkpt>
      <trkpt lat="48.58031" lon="2.54242">
        <ele>33.002003</ele>
        <time>2019-01-13T10:31:20Z</time>
      </trkpt>
      <trkpt lat="48.58022" lon="2.54251">
        <ele>33.271515</ele>
        <time>2019-01-13T10:31:22Z</time>
      </trkpt>
      <trkpt lat="48.58013" lon="2.5426">
        <ele>33.11562</ele>
        <time>2019-01-13T10:31:24Z</time>
      </trkpt>
      <trkpt lat="48.58003" lon="2.54267">
        <ele>32.497326</ele>
        <time>2019-01-13T10:31:26Z</time>
      </trkpt>
      <trkpt lat="48.57993" lon="2.54274">
        <ele>32.333508</ele>
        <time>2019-01-13T10:31:28Z</time>
      </trkpt>
      <trkpt lat="48.57983" lon="2.54283">
        <ele>32.48676</ele>
        <time>2019-01-13T10:31:30Z</time>
      </trkpt>
      <trkpt lat="48.57974" lon="2.54292">
        <ele>32.201393</ele>
        <time>2019-01-13T10:31:32Z</time>
      </trkpt>
      <trkpt lat="48.57964" lon="2.54302">
        <ele>32.4207</ele>
        <time>2019-01-13T10:31:34Z</time>
      </trkpt>
      <trkpt lat="48.57954" lon="2.54309">
        <ele>32.386353</ele>
        <time>2019-01-13T10:31:36Z</time>
      </trkpt>
      <trkpt lat="48.57946" lon="2.54316">
        <ele>32.016434</ele>
        <time>2019-01-13T10:31:38Z</time>
      </trkpt>
      <trkpt lat="48.57937" lon="2.54323">
        <ele>32.217247</ele>
        <time>2019-01-13T10:31:40Z</time>
      </trkpt>
      <trkpt lat="48.57926" lon="2.5433">
        <ele>32.122124</ele>
        <time>2019-01-13T10:31:42Z</time>
      </trkpt>
      <trkpt lat="48.57915" lon="2.54337">
        <ele>31.88432</ele>
        <time>2019-01-13T10:31:44Z</time>
      </trkpt>
      <trkpt lat="48.57905" lon="2.54345">
        <ele>31.929237</ele>
        <time>2019-01-13T10:31:46Z</time>
      </trkpt>
      <trkpt lat="48.57895" lon="2.54352">
        <ele>32.040215</ele>
        <time>2019-01-13T10:31:48Z</time>
      </trkpt>
      <trkpt lat="48.57885" lon="2.54362">
        <ele>32.137978</ele>
        <time>2019-01-13T10:31:50Z</time>
      </trkpt>
      <trkpt lat="48.57875" lon="2.54371">
        <ele>32.172325</ele>
        <time>2019-01-13T10:31:52Z</time>
      </trkpt>
      <trkpt lat="48.57865" lon="2.5438">
        <ele>32.230457</ele>
        <time>2019-01-13T10:31:54Z</time>
      </trkpt>
      <trkpt lat="48.57855" lon="2.54389">
        <ele>32.29123</ele>
        <time>2019-01-13T10:31:56Z</time>
      </trkpt>
      <trkpt lat="48.57846" lon="2.54398">
        <ele>32.063995</ele>
        <time>2019-01-13T10:31:58Z</time>
      </trkpt>
      <trkpt lat="48.57836" lon="2.54407">
        <ele>32.011147</ele>
        <time>2019-01-13T10:32:00Z</time>
      </trkpt>
      <trkpt lat="48.57826" lon="2.54416">
        <ele>31.997936</ele>
        <time>2019-01-13T10:32:02Z</time>
      </trkpt>
      <trkpt lat="48.57816" lon="2.54425">
        <ele>32.206676</ele>
        <time>2019-01-13T10:32:04Z</time>
      </trkpt>
      <trkpt lat="48.57807" lon="2.54432">
        <ele>32.30444</ele>
        <time>2019-01-13T10:32:06Z</time>
      </trkpt>
      <trkpt lat="48.57797" lon="2.54438">
        <ele>32.18818</ele>
        <time>2019-01-13T10:32:08Z</time>
      </trkpt>
      <trkpt lat="48.57787" lon="2.54444">
        <ele>32.452408</ele>
        <time>2019-01-13T10:32:10Z</time>
      </trkpt>
      <trkpt lat="48.57777" lon="2.5445">
        <ele>32.75627</ele>
        <time>2019-01-13T10:32:12Z</time>
      </trkpt>
      <trkpt lat="48.57769" lon="2.54456">
        <ele>32.695496</ele>
        <time>2019-01-13T10:32:14Z</time>
      </trkpt>
      <trkpt lat="48.5776" lon="2.54464">
        <ele>32.43391</ele>
        <time>2019-01-13T10:32:16Z</time>
      </trkpt>
      <trkpt lat="48.5775" lon="2.54471">
        <ele>32.032288</ele>
        <time>2019-01-13T10:32:18Z</time>
      </trkpt>
      <trkpt lat="48.57739" lon="2.54478">
        <ele>32.135334</ele>
        <time>2019-01-13T10:32:20Z</time>
      </trkpt>
      <trkpt lat="48.57728" lon="2.54487">
        <ele>32.367855</ele>
        <time>2019-01-13T10:32:22Z</time>
      </trkpt>
      <trkpt lat="48.57718" lon="2.54494">
        <ele>32.296513</ele>
        <time>2019-01-13T10:32:24Z</time>
      </trkpt>
      <trkpt lat="48.57709" lon="2.54504">
        <ele>32.412773</ele>
        <time>2019-01-13T10:32:26Z</time>
      </trkpt>
      <trkpt lat="48.577" lon="2.54512">
        <ele>32.172325</ele>
        <time>2019-01-13T10:32:28Z</time>
      </trkpt>
      <trkpt lat="48.5769" lon="2.54521">
        <ele>31.900173</ele>
        <time>2019-01-13T10:32:30Z</time>
      </trkpt>
      <trkpt lat="48.57681" lon="2.54531">
        <ele>31.263386</ele>
        <time>2019-01-13T10:32:32Z</time>
      </trkpt>
      <trkpt lat="48.57672" lon="2.5454">
        <ele>31.287165</ele>
        <time>2019-01-13T10:32:34Z</time>
      </trkpt>
      <trkpt lat="48.57663" lon="2.54549">
        <ele>31.125986</ele>
        <time>2019-01-13T10:32:36Z</time>
      </trkpt>
      <trkpt lat="48.57655" lon="2.54556">
        <ele>30.906677</ele>
        <time>2019-01-13T10:32:38Z</time>
      </trkpt>
      <trkpt lat="48.57641" lon="2.54567">
        <ele>30.808914</ele>
        <time>2019-01-13T10:32:40Z</time>
      </trkpt>
      <trkpt lat="48.57632" lon="2.54574">
        <ele>30.824768</ele>
        <time>2019-01-13T10:32:42Z</time>
      </trkpt>
      <trkpt lat="48.57621" lon="2.54583">
        <ele>30.972734</ele>
        <time>2019-01-13T10:32:44Z</time>
      </trkpt>
      <trkpt lat="48.57612" lon="2.54592">
        <ele>30.822124</ele>
        <time>2019-01-13T10:32:46Z</time>
      </trkpt>
      <trkpt lat="48.57603" lon="2.54601">
        <ele>30.621313</ele>
        <time>2019-01-13T10:32:48Z</time>
      </trkpt>
      <trkpt lat="48.57594" lon="2.54611">
        <ele>30.655663</ele>
        <time>2019-01-13T10:32:50Z</time>
      </trkpt>
      <trkpt lat="48.57584" lon="2.5462">
        <ele>30.639809</ele>
        <time>2019-01-13T10:32:52Z</time>
      </trkpt>
      <trkpt lat="48.57575" lon="2.54628">
        <ele>30.64245</ele>
        <time>2019-01-13T10:32:54Z</time>
      </trkpt>
      <trkpt lat="48.57567" lon="2.54634">
        <ele>30.61867</ele>
        <time>2019-01-13T10:32:56Z</time>
      </trkpt>
      <trkpt lat="48.57557" lon="2.54642">
        <ele>30.391434</ele>
        <time>2019-01-13T10:32:59Z</time>
      </trkpt>
      <trkpt lat="48.57547" lon="2.5465">
        <ele>30.417858</ele>
        <time>2019-01-13T10:33:02Z</time>
      </trkpt>
      <trkpt lat="48.57538" lon="2.54655">
        <ele>30.169483</ele>
        <time>2019-01-13T10:33:07Z</time>
      </trkpt>
      <trkpt lat="48.57529" lon="2.54664">
        <ele>30.359728</ele>
        <time>2019-01-13T10:33:12Z</time>
      </trkpt>
      <trkpt lat="48.57527" lon="2.54677">
        <ele>30.116638</ele>
        <time>2019-01-13T10:33:17Z</time>
      </trkpt>
      <trkpt lat="48.57527" lon="2.54681">
        <ele>29.997736</ele>
        <time>2019-01-13T10:33:20Z</time>
      </trkpt>
      <trkpt lat="48.57527" lon="2.54681">
        <ele>29.997736</ele>
        <time>2019-01-13T10:33:20Z</time>
      </trkpt>
      <trkpt lat="48.57532" lon="2.54712">
        <ele>33.71013</ele>
        <time>2019-01-13T10:46:11Z</time>
      </trkpt>
      <trkpt lat="48.57536" lon="2.54727">
        <ele>33.47761</ele>
        <time>2019-01-13T10:46:14Z</time>
      </trkpt>
      <trkpt lat="48.57539" lon="2.54735">
        <ele>33.263588</ele>
        <time>2019-01-13T10:46:21Z</time>
      </trkpt>
      <trkpt lat="48.57539" lon="2.54735">
        <ele>33.263588</ele>
        <time>2019-01-13T10:46:21Z</time>
      </trkpt>
      <trkpt lat="48.57547" lon="2.54751">
        <ele>34.331066</ele>
        <time>2019-01-13T10:48:31Z</time>
      </trkpt>
      <trkpt lat="48.57552" lon="2.54766">
        <ele>34.526592</ele>
        <time>2019-01-13T10:48:34Z</time>
      </trkpt>
      <trkpt lat="48.57558" lon="2.5478">
        <ele>34.8833</ele>
        <time>2019-01-13T10:48:36Z</time>
      </trkpt>
      <trkpt lat="48.57563" lon="2.54794">
        <ele>35.27964</ele>
        <time>2019-01-13T10:48:38Z</time>
      </trkpt>
      <trkpt lat="48.5757" lon="2.54809">
        <ele>35.192448</ele>
        <time>2019-01-13T10:48:40Z</time>
      </trkpt>
      <trkpt lat="48.57576" lon="2.54825">
        <ele>35.306065</ele>
        <time>2019-01-13T10:48:42Z</time>
      </trkpt>
      <trkpt lat="48.57582" lon="2.5484">
        <ele>35.329845</ele>
        <time>2019-01-13T10:48:44Z</time>
      </trkpt>
      <trkpt lat="48.57589" lon="2.54856">
        <ele>35.3959</ele>
        <time>2019-01-13T10:48:46Z</time>
      </trkpt>
      <trkpt lat="48.57595" lon="2.54873">
        <ele>35.443462</ele>
        <time>2019-01-13T10:48:48Z</time>
      </trkpt>
      <trkpt lat="48.57601" lon="2.5489">
        <ele>35.8583</ele>
        <time>2019-01-13T10:48:50Z</time>
      </trkpt>
      <trkpt lat="48.57607" lon="2.54907">
        <ele>35.68391</ele>
        <time>2019-01-13T10:48:52Z</time>
      </trkpt>
      <trkpt lat="48.57613" lon="2.54925">
        <ele>35.424965</ele>
        <time>2019-01-13T10:48:54Z</time>
      </trkpt>
      <trkpt lat="48.5762" lon="2.54943">
        <ele>35.258503</ele>
        <time>2019-01-13T10:48:56Z</time>
      </trkpt>
      <trkpt lat="48.57626" lon="2.54961">
        <ele>35.51216</ele>
        <time>2019-01-13T10:48:58Z</time>
      </trkpt>
      <trkpt lat="48.57633" lon="2.54979">
        <ele>35.467243</ele>
        <time>2019-01-13T10:49:00Z</time>
      </trkpt>
      <trkpt lat="48.57639" lon="2.54998">
        <ele>35.4646</ele>
        <time>2019-01-13T10:49:02Z</time>
      </trkpt>
      <trkpt lat="48.57645" lon="2.55016">
        <ele>35.58086</ele>
        <time>2019-01-13T10:49:04Z</time>
      </trkpt>
      <trkpt lat="48.57653" lon="2.55033">
        <ele>35.586143</ele>
        <time>2019-01-13T10:49:06Z</time>
      </trkpt>
      <trkpt lat="48.5766" lon="2.55053">
        <ele>35.63635</ele>
        <time>2019-01-13T10:49:08Z</time>
      </trkpt>
      <trkpt lat="48.57667" lon="2.55071">
        <ele>35.459316</ele>
        <time>2019-01-13T10:49:10Z</time>
      </trkpt>
      <trkpt lat="48.57675" lon="2.5509">
        <ele>35.53066</ele>
        <time>2019-01-13T10:49:12Z</time>
      </trkpt>
      <trkpt lat="48.57683" lon="2.55109">
        <ele>35.80281</ele>
        <time>2019-01-13T10:49:14Z</time>
      </trkpt>
      <trkpt lat="48.57692" lon="2.55127">
        <ele>36.09082</ele>
        <time>2019-01-13T10:49:16Z</time>
      </trkpt>
      <trkpt lat="48.577" lon="2.55145">
        <ele>36.20972</ele>
        <time>2019-01-13T10:49:18Z</time>
      </trkpt>
      <trkpt lat="48.57706" lon="2.55163">
        <ele>36.55586</ele>
        <time>2019-01-13T10:49:20Z</time>
      </trkpt>
      <trkpt lat="48.57714" lon="2.55181">
        <ele>36.384113</ele>
        <time>2019-01-13T10:49:22Z</time>
      </trkpt>
      <trkpt lat="48.57721" lon="2.55199">
        <ele>36.151592</ele>
        <time>2019-01-13T10:49:24Z</time>
      </trkpt>
      <trkpt lat="48.57729" lon="2.55218">
        <ele>36.24143</ele>
        <time>2019-01-13T10:49:26Z</time>
      </trkpt>
      <trkpt lat="48.57736" lon="2.55237">
        <ele>36.386753</ele>
        <time>2019-01-13T10:49:28Z</time>
      </trkpt>
      <trkpt lat="48.57743" lon="2.55254">
        <ele>36.70647</ele>
        <time>2019-01-13T10:49:30Z</time>
      </trkpt>
      <trkpt lat="48.5775" lon="2.55272">
        <ele>36.991837</ele>
        <time>2019-01-13T10:49:32Z</time>
      </trkpt>
      <trkpt lat="48.57756" lon="2.55289">
        <ele>37.131874</ele>
        <time>2019-01-13T10:49:34Z</time>
      </trkpt>
      <trkpt lat="48.57763" lon="2.55307">
        <ele>36.56643</ele>
        <time>2019-01-13T10:49:36Z</time>
      </trkpt>
      <trkpt lat="48.5777" lon="2.55324">
        <ele>36.33655</ele>
        <time>2019-01-13T10:49:38Z</time>
      </trkpt>
      <trkpt lat="48.57776" lon="2.55342">
        <ele>36.143665</ele>
        <time>2019-01-13T10:49:40Z</time>
      </trkpt>
      <trkpt lat="48.57783" lon="2.5536">
        <ele>36.2335</ele>
        <time>2019-01-13T10:49:42Z</time>
      </trkpt>
      <trkpt lat="48.5779" lon="2.55379">
        <ele>35.87151</ele>
        <time>2019-01-13T10:49:44Z</time>
      </trkpt>
      <trkpt lat="48.57797" lon="2.55397">
        <ele>35.96135</ele>
        <time>2019-01-13T10:49:46Z</time>
      </trkpt>
      <trkpt lat="48.57803" lon="2.55416">
        <ele>36.04326</ele>
        <time>2019-01-13T10:49:48Z</time>
      </trkpt>
      <trkpt lat="48.5781" lon="2.55435">
        <ele>36.386753</ele>
        <time>2019-01-13T10:49:50Z</time>
      </trkpt>
      <trkpt lat="48.57817" lon="2.55454">
        <ele>36.225574</ele>
        <time>2019-01-13T10:49:52Z</time>
      </trkpt>
      <trkpt lat="48.57823" lon="2.55474">
        <ele>36.061752</ele>
        <time>2019-01-13T10:49:54Z</time>
      </trkpt>
      <trkpt lat="48.57829" lon="2.55493">
        <ele>36.064396</ele>
        <time>2019-01-13T10:49:56Z</time>
      </trkpt>
      <trkpt lat="48.57835" lon="2.55512">
        <ele>36.88086</ele>
        <time>2019-01-13T10:49:58Z</time>
      </trkpt>
      <trkpt lat="48.5784" lon="2.55532">
        <ele>36.518867</ele>
        <time>2019-01-13T10:50:00Z</time>
      </trkpt>
      <trkpt lat="48.57846" lon="2.55551">
        <ele>35.749966</ele>
        <time>2019-01-13T10:50:02Z</time>
      </trkpt>
      <trkpt lat="48.57851" lon="2.5557">
        <ele>35.71562</ele>
        <time>2019-01-13T10:50:04Z</time>
      </trkpt>
      <trkpt lat="48.57858" lon="2.55589">
        <ele>35.718258</ele>
        <time>2019-01-13T10:50:06Z</time>
      </trkpt>
      <trkpt lat="48.57863" lon="2.55608">
        <ele>35.34834</ele>
        <time>2019-01-13T10:50:08Z</time>
      </trkpt>
      <trkpt lat="48.57869" lon="2.55628">
        <ele>35.052406</ele>
        <time>2019-01-13T10:50:10Z</time>
      </trkpt>
      <trkpt lat="48.57875" lon="2.55646">
        <ele>34.96521</ele>
        <time>2019-01-13T10:50:12Z</time>
      </trkpt>
      <trkpt lat="48.57881" lon="2.55666">
        <ele>34.90708</ele>
        <time>2019-01-13T10:50:14Z</time>
      </trkpt>
      <trkpt lat="48.57887" lon="2.55684">
        <ele>35.57029</ele>
        <time>2019-01-13T10:50:16Z</time>
      </trkpt>
      <trkpt lat="48.57891" lon="2.55702">
        <ele>35.390617</ele>
        <time>2019-01-13T10:50:18Z</time>
      </trkpt>
      <trkpt lat="48.57896" lon="2.55719">
        <ele>34.867447</ele>
        <time>2019-01-13T10:50:20Z</time>
      </trkpt>
      <trkpt lat="48.579" lon="2.55736">
        <ele>34.8833</ele>
        <time>2019-01-13T10:50:22Z</time>
      </trkpt>
      <trkpt lat="48.57905" lon="2.5575">
        <ele>34.526592</ele>
        <time>2019-01-13T10:50:24Z</time>
      </trkpt>
      <trkpt lat="48.57909" lon="2.55764">
        <ele>34.228016</ele>
        <time>2019-01-13T10:50:26Z</time>
      </trkpt>
      <trkpt lat="48.57912" lon="2.55778">
        <ele>34.043056</ele>
        <time>2019-01-13T10:50:28Z</time>
      </trkpt>
      <trkpt lat="48.57911" lon="2.55798">
        <ele>34.167244</ele>
        <time>2019-01-13T10:50:31Z</time>
      </trkpt>
      <trkpt lat="48.57908" lon="2.55816">
        <ele>34.08269</ele>
        <time>2019-01-13T10:50:34Z</time>
      </trkpt>
      <trkpt lat="48.57916" lon="2.55831">
        <ele>34.064194</ele>
        <time>2019-01-13T10:50:37Z</time>
      </trkpt>
      <trkpt lat="48.57927" lon="2.55839">
        <ele>33.84753</ele>
        <time>2019-01-13T10:50:40Z</time>
      </trkpt>
      <trkpt lat="48.57937" lon="2.55848">
        <ele>33.636147</ele>
        <time>2019-01-13T10:50:44Z</time>
      </trkpt>
      <trkpt lat="48.57945" lon="2.55855">
        <ele>33.66521</ele>
        <time>2019-01-13T10:50:48Z</time>
      </trkpt>
      <trkpt lat="48.57956" lon="2.55862">
        <ele>33.945293</ele>
        <time>2019-01-13T10:50:52Z</time>
      </trkpt>
      <trkpt lat="48.57963" lon="2.55871">
        <ele>34.529236</ele>
        <time>2019-01-13T10:50:54Z</time>
      </trkpt>
      <trkpt lat="48.57975" lon="2.5588">
        <ele>34.922935</ele>
        <time>2019-01-13T10:50:56Z</time>
      </trkpt>
      <trkpt lat="48.57988" lon="2.55892">
        <ele>34.553017</ele>
        <time>2019-01-13T10:50:58Z</time>
      </trkpt>
      <trkpt lat="48.58002" lon="2.55904">
        <ele>34.89651</ele>
        <time>2019-01-13T10:51:00Z</time>
      </trkpt>
      <trkpt lat="48.58016" lon="2.55916">
        <ele>35.15017</ele>
        <time>2019-01-13T10:51:02Z</time>
      </trkpt>
      <trkpt lat="48.5803" lon="2.55927">
        <ele>34.006065</ele>
        <time>2019-01-13T10:51:04Z</time>
      </trkpt>
      <trkpt lat="48.58044" lon="2.55938">
        <ele>33.91623</ele>
        <time>2019-01-13T10:51:06Z</time>
      </trkpt>
      <trkpt lat="48.5806" lon="2.55948">
        <ele>33.762978</ele>
        <time>2019-01-13T10:51:08Z</time>
      </trkpt>
      <trkpt lat="48.58074" lon="2.55958">
        <ele>33.038994</ele>
        <time>2019-01-13T10:51:10Z</time>
      </trkpt>
      <trkpt lat="48.58088" lon="2.55968">
        <ele>31.960945</ele>
        <time>2019-01-13T10:51:12Z</time>
      </trkpt>
      <trkpt lat="48.58101" lon="2.55978">
        <ele>31.546108</ele>
        <time>2019-01-13T10:51:14Z</time>
      </trkpt>
      <trkpt lat="48.58109" lon="2.55992">
        <ele>31.680864</ele>
        <time>2019-01-13T10:51:16Z</time>
      </trkpt>
      <trkpt lat="48.58117" lon="2.56009">
        <ele>31.770702</ele>
        <time>2019-01-13T10:51:18Z</time>
      </trkpt>
      <trkpt lat="48.58127" lon="2.56021">
        <ele>32.063995</ele>
        <time>2019-01-13T10:51:20Z</time>
      </trkpt>
      <trkpt lat="48.58138" lon="2.56031">
        <ele>32.196106</ele>
        <time>2019-01-13T10:51:22Z</time>
      </trkpt>
      <trkpt lat="48.58149" lon="2.56039">
        <ele>32.33879</ele>
        <time>2019-01-13T10:51:24Z</time>
      </trkpt>
      <trkpt lat="48.58158" lon="2.56046">
        <ele>31.744278</ele>
        <time>2019-01-13T10:51:26Z</time>
      </trkpt>
      <trkpt lat="48.58166" lon="2.56054">
        <ele>31.506474</ele>
        <time>2019-01-13T10:51:28Z</time>
      </trkpt>
      <trkpt lat="48.58173" lon="2.56063">
        <ele>31.781271</ele>
        <time>2019-01-13T10:51:30Z</time>
      </trkpt>
      <trkpt lat="48.58177" lon="2.56076">
        <ele>31.448343</ele>
        <time>2019-01-13T10:51:32Z</time>
      </trkpt>
      <trkpt lat="48.58183" lon="2.56092">
        <ele>31.144482</ele>
        <time>2019-01-13T10:51:35Z</time>
      </trkpt>
      <trkpt lat="48.58194" lon="2.56096">
        <ele>30.732288</ele>
        <time>2019-01-13T10:51:39Z</time>
      </trkpt>
      <trkpt lat="48.58205" lon="2.561">
        <ele>30.89875</ele>
        <time>2019-01-13T10:51:42Z</time>
      </trkpt>
      <trkpt lat="48.58215" lon="2.56102">
        <ele>30.90932</ele>
        <time>2019-01-13T10:51:44Z</time>
      </trkpt>
      <trkpt lat="48.58226" lon="2.56103">
        <ele>31.295092</ele>
        <time>2019-01-13T10:51:46Z</time>
      </trkpt>
      <trkpt lat="48.58239" lon="2.56105">
        <ele>31.707287</ele>
        <time>2019-01-13T10:51:48Z</time>
      </trkpt>
      <trkpt lat="48.58249" lon="2.56107">
        <ele>31.818262</ele>
        <time>2019-01-13T10:51:50Z</time>
      </trkpt>
      <trkpt lat="48.5826" lon="2.56109">
        <ele>32.005863</ele>
        <time>2019-01-13T10:51:52Z</time>
      </trkpt>
      <trkpt lat="48.58272" lon="2.56112">
        <ele>31.337368</ele>
        <time>2019-01-13T10:51:54Z</time>
      </trkpt>
      <trkpt lat="48.58283" lon="2.56116">
        <ele>31.852612</ele>
        <time>2019-01-13T10:51:56Z</time>
      </trkpt>
      <trkpt lat="48.58294" lon="2.56119">
        <ele>32.299156</ele>
        <time>2019-01-13T10:51:58Z</time>
      </trkpt>
      <trkpt lat="48.58304" lon="2.56121">
        <ele>32.608303</ele>
        <time>2019-01-13T10:52:00Z</time>
      </trkpt>
      <trkpt lat="48.58313" lon="2.56125">
        <ele>32.99936</ele>
        <time>2019-01-13T10:52:02Z</time>
      </trkpt>
      <trkpt lat="48.58324" lon="2.56125">
        <ele>33.086555</ele>
        <time>2019-01-13T10:52:05Z</time>
      </trkpt>
      <trkpt lat="48.58335" lon="2.56113">
        <ele>33.493465</ele>
        <time>2019-01-13T10:52:08Z</time>
      </trkpt>
      <trkpt lat="48.58341" lon="2.56097">
        <ele>33.68371</ele>
        <time>2019-01-13T10:52:10Z</time>
      </trkpt>
      <trkpt lat="48.58346" lon="2.56079">
        <ele>33.7022</ele>
        <time>2019-01-13T10:52:12Z</time>
      </trkpt>
      <trkpt lat="48.58353" lon="2.56064">
        <ele>34.14082</ele>
        <time>2019-01-13T10:52:14Z</time>
      </trkpt>
      <trkpt lat="48.58362" lon="2.56052">
        <ele>33.987568</ele>
        <time>2019-01-13T10:52:16Z</time>
      </trkpt>
      <trkpt lat="48.58373" lon="2.56048">
        <ele>33.868668</ele>
        <time>2019-01-13T10:52:18Z</time>
      </trkpt>
      <trkpt lat="48.58384" lon="2.5605">
        <ele>34.159317</ele>
        <time>2019-01-13T10:52:20Z</time>
      </trkpt>
      <trkpt lat="48.58396" lon="2.56054">
        <ele>33.903015</ele>
        <time>2019-01-13T10:52:22Z</time>
      </trkpt>
      <trkpt lat="48.58408" lon="2.56058">
        <ele>34.217445</ele>
        <time>2019-01-13T10:52:24Z</time>
      </trkpt>
      <trkpt lat="48.5842" lon="2.56064">
        <ele>34.761757</ele>
        <time>2019-01-13T10:52:26Z</time>
      </trkpt>
      <trkpt lat="48.58431" lon="2.56073">
        <ele>34.389194</ele>
        <time>2019-01-13T10:52:28Z</time>
      </trkpt>
      <trkpt lat="48.58441" lon="2.56085">
        <ele>34.167244</ele>
        <time>2019-01-13T10:52:30Z</time>
      </trkpt>
      <trkpt lat="48.58451" lon="2.56099">
        <ele>34.434113</ele>
        <time>2019-01-13T10:52:32Z</time>
      </trkpt>
      <trkpt lat="48.58459" lon="2.56115">
        <ele>34.169888</ele>
        <time>2019-01-13T10:52:34Z</time>
      </trkpt>
      <trkpt lat="48.58468" lon="2.5613">
        <ele>34.249153</ele>
        <time>2019-01-13T10:52:36Z</time>
      </trkpt>
      <trkpt lat="48.58477" lon="2.56144">
        <ele>34.0457</ele>
        <time>2019-01-13T10:52:38Z</time>
      </trkpt>
      <trkpt lat="48.58485" lon="2.56159">
        <ele>34.000782</ele>
        <time>2019-01-13T10:52:40Z</time>
      </trkpt>
      <trkpt lat="48.58494" lon="2.56175">
        <ele>33.987568</ele>
        <time>2019-01-13T10:52:42Z</time>
      </trkpt>
      <trkpt lat="48.58503" lon="2.56191">
        <ele>33.91623</ele>
        <time>2019-01-13T10:52:44Z</time>
      </trkpt>
      <trkpt lat="48.5851" lon="2.56206">
        <ele>33.889805</ele>
        <time>2019-01-13T10:52:46Z</time>
      </trkpt>
      <trkpt lat="48.58517" lon="2.5622">
        <ele>34.12761</ele>
        <time>2019-01-13T10:52:48Z</time>
      </trkpt>
      <trkpt lat="48.58524" lon="2.5623">
        <ele>34.426186</ele>
        <time>2019-01-13T10:52:50Z</time>
      </trkpt>
      <trkpt lat="48.58534" lon="2.56236">
        <ele>35.387974</ele>
        <time>2019-01-13T10:52:53Z</time>
      </trkpt>
      <trkpt lat="48.58543" lon="2.56228">
        <ele>36.413177</ele>
        <time>2019-01-13T10:52:56Z</time>
      </trkpt>
      <trkpt lat="48.58556" lon="2.56227">
        <ele>36.40525</ele>
        <time>2019-01-13T10:52:59Z</time>
      </trkpt>
      <trkpt lat="48.58567" lon="2.5623">
        <ele>36.82537</ele>
        <time>2019-01-13T10:53:01Z</time>
      </trkpt>
      <trkpt lat="48.58578" lon="2.56233">
        <ele>36.785736</ele>
        <time>2019-01-13T10:53:03Z</time>
      </trkpt>
      <trkpt lat="48.5859" lon="2.56236">
        <ele>37.108093</ele>
        <time>2019-01-13T10:53:05Z</time>
      </trkpt>
      <trkpt lat="48.58602" lon="2.56239">
        <ele>37.409313</ele>
        <time>2019-01-13T10:53:07Z</time>
      </trkpt>
      <trkpt lat="48.58613" lon="2.56242">
        <ele>37.702606</ele>
        <time>2019-01-13T10:53:09Z</time>
      </trkpt>
      <trkpt lat="48.58625" lon="2.56246">
        <ele>37.837364</ele>
        <time>2019-01-13T10:53:11Z</time>
      </trkpt>
      <trkpt lat="48.58636" lon="2.5625">
        <ele>37.92984</ele>
        <time>2019-01-13T10:53:13Z</time>
      </trkpt>
      <trkpt lat="48.58648" lon="2.56254">
        <ele>37.92984</ele>
        <time>2019-01-13T10:53:15Z</time>
      </trkpt>
      <trkpt lat="48.58659" lon="2.56259">
        <ele>38.1148</ele>
        <time>2019-01-13T10:53:17Z</time>
      </trkpt>
      <trkpt lat="48.58672" lon="2.56263">
        <ele>37.76866</ele>
        <time>2019-01-13T10:53:19Z</time>
      </trkpt>
      <trkpt lat="48.58683" lon="2.56267">
        <ele>37.374966</ele>
        <time>2019-01-13T10:53:21Z</time>
      </trkpt>
      <trkpt lat="48.58695" lon="2.56271">
        <ele>37.478012</ele>
        <time>2019-01-13T10:53:23Z</time>
      </trkpt>
      <trkpt lat="48.58708" lon="2.56275">
        <ele>37.55728</ele>
        <time>2019-01-13T10:53:25Z</time>
      </trkpt>
      <trkpt lat="48.5872" lon="2.56279">
        <ele>37.673542</ele>
        <time>2019-01-13T10:53:27Z</time>
      </trkpt>
      <trkpt lat="48.58732" lon="2.56283">
        <ele>37.35647</ele>
        <time>2019-01-13T10:53:29Z</time>
      </trkpt>
      <trkpt lat="48.58743" lon="2.56287">
        <ele>37.32212</ele>
        <time>2019-01-13T10:53:31Z</time>
      </trkpt>
      <trkpt lat="48.58753" lon="2.5629">
        <ele>37.55728</ele>
        <time>2019-01-13T10:53:33Z</time>
      </trkpt>
      <trkpt lat="48.58765" lon="2.56293">
        <ele>37.583702</ele>
        <time>2019-01-13T10:53:35Z</time>
      </trkpt>
      <trkpt lat="48.58774" lon="2.56296">
        <ele>37.406673</ele>
        <time>2019-01-13T10:53:37Z</time>
      </trkpt>
      <trkpt lat="48.58784" lon="2.56296">
        <ele>37.507076</ele>
        <time>2019-01-13T10:53:39Z</time>
      </trkpt>
      <trkpt lat="48.58794" lon="2.56295">
        <ele>37.086956</ele>
        <time>2019-01-13T10:53:41Z</time>
      </trkpt>
      <trkpt lat="48.58805" lon="2.56297">
        <ele>36.793663</ele>
        <time>2019-01-13T10:53:43Z</time>
      </trkpt>
      <trkpt lat="48.58815" lon="2.56305">
        <ele>37.121307</ele>
        <time>2019-01-13T10:53:45Z</time>
      </trkpt>
      <trkpt lat="48.58825" lon="2.56312">
        <ele>37.45423</ele>
        <time>2019-01-13T10:53:47Z</time>
      </trkpt>
      <trkpt lat="48.58836" lon="2.56318">
        <ele>38.03289</ele>
        <time>2019-01-13T10:53:49Z</time>
      </trkpt>
      <trkpt lat="48.58844" lon="2.56324">
        <ele>36.9522</ele>
        <time>2019-01-13T10:53:51Z</time>
      </trkpt>
      <trkpt lat="48.58854" lon="2.5633">
        <ele>36.516224</ele>
        <time>2019-01-13T10:53:53Z</time>
      </trkpt>
      <trkpt lat="48.58863" lon="2.56336">
        <ele>36.20708</ele>
        <time>2019-01-13T10:53:55Z</time>
      </trkpt>
      <trkpt lat="48.58876" lon="2.56342">
        <ele>36.074966</ele>
        <time>2019-01-13T10:53:57Z</time>
      </trkpt>
      <trkpt lat="48.58889" lon="2.56346">
        <ele>36.24143</ele>
        <time>2019-01-13T10:53:59Z</time>
      </trkpt>
      <trkpt lat="48.58902" lon="2.5635">
        <ele>36.503014</ele>
        <time>2019-01-13T10:54:01Z</time>
      </trkpt>
      <trkpt lat="48.58915" lon="2.56354">
        <ele>35.773746</ele>
        <time>2019-01-13T10:54:03Z</time>
      </trkpt>
      <trkpt lat="48.58929" lon="2.56358">
        <ele>35.927</ele>
        <time>2019-01-13T10:54:05Z</time>
      </trkpt>
      <trkpt lat="48.58942" lon="2.56363">
        <ele>35.77903</ele>
        <time>2019-01-13T10:54:07Z</time>
      </trkpt>
      <trkpt lat="48.58954" lon="2.56369">
        <ele>35.58086</ele>
        <time>2019-01-13T10:54:09Z</time>
      </trkpt>
      <trkpt lat="48.58966" lon="2.56373">
        <ele>35.668056</ele>
        <time>2019-01-13T10:54:11Z</time>
      </trkpt>
      <trkpt lat="48.58976" lon="2.56382">
        <ele>35.786957</ele>
        <time>2019-01-13T10:54:13Z</time>
      </trkpt>
      <trkpt lat="48.58987" lon="2.56392">
        <ele>35.924355</ele>
        <time>2019-01-13T10:54:15Z</time>
      </trkpt>
      <trkpt lat="48.58999" lon="2.564">
        <ele>35.443462</ele>
        <time>2019-01-13T10:54:17Z</time>
      </trkpt>
      <trkpt lat="48.59009" lon="2.56407">
        <ele>35.808098</ele>
        <time>2019-01-13T10:54:19Z</time>
      </trkpt>
      <trkpt lat="48.59018" lon="2.56414">
        <ele>35.892647</ele>
        <time>2019-01-13T10:54:21Z</time>
      </trkpt>
      <trkpt lat="48.5903" lon="2.5642">
        <ele>35.94021</ele>
        <time>2019-01-13T10:54:23Z</time>
      </trkpt>
      <trkpt lat="48.59042" lon="2.56424">
        <ele>36.164803</ele>
        <time>2019-01-13T10:54:25Z</time>
      </trkpt>
      <trkpt lat="48.59056" lon="2.56428">
        <ele>36.14631</ele>
        <time>2019-01-13T10:54:27Z</time>
      </trkpt>
      <trkpt lat="48.59067" lon="2.56433">
        <ele>35.837162</ele>
        <time>2019-01-13T10:54:29Z</time>
      </trkpt>
      <trkpt lat="48.59078" lon="2.56439">
        <ele>35.75261</ele>
        <time>2019-01-13T10:54:31Z</time>
      </trkpt>
      <trkpt lat="48.59089" lon="2.56443">
        <ele>35.681267</ele>
        <time>2019-01-13T10:54:33Z</time>
      </trkpt>
      <trkpt lat="48.591" lon="2.56449">
        <ele>35.274357</ele>
        <time>2019-01-13T10:54:35Z</time>
      </trkpt>
      <trkpt lat="48.59112" lon="2.56455">
        <ele>35.68391</ele>
        <time>2019-01-13T10:54:37Z</time>
      </trkpt>
      <trkpt lat="48.59125" lon="2.56458">
        <ele>35.59143</ele>
        <time>2019-01-13T10:54:39Z</time>
      </trkpt>
      <trkpt lat="48.59139" lon="2.56461">
        <ele>35.773746</ele>
        <time>2019-01-13T10:54:41Z</time>
      </trkpt>
      <trkpt lat="48.59153" lon="2.56464">
        <ele>36.085533</ele>
        <time>2019-01-13T10:54:43Z</time>
      </trkpt>
      <trkpt lat="48.59166" lon="2.56469">
        <ele>36.495087</ele>
        <time>2019-01-13T10:54:45Z</time>
      </trkpt>
      <trkpt lat="48.59177" lon="2.56475">
        <ele>36.333908</ele>
        <time>2019-01-13T10:54:47Z</time>
      </trkpt>
      <trkpt lat="48.59187" lon="2.56482">
        <ele>36.098747</ele>
        <time>2019-01-13T10:54:49Z</time>
      </trkpt>
      <trkpt lat="48.59198" lon="2.5649">
        <ele>36.270493</ele>
        <time>2019-01-13T10:54:51Z</time>
      </trkpt>
      <trkpt lat="48.5921" lon="2.56496">
        <ele>36.154232</ele>
        <time>2019-01-13T10:54:53Z</time>
      </trkpt>
      <trkpt lat="48.59222" lon="2.56501">
        <ele>35.900574</ele>
        <time>2019-01-13T10:54:55Z</time>
      </trkpt>
      <trkpt lat="48.59232" lon="2.56507">
        <ele>36.188583</ele>
        <time>2019-01-13T10:54:57Z</time>
      </trkpt>
      <trkpt lat="48.59244" lon="2.56511">
        <ele>35.916428</ele>
        <time>2019-01-13T10:54:59Z</time>
      </trkpt>
      <trkpt lat="48.59258" lon="2.56514">
        <ele>36.16216</ele>
        <time>2019-01-13T10:55:01Z</time>
      </trkpt>
      <trkpt lat="48.5927" lon="2.56516">
        <ele>36.529438</ele>
        <time>2019-01-13T10:55:03Z</time>
      </trkpt>
      <trkpt lat="48.59284" lon="2.56519">
        <ele>36.51094</ele>
        <time>2019-01-13T10:55:05Z</time>
      </trkpt>
      <trkpt lat="48.59296" lon="2.56524">
        <ele>36.44224</ele>
        <time>2019-01-13T10:55:07Z</time>
      </trkpt>
      <trkpt lat="48.59307" lon="2.56527">
        <ele>36.39204</ele>
        <time>2019-01-13T10:55:09Z</time>
      </trkpt>
      <trkpt lat="48.59319" lon="2.56528">
        <ele>36.178013</ele>
        <time>2019-01-13T10:55:11Z</time>
      </trkpt>
      <trkpt lat="48.59332" lon="2.56531">
        <ele>36.439598</ele>
        <time>2019-01-13T10:55:13Z</time>
      </trkpt>
      <trkpt lat="48.59346" lon="2.56534">
        <ele>36.57964</ele>
        <time>2019-01-13T10:55:15Z</time>
      </trkpt>
      <trkpt lat="48.59359" lon="2.56534">
        <ele>36.608704</ele>
        <time>2019-01-13T10:55:17Z</time>
      </trkpt>
      <trkpt lat="48.59372" lon="2.56535">
        <ele>36.54265</ele>
        <time>2019-01-13T10:55:19Z</time>
      </trkpt>
      <trkpt lat="48.59386" lon="2.56535">
        <ele>36.994476</ele>
        <time>2019-01-13T10:55:21Z</time>
      </trkpt>
      <trkpt lat="48.59397" lon="2.56536">
        <ele>36.933704</ele>
        <time>2019-01-13T10:55:23Z</time>
      </trkpt>
      <trkpt lat="48.59411" lon="2.56533">
        <ele>37.559925</ele>
        <time>2019-01-13T10:55:25Z</time>
      </trkpt>
      <trkpt lat="48.59422" lon="2.56532">
        <ele>36.476593</ele>
        <time>2019-01-13T10:55:27Z</time>
      </trkpt>
      <trkpt lat="48.59432" lon="2.56529">
        <ele>36.389397</ele>
        <time>2019-01-13T10:55:29Z</time>
      </trkpt>
      <trkpt lat="48.59443" lon="2.56528">
        <ele>36.373543</ele>
        <time>2019-01-13T10:55:31Z</time>
      </trkpt>
      <trkpt lat="48.59452" lon="2.56531">
        <ele>36.79895</ele>
        <time>2019-01-13T10:55:33Z</time>
      </trkpt>
      <trkpt lat="48.59463" lon="2.56533">
        <ele>37.028828</ele>
        <time>2019-01-13T10:55:36Z</time>
      </trkpt>
      <trkpt lat="48.59473" lon="2.56534">
        <ele>36.83594</ele>
        <time>2019-01-13T10:55:40Z</time>
      </trkpt>
      <trkpt lat="48.59482" lon="2.56536">
        <ele>36.727608</ele>
        <time>2019-01-13T10:55:43Z</time>
      </trkpt>
      <trkpt lat="48.59491" lon="2.56531">
        <ele>37.422523</ele>
        <time>2019-01-13T10:55:46Z</time>
      </trkpt>
      <trkpt lat="48.59496" lon="2.56516">
        <ele>37.911346</ele>
        <time>2019-01-13T10:55:49Z</time>
      </trkpt>
      <trkpt lat="48.59502" lon="2.56504">
        <ele>38.3896</ele>
        <time>2019-01-13T10:55:51Z</time>
      </trkpt>
      <trkpt lat="48.59509" lon="2.5649">
        <ele>38.606262</ele>
        <time>2019-01-13T10:55:53Z</time>
      </trkpt>
      <trkpt lat="48.59517" lon="2.56479">
        <ele>38.616833</ele>
        <time>2019-01-13T10:55:55Z</time>
      </trkpt>
      <trkpt lat="48.59527" lon="2.56469">
        <ele>38.645897</ele>
        <time>2019-01-13T10:55:57Z</time>
      </trkpt>
      <trkpt lat="48.59538" lon="2.56463">
        <ele>38.503216</ele>
        <time>2019-01-13T10:55:59Z</time>
      </trkpt>
      <trkpt lat="48.59549" lon="2.56457">
        <ele>38.328827</ele>
        <time>2019-01-13T10:56:01Z</time>
      </trkpt>
      <trkpt lat="48.5956" lon="2.56451">
        <ele>38.178215</ele>
        <time>2019-01-13T10:56:03Z</time>
      </trkpt>
      <trkpt lat="48.59572" lon="2.56443">
        <ele>38.410736</ele>
        <time>2019-01-13T10:56:05Z</time>
      </trkpt>
      <trkpt lat="48.59583" lon="2.56435">
        <ele>38.63533</ele>
        <time>2019-01-13T10:56:07Z</time>
      </trkpt>
      <trkpt lat="48.59594" lon="2.56426">
        <ele>38.67232</ele>
        <time>2019-01-13T10:56:09Z</time>
      </trkpt>
      <trkpt lat="48.59605" lon="2.56416">
        <ele>38.756874</ele>
        <time>2019-01-13T10:56:11Z</time>
      </trkpt>
      <trkpt lat="48.59616" lon="2.56406">
        <ele>38.49529</ele>
        <time>2019-01-13T10:56:13Z</time>
      </trkpt>
      <trkpt lat="48.59626" lon="2.56397">
        <ele>38.3209</ele>
        <time>2019-01-13T10:56:15Z</time>
      </trkpt>
      <trkpt lat="48.59637" lon="2.56387">
        <ele>38.418663</ele>
        <time>2019-01-13T10:56:17Z</time>
      </trkpt>
      <trkpt lat="48.59648" lon="2.56376">
        <ele>38.47415</ele>
        <time>2019-01-13T10:56:19Z</time>
      </trkpt>
      <trkpt lat="48.59659" lon="2.56366">
        <ele>38.33411</ele>
        <time>2019-01-13T10:56:21Z</time>
      </trkpt>
      <trkpt lat="48.59671" lon="2.56356">
        <ele>38.12537</ele>
        <time>2019-01-13T10:56:23Z</time>
      </trkpt>
      <trkpt lat="48.59683" lon="2.56345">
        <ele>38.32354</ele>
        <time>2019-01-13T10:56:25Z</time>
      </trkpt>
      <trkpt lat="48.59695" lon="2.56336">
        <ele>38.582485</ele>
        <time>2019-01-13T10:56:27Z</time>
      </trkpt>
      <trkpt lat="48.59706" lon="2.56327">
        <ele>38.29712</ele>
        <time>2019-01-13T10:56:29Z</time>
      </trkpt>
      <trkpt lat="48.59719" lon="2.56318">
        <ele>38.67232</ele>
        <time>2019-01-13T10:56:31Z</time>
      </trkpt>
      <trkpt lat="48.59731" lon="2.56309">
        <ele>38.355247</ele>
        <time>2019-01-13T10:56:33Z</time>
      </trkpt>
      <trkpt lat="48.59742" lon="2.56301">
        <ele>38.431873</ele>
        <time>2019-01-13T10:56:35Z</time>
      </trkpt>
      <trkpt lat="48.59754" lon="2.56293">
        <ele>38.63533</ele>
        <time>2019-01-13T10:56:37Z</time>
      </trkpt>
      <trkpt lat="48.59766" lon="2.56287">
        <ele>38.550777</ele>
        <time>2019-01-13T10:56:39Z</time>
      </trkpt>
      <trkpt lat="48.59779" lon="2.5628">
        <ele>38.71724</ele>
        <time>2019-01-13T10:56:41Z</time>
      </trkpt>
      <trkpt lat="48.59791" lon="2.56275">
        <ele>38.07781</ele>
        <time>2019-01-13T10:56:43Z</time>
      </trkpt>
      <trkpt lat="48.59803" lon="2.5627">
        <ele>38.09102</ele>
        <time>2019-01-13T10:56:45Z</time>
      </trkpt>
      <trkpt lat="48.59817" lon="2.56265">
        <ele>38.37903</ele>
        <time>2019-01-13T10:56:47Z</time>
      </trkpt>
      <trkpt lat="48.59829" lon="2.56261">
        <ele>37.998543</ele>
        <time>2019-01-13T10:56:49Z</time>
      </trkpt>
      <trkpt lat="48.59842" lon="2.56256">
        <ele>37.958908</ele>
        <time>2019-01-13T10:56:51Z</time>
      </trkpt>
      <trkpt lat="48.59854" lon="2.56253">
        <ele>37.480656</ele>
        <time>2019-01-13T10:56:53Z</time>
      </trkpt>
      <trkpt lat="48.59866" lon="2.56249">
        <ele>37.816223</ele>
        <time>2019-01-13T10:56:55Z</time>
      </trkpt>
      <trkpt lat="48.59877" lon="2.56246">
        <ele>37.882282</ele>
        <time>2019-01-13T10:56:57Z</time>
      </trkpt>
      <trkpt lat="48.59889" lon="2.56243">
        <ele>37.943054</ele>
        <time>2019-01-13T10:56:59Z</time>
      </trkpt>
      <trkpt lat="48.59899" lon="2.5624">
        <ele>37.932484</ele>
        <time>2019-01-13T10:57:01Z</time>
      </trkpt>
      <trkpt lat="48.59908" lon="2.56237">
        <ele>37.816223</ele>
        <time>2019-01-13T10:57:03Z</time>
      </trkpt>
      <trkpt lat="48.59919" lon="2.56238">
        <ele>37.538784</ele>
        <time>2019-01-13T10:57:06Z</time>
      </trkpt>
      <trkpt lat="48.59927" lon="2.56246">
        <ele>37.382893</ele>
        <time>2019-01-13T10:57:09Z</time>
      </trkpt>
      <trkpt lat="48.59938" lon="2.56248">
        <ele>38.201996</ele>
        <time>2019-01-13T10:57:12Z</time>
      </trkpt>
      <trkpt lat="48.5995" lon="2.56249">
        <ele>38.490005</ele>
        <time>2019-01-13T10:57:15Z</time>
      </trkpt>
      <trkpt lat="48.5996" lon="2.56246">
        <ele>38.57456</ele>
        <time>2019-01-13T10:57:17Z</time>
      </trkpt>
      <trkpt lat="48.59972" lon="2.56245">
        <ele>39.36988</ele>
        <time>2019-01-13T10:57:19Z</time>
      </trkpt>
      <trkpt lat="48.59982" lon="2.56243">
        <ele>39.631466</ele>
        <time>2019-01-13T10:57:21Z</time>
      </trkpt>
      <trkpt lat="48.59993" lon="2.56241">
        <ele>39.084515</ele>
        <time>2019-01-13T10:57:23Z</time>
      </trkpt>
      <trkpt lat="48.60004" lon="2.56238">
        <ele>39.176994</ele>
        <time>2019-01-13T10:57:25Z</time>
      </trkpt>
      <trkpt lat="48.60016" lon="2.56234">
        <ele>39.39366</ele>
        <time>2019-01-13T10:57:27Z</time>
      </trkpt>
      <trkpt lat="48.60028" lon="2.5623">
        <ele>39.39366</ele>
        <time>2019-01-13T10:57:29Z</time>
      </trkpt>
      <trkpt lat="48.6004" lon="2.56226">
        <ele>40.075367</ele>
        <time>2019-01-13T10:57:31Z</time>
      </trkpt>
      <trkpt lat="48.60051" lon="2.56223">
        <ele>39.92476</ele>
        <time>2019-01-13T10:57:33Z</time>
      </trkpt>
      <trkpt lat="48.60063" lon="2.5622">
        <ele>39.80057</ele>
        <time>2019-01-13T10:57:35Z</time>
      </trkpt>
      <trkpt lat="48.60075" lon="2.56217">
        <ele>39.72659</ele>
        <time>2019-01-13T10:57:37Z</time>
      </trkpt>
      <trkpt lat="48.60085" lon="2.56214">
        <ele>39.990814</ele>
        <time>2019-01-13T10:57:39Z</time>
      </trkpt>
      <trkpt lat="48.60095" lon="2.56208">
        <ele>40.31846</ele>
        <time>2019-01-13T10:57:41Z</time>
      </trkpt>
      <trkpt lat="48.60104" lon="2.56202">
        <ele>39.72659</ele>
        <time>2019-01-13T10:57:43Z</time>
      </trkpt>
      <trkpt lat="48.60115" lon="2.56197">
        <ele>39.97232</ele>
        <time>2019-01-13T10:57:45Z</time>
      </trkpt>
      <trkpt lat="48.60126" lon="2.56193">
        <ele>40.210125</ele>
        <time>2019-01-13T10:57:47Z</time>
      </trkpt>
      <trkpt lat="48.60138" lon="2.56189">
        <ele>40.2524</ele>
        <time>2019-01-13T10:57:49Z</time>
      </trkpt>
      <trkpt lat="48.60151" lon="2.56185">
        <ele>39.9961</ele>
        <time>2019-01-13T10:57:51Z</time>
      </trkpt>
      <trkpt lat="48.60162" lon="2.56181">
        <ele>41.27496</ele>
        <time>2019-01-13T10:57:53Z</time>
      </trkpt>
      <trkpt lat="48.60173" lon="2.56177">
        <ele>40.52191</ele>
        <time>2019-01-13T10:57:55Z</time>
      </trkpt>
      <trkpt lat="48.60185" lon="2.56175">
        <ele>40.175774</ele>
        <time>2019-01-13T10:57:57Z</time>
      </trkpt>
      <trkpt lat="48.60195" lon="2.56171">
        <ele>40.654026</ele>
        <time>2019-01-13T10:57:59Z</time>
      </trkpt>
      <trkpt lat="48.60206" lon="2.56166">
        <ele>40.99488</ele>
        <time>2019-01-13T10:58:01Z</time>
      </trkpt>
      <trkpt lat="48.60217" lon="2.56161">
        <ele>41.383293</ele>
        <time>2019-01-13T10:58:03Z</time>
      </trkpt>
      <trkpt lat="48.60227" lon="2.56155">
        <ele>41.17984</ele>
        <time>2019-01-13T10:58:05Z</time>
      </trkpt>
      <trkpt lat="48.60238" lon="2.56149">
        <ele>41.079433</ele>
        <time>2019-01-13T10:58:07Z</time>
      </trkpt>
      <trkpt lat="48.60249" lon="2.56143">
        <ele>41.49427</ele>
        <time>2019-01-13T10:58:09Z</time>
      </trkpt>
      <trkpt lat="48.6026" lon="2.56136">
        <ele>41.356873</ele>
        <time>2019-01-13T10:58:11Z</time>
      </trkpt>
      <trkpt lat="48.60271" lon="2.56128">
        <ele>41.652805</ele>
        <time>2019-01-13T10:58:13Z</time>
      </trkpt>
      <trkpt lat="48.60282" lon="2.5612">
        <ele>41.86419</ele>
        <time>2019-01-13T10:58:15Z</time>
      </trkpt>
      <trkpt lat="48.60287" lon="2.56117">
        <ele>41.79549</ele>
        <time>2019-01-13T10:58:16Z</time>
      </trkpt>
      <trkpt lat="48.60297" lon="2.5611">
        <ele>41.872116</ele>
        <time>2019-01-13T10:58:18Z</time>
      </trkpt>
      <trkpt lat="48.60302" lon="2.56106">
        <ele>41.504837</ele>
        <time>2019-01-13T10:58:19Z</time>
      </trkpt>
      <trkpt lat="48.60311" lon="2.56099">
        <ele>41.629025</ele>
        <time>2019-01-13T10:58:21Z</time>
      </trkpt>
      <trkpt lat="48.6032" lon="2.5609">
        <ele>41.919674</ele>
        <time>2019-01-13T10:58:23Z</time>
      </trkpt>
      <trkpt lat="48.60328" lon="2.56083">
        <ele>41.837765</ele>
        <time>2019-01-13T10:58:25Z</time>
      </trkpt>
      <trkpt lat="48.60336" lon="2.56075">
        <ele>41.499554</ele>
        <time>2019-01-13T10:58:27Z</time>
      </trkpt>
      <trkpt lat="48.60344" lon="2.56067">
        <ele>41.615814</ele>
        <time>2019-01-13T10:58:29Z</time>
      </trkpt>
      <trkpt lat="48.60353" lon="2.5606">
        <ele>41.9276</ele>
        <time>2019-01-13T10:58:31Z</time>
      </trkpt>
      <trkpt lat="48.60362" lon="2.56058">
        <ele>41.86683</ele>
        <time>2019-01-13T10:58:33Z</time>
      </trkpt>
      <trkpt lat="48.60372" lon="2.56057">
        <ele>41.85362</ele>
        <time>2019-01-13T10:58:35Z</time>
      </trkpt>
      <trkpt lat="48.60381" lon="2.56059">
        <ele>41.848335</ele>
        <time>2019-01-13T10:58:37Z</time>
      </trkpt>
      <trkpt lat="48.60392" lon="2.56069">
        <ele>41.43614</ele>
        <time>2019-01-13T10:58:40Z</time>
      </trkpt>
      <trkpt lat="48.60398" lon="2.56082">
        <ele>41.348946</ele>
        <time>2019-01-13T10:58:43Z</time>
      </trkpt>
      <trkpt lat="48.60403" lon="2.56096">
        <ele>41.314594</ele>
        <time>2019-01-13T10:58:47Z</time>
      </trkpt>
      <trkpt lat="48.60408" lon="2.56111">
        <ele>41.62374</ele>
        <time>2019-01-13T10:58:50Z</time>
      </trkpt>
      <trkpt lat="48.60414" lon="2.56125">
        <ele>41.800774</ele>
        <time>2019-01-13T10:58:53Z</time>
      </trkpt>
      <trkpt lat="48.60421" lon="2.56138">
        <ele>41.72679</ele>
        <time>2019-01-13T10:58:56Z</time>
      </trkpt>
      <trkpt lat="48.60426" lon="2.56152">
        <ele>41.911747</ele>
        <time>2019-01-13T10:58:59Z</time>
      </trkpt>
      <trkpt lat="48.60431" lon="2.56165">
        <ele>41.858902</ele>
        <time>2019-01-13T10:59:01Z</time>
      </trkpt>
      <trkpt lat="48.60435" lon="2.56178">
        <ele>41.919674</ele>
        <time>2019-01-13T10:59:03Z</time>
      </trkpt>
      <trkpt lat="48.60439" lon="2.56191">
        <ele>41.660732</ele>
        <time>2019-01-13T10:59:05Z</time>
      </trkpt>
      <trkpt lat="48.60444" lon="2.56209">
        <ele>41.84041</ele>
        <time>2019-01-13T10:59:08Z</time>
      </trkpt>
      <trkpt lat="48.60448" lon="2.56226">
        <ele>42.014797</ele>
        <time>2019-01-13T10:59:11Z</time>
      </trkpt>
      <trkpt lat="48.60453" lon="2.56239">
        <ele>42.080853</ele>
        <time>2019-01-13T10:59:14Z</time>
      </trkpt>
      <trkpt lat="48.6046" lon="2.56252">
        <ele>41.689796</ele>
        <time>2019-01-13T10:59:18Z</time>
      </trkpt>
      <trkpt lat="48.60466" lon="2.56266">
        <ele>41.660732</ele>
        <time>2019-01-13T10:59:22Z</time>
      </trkpt>
      <trkpt lat="48.60476" lon="2.56271">
        <ele>42.286953</ele>
        <time>2019-01-13T10:59:26Z</time>
      </trkpt>
      <trkpt lat="48.60479" lon="2.56271">
        <ele>42.323944</ele>
        <time>2019-01-13T10:59:27Z</time>
      </trkpt>
      <trkpt lat="48.60483" lon="2.5627">
        <ele>42.19183</ele>
        <time>2019-01-13T10:59:28Z</time>
      </trkpt>
      <trkpt lat="48.60492" lon="2.56266">
        <ele>42.852398</ele>
        <time>2019-01-13T10:59:30Z</time>
      </trkpt>
      <trkpt lat="48.60496" lon="2.56264">
        <ele>42.963375</ele>
        <time>2019-01-13T10:59:31Z</time>
      </trkpt>
      <trkpt lat="48.60501" lon="2.56261">
        <ele>42.804836</ele>
        <time>2019-01-13T10:59:32Z</time>
      </trkpt>
      <trkpt lat="48.60512" lon="2.56257">
        <ele>42.839188</ele>
        <time>2019-01-13T10:59:35Z</time>
      </trkpt>
      <trkpt lat="48.60521" lon="2.56253">
        <ele>42.30809</ele>
        <time>2019-01-13T10:59:38Z</time>
      </trkpt>
      <trkpt lat="48.60523" lon="2.56238">
        <ele>43.28309</ele>
        <time>2019-01-13T10:59:41Z</time>
      </trkpt>
      <trkpt lat="48.60523" lon="2.56233">
        <ele>43.18004</ele>
        <time>2019-01-13T10:59:42Z</time>
      </trkpt>
      <trkpt lat="48.60526" lon="2.56216">
        <ele>43.465405</ele>
        <time>2019-01-13T10:59:45Z</time>
      </trkpt>
      <trkpt lat="48.60527" lon="2.56211">
        <ele>43.544674</ele>
        <time>2019-01-13T10:59:46Z</time>
      </trkpt>
      <trkpt lat="48.60529" lon="2.56206">
        <ele>43.483902</ele>
        <time>2019-01-13T10:59:47Z</time>
      </trkpt>
      <trkpt lat="48.60534" lon="2.56192">
        <ele>43.497112</ele>
        <time>2019-01-13T10:59:49Z</time>
      </trkpt>
      <trkpt lat="48.60535" lon="2.56185">
        <ele>44.099552</ele>
        <time>2019-01-13T10:59:50Z</time>
      </trkpt>
      <trkpt lat="48.60536" lon="2.56179">
        <ele>43.925163</ele>
        <time>2019-01-13T10:59:51Z</time>
      </trkpt>
      <trkpt lat="48.6054" lon="2.56166">
        <ele>44.0652</ele>
        <time>2019-01-13T10:59:53Z</time>
      </trkpt>
      <trkpt lat="48.60542" lon="2.56159">
        <ele>44.2026</ele>
        <time>2019-01-13T10:59:54Z</time>
      </trkpt>
      <trkpt lat="48.60544" lon="2.56154">
        <ele>44.184105</ele>
        <time>2019-01-13T10:59:55Z</time>
      </trkpt>
      <trkpt lat="48.60547" lon="2.56141">
        <ele>44.62008</ele>
        <time>2019-01-13T10:59:57Z</time>
      </trkpt>
      <trkpt lat="48.60548" lon="2.56134">
        <ele>44.498535</ele>
        <time>2019-01-13T10:59:58Z</time>
      </trkpt>
      <trkpt lat="48.60553" lon="2.5612">
        <ele>44.24752</ele>
        <time>2019-01-13T11:00:01Z</time>
      </trkpt>
      <trkpt lat="48.6056" lon="2.56105">
        <ele>44.020283</ele>
        <time>2019-01-13T11:00:04Z</time>
      </trkpt>
      <trkpt lat="48.60569" lon="2.56098">
        <ele>43.769268</ele>
        <time>2019-01-13T11:00:07Z</time>
      </trkpt>
      <trkpt lat="48.60581" lon="2.56096">
        <ele>43.04</ele>
        <time>2019-01-13T11:00:10Z</time>
      </trkpt>
      <trkpt lat="48.60592" lon="2.561">
        <ele>42.96866</ele>
        <time>2019-01-13T11:00:13Z</time>
      </trkpt>
      <trkpt lat="48.60601" lon="2.56113">
        <ele>42.722927</ele>
        <time>2019-01-13T11:00:16Z</time>
      </trkpt>
      <trkpt lat="48.60608" lon="2.56123">
        <ele>43.20118</ele>
        <time>2019-01-13T11:00:18Z</time>
      </trkpt>
      <trkpt lat="48.60617" lon="2.56132">
        <ele>43.13248</ele>
        <time>2019-01-13T11:00:21Z</time>
      </trkpt>
      <trkpt lat="48.60628" lon="2.56133">
        <ele>43.32008</ele>
        <time>2019-01-13T11:00:24Z</time>
      </trkpt>
      <trkpt lat="48.60638" lon="2.56136">
        <ele>43.407276</ele>
        <time>2019-01-13T11:00:27Z</time>
      </trkpt>
      <trkpt lat="48.60641" lon="2.5615">
        <ele>44.07577</ele>
        <time>2019-01-13T11:00:31Z</time>
      </trkpt>
      <trkpt lat="48.60643" lon="2.5617">
        <ele>43.861748</ele>
        <time>2019-01-13T11:00:34Z</time>
      </trkpt>
      <trkpt lat="48.60645" lon="2.56183">
        <ele>43.941013</ele>
        <time>2019-01-13T11:00:36Z</time>
      </trkpt>
      <trkpt lat="48.60646" lon="2.56202">
        <ele>43.92252</ele>
        <time>2019-01-13T11:00:39Z</time>
      </trkpt>
      <trkpt lat="48.60646" lon="2.56218">
        <ele>43.814186</ele>
        <time>2019-01-13T11:00:41Z</time>
      </trkpt>
      <trkpt lat="48.60647" lon="2.56232">
        <ele>43.732277</ele>
        <time>2019-01-13T11:00:43Z</time>
      </trkpt>
      <trkpt lat="48.60646" lon="2.56246">
        <ele>43.861748</ele>
        <time>2019-01-13T11:00:45Z</time>
      </trkpt>
      <trkpt lat="48.60646" lon="2.5626">
        <ele>43.721706</ele>
        <time>2019-01-13T11:00:47Z</time>
      </trkpt>
      <trkpt lat="48.60646" lon="2.5628">
        <ele>43.51825</ele>
        <time>2019-01-13T11:00:50Z</time>
      </trkpt>
      <trkpt lat="48.60651" lon="2.56297">
        <ele>43.394066</ele>
        <time>2019-01-13T11:00:53Z</time>
      </trkpt>
      <trkpt lat="48.60646" lon="2.5631">
        <ele>43.586952</ele>
        <time>2019-01-13T11:00:58Z</time>
      </trkpt>
      <trkpt lat="48.60636" lon="2.56306">
        <ele>43.15626</ele>
        <time>2019-01-13T11:01:01Z</time>
      </trkpt>
      <trkpt lat="48.60625" lon="2.56311">
        <ele>42.720284</ele>
        <time>2019-01-13T11:01:04Z</time>
      </trkpt>
      <trkpt lat="48.60616" lon="2.56321">
        <ele>42.707073</ele>
        <time>2019-01-13T11:01:07Z</time>
      </trkpt>
      <trkpt lat="48.60611" lon="2.56336">
        <ele>42.28431</ele>
        <time>2019-01-13T11:01:10Z</time>
      </trkpt>
      <trkpt lat="48.60614" lon="2.56351">
        <ele>42.313374</ele>
        <time>2019-01-13T11:01:13Z</time>
      </trkpt>
      <trkpt lat="48.60613" lon="2.56358">
        <ele>42.101994</ele>
        <time>2019-01-13T11:01:20Z</time>
      </trkpt>
      <trkpt lat="48.60613" lon="2.56358">
        <ele>42.101994</ele>
        <time>2019-01-13T11:01:20Z</time>
      </trkpt>
    </trkseg>
  </trk>
</gpx>